<?xml version='1.0' encoding='UTF-8'?>
<gpx version="1.1" creator="https://www.komoot.de" xmlns="http://www.topografix.com/GPX/1/1" xmlns:xsi="http://www.w3.org/2001/XMLSchema-instance" xsi:schemaLocation="http://www.topografix.com/GPX/1/1 http://www.topografix.com/GPX/1/1/gpx.xsd">
  <metadata>
    <name>Cambaceres60</name>
    <author>
      <link href="https://www.komoot.de">
        <text>komoot</text>
        <type>text/html</type>
      </link>
    </author>
  </metadata>
  <trk>
    <name>Cambaceres60</name>
    <trkseg>
      <trkpt lat="48.884462" lon="2.268923">
        <ele>42.827309</ele>
        <time>2023-10-19T18:06:22.010Z</time>
      </trkpt>
      <trkpt lat="48.884560" lon="2.268487">
        <ele>42.827309</ele>
        <time>2023-10-19T18:06:28.435Z</time>
      </trkpt>
      <trkpt lat="48.884586" lon="2.268373">
        <ele>42.827309</ele>
        <time>2023-10-19T18:06:30.054Z</time>
      </trkpt>
      <trkpt lat="48.884663" lon="2.268043">
        <ele>42.827309</ele>
        <time>2023-10-19T18:06:34.392Z</time>
      </trkpt>
      <trkpt lat="48.884795" lon="2.267467">
        <ele>42.798572</ele>
        <time>2023-10-19T18:06:41.592Z</time>
      </trkpt>
      <trkpt lat="48.884959" lon="2.266741">
        <ele>42.671749</ele>
        <time>2023-10-19T18:06:49.456Z</time>
      </trkpt>
      <trkpt lat="48.885245" lon="2.265483">
        <ele>42.451844</ele>
        <time>2023-10-19T18:07:01.977Z</time>
      </trkpt>
      <trkpt lat="48.885507" lon="2.264331">
        <ele>41.746237</ele>
        <time>2023-10-19T18:07:11.127Z</time>
      </trkpt>
      <trkpt lat="48.885604" lon="2.263934">
        <ele>41.393917</ele>
        <time>2023-10-19T18:07:14.098Z</time>
      </trkpt>
      <trkpt lat="48.885635" lon="2.263809">
        <ele>41.282782</ele>
        <time>2023-10-19T18:07:15.068Z</time>
      </trkpt>
      <trkpt lat="48.885665" lon="2.263684">
        <ele>41.172087</ele>
        <time>2023-10-19T18:07:16.064Z</time>
      </trkpt>
      <trkpt lat="48.885729" lon="2.263679">
        <ele>41.091014</ele>
        <time>2023-10-19T18:07:16.796Z</time>
      </trkpt>
      <trkpt lat="48.885795" lon="2.263389">
        <ele>40.835728</ele>
        <time>2023-10-19T18:07:19.036Z</time>
      </trkpt>
      <trkpt lat="48.885951" lon="2.262734">
        <ele>40.256207</ele>
        <time>2023-10-19T18:07:24.704Z</time>
      </trkpt>
      <trkpt lat="48.885924" lon="2.262633">
        <ele>40.165510</ele>
        <time>2023-10-19T18:07:25.726Z</time>
      </trkpt>
      <trkpt lat="48.886180" lon="2.262095">
        <ele>40.283149</ele>
        <time>2023-10-19T18:07:32.151Z</time>
      </trkpt>
      <trkpt lat="48.886348" lon="2.261853">
        <ele>40.393299</ele>
        <time>2023-10-19T18:07:36.163Z</time>
      </trkpt>
      <trkpt lat="48.886381" lon="2.261735">
        <ele>40.433435</ele>
        <time>2023-10-19T18:07:37.510Z</time>
      </trkpt>
      <trkpt lat="48.886281" lon="2.261709">
        <ele>40.481727</ele>
        <time>2023-10-19T18:07:38.985Z</time>
      </trkpt>
      <trkpt lat="48.886199" lon="2.261603">
        <ele>40.532957</ele>
        <time>2023-10-19T18:07:40.858Z</time>
      </trkpt>
      <trkpt lat="48.886167" lon="2.261485">
        <ele>40.572909</ele>
        <time>2023-10-19T18:07:42.217Z</time>
      </trkpt>
      <trkpt lat="48.886167" lon="2.261414">
        <ele>40.595133</ele>
        <time>2023-10-19T18:07:42.938Z</time>
      </trkpt>
      <trkpt lat="48.886201" lon="2.261343">
        <ele>40.622625</ele>
        <time>2023-10-19T18:07:43.757Z</time>
      </trkpt>
      <trkpt lat="48.886247" lon="2.261313">
        <ele>40.646450</ele>
        <time>2023-10-19T18:07:44.586Z</time>
      </trkpt>
      <trkpt lat="48.885937" lon="2.261143">
        <ele>40.803316</ele>
        <time>2023-10-19T18:07:50.402Z</time>
      </trkpt>
      <trkpt lat="48.885580" lon="2.260958">
        <ele>41.016176</ele>
        <time>2023-10-19T18:07:57.738Z</time>
      </trkpt>
      <trkpt lat="48.885436" lon="2.260881">
        <ele>41.179481</ele>
        <time>2023-10-19T18:08:01.207Z</time>
      </trkpt>
      <trkpt lat="48.885050" lon="2.260673">
        <ele>41.617605</ele>
        <time>2023-10-19T18:08:10.407Z</time>
      </trkpt>
      <trkpt lat="48.884959" lon="2.260633">
        <ele>41.718947</ele>
        <time>2023-10-19T18:08:12.534Z</time>
      </trkpt>
      <trkpt lat="48.884944" lon="2.260441">
        <ele>41.854971</ele>
        <time>2023-10-19T18:08:15.316Z</time>
      </trkpt>
      <trkpt lat="48.884868" lon="2.260282">
        <ele>41.993258</ele>
        <time>2023-10-19T18:08:18.618Z</time>
      </trkpt>
      <trkpt lat="48.884746" lon="2.260215">
        <ele>42.132031</ele>
        <time>2023-10-19T18:08:21.951Z</time>
      </trkpt>
      <trkpt lat="48.884621" lon="2.260264">
        <ele>42.270134</ele>
        <time>2023-10-19T18:08:25.099Z</time>
      </trkpt>
      <trkpt lat="48.884539" lon="2.260417">
        <ele>42.408995</ele>
        <time>2023-10-19T18:08:27.943Z</time>
      </trkpt>
      <trkpt lat="48.884434" lon="2.260368">
        <ele>42.526500</ele>
        <time>2023-10-19T18:08:29.875Z</time>
      </trkpt>
      <trkpt lat="48.883753" lon="2.260045">
        <ele>42.836493</ele>
        <time>2023-10-19T18:08:40.697Z</time>
      </trkpt>
      <trkpt lat="48.883262" lon="2.259812">
        <ele>42.777426</ele>
        <time>2023-10-19T18:08:48.004Z</time>
      </trkpt>
      <trkpt lat="48.883001" lon="2.259688">
        <ele>42.746024</ele>
        <time>2023-10-19T18:08:52.294Z</time>
      </trkpt>
      <trkpt lat="48.882898" lon="2.259639">
        <ele>42.733630</ele>
        <time>2023-10-19T18:08:53.860Z</time>
      </trkpt>
      <trkpt lat="48.882179" lon="2.259298">
        <ele>42.479950</ele>
        <time>2023-10-19T18:09:04.237Z</time>
      </trkpt>
      <trkpt lat="48.881527" lon="2.258989">
        <ele>41.911004</ele>
        <time>2023-10-19T18:09:12.335Z</time>
      </trkpt>
      <trkpt lat="48.881478" lon="2.258965">
        <ele>41.868117</ele>
        <time>2023-10-19T18:09:13.012Z</time>
      </trkpt>
      <trkpt lat="48.881450" lon="2.258952">
        <ele>41.843727</ele>
        <time>2023-10-19T18:09:13.401Z</time>
      </trkpt>
      <trkpt lat="48.881049" lon="2.258653">
        <ele>41.471655</ele>
        <time>2023-10-19T18:09:19.118Z</time>
      </trkpt>
      <trkpt lat="48.880486" lon="2.258389">
        <ele>41.023807</ele>
        <time>2023-10-19T18:09:26.522Z</time>
      </trkpt>
      <trkpt lat="48.880417" lon="2.258356">
        <ele>40.976856</ele>
        <time>2023-10-19T18:09:27.409Z</time>
      </trkpt>
      <trkpt lat="48.880316" lon="2.258298">
        <ele>40.906778</ele>
        <time>2023-10-19T18:09:28.726Z</time>
      </trkpt>
      <trkpt lat="48.880189" lon="2.258231">
        <ele>40.819522</ele>
        <time>2023-10-19T18:09:30.339Z</time>
      </trkpt>
      <trkpt lat="48.879928" lon="2.258141">
        <ele>40.645805</ele>
        <time>2023-10-19T18:09:33.512Z</time>
      </trkpt>
      <trkpt lat="48.877318" lon="2.256790">
        <ele>39.385655</ele>
        <time>2023-10-19T18:10:10.904Z</time>
      </trkpt>
      <trkpt lat="48.876979" lon="2.256619">
        <ele>39.278247</ele>
        <time>2023-10-19T18:10:16.258Z</time>
      </trkpt>
      <trkpt lat="48.876826" lon="2.256493">
        <ele>39.226555</ele>
        <time>2023-10-19T18:10:18.631Z</time>
      </trkpt>
      <trkpt lat="48.876760" lon="2.256469">
        <ele>39.206394</ele>
        <time>2023-10-19T18:10:19.591Z</time>
      </trkpt>
      <trkpt lat="48.876038" lon="2.256146">
        <ele>38.982810</ele>
        <time>2023-10-19T18:10:30.002Z</time>
      </trkpt>
      <trkpt lat="48.875779" lon="2.256018">
        <ele>38.901904</ele>
        <time>2023-10-19T18:10:33.560Z</time>
      </trkpt>
      <trkpt lat="48.875668" lon="2.255964">
        <ele>38.867281</ele>
        <time>2023-10-19T18:10:35.094Z</time>
      </trkpt>
      <trkpt lat="48.875600" lon="2.255929">
        <ele>38.845954</ele>
        <time>2023-10-19T18:10:36.081Z</time>
      </trkpt>
      <trkpt lat="48.874449" lon="2.255328">
        <ele>38.351924</ele>
        <time>2023-10-19T18:10:52.608Z</time>
      </trkpt>
      <trkpt lat="48.874340" lon="2.255216">
        <ele>38.298392</ele>
        <time>2023-10-19T18:10:54.339Z</time>
      </trkpt>
      <trkpt lat="48.874251" lon="2.255124">
        <ele>38.254601</ele>
        <time>2023-10-19T18:10:55.771Z</time>
      </trkpt>
      <trkpt lat="48.874214" lon="2.255027">
        <ele>38.224591</ele>
        <time>2023-10-19T18:10:56.745Z</time>
      </trkpt>
      <trkpt lat="48.874093" lon="2.254966">
        <ele>38.172720</ele>
        <time>2023-10-19T18:10:58.417Z</time>
      </trkpt>
      <trkpt lat="48.874012" lon="2.255030">
        <ele>38.135576</ele>
        <time>2023-10-19T18:10:59.633Z</time>
      </trkpt>
      <trkpt lat="48.873891" lon="2.254972">
        <ele>38.104903</ele>
        <time>2023-10-19T18:11:01.324Z</time>
      </trkpt>
      <trkpt lat="48.873854" lon="2.254825">
        <ele>38.095494</ele>
        <time>2023-10-19T18:11:02.737Z</time>
      </trkpt>
      <trkpt lat="48.873768" lon="2.254489">
        <ele>38.073941</ele>
        <time>2023-10-19T18:11:06.008Z</time>
      </trkpt>
      <trkpt lat="48.873691" lon="2.254154">
        <ele>38.052728</ele>
        <time>2023-10-19T18:11:09.319Z</time>
      </trkpt>
      <trkpt lat="48.873627" lon="2.253797">
        <ele>38.030608</ele>
        <time>2023-10-19T18:11:12.870Z</time>
      </trkpt>
      <trkpt lat="48.873584" lon="2.253372">
        <ele>38.004904</ele>
        <time>2023-10-19T18:11:17.086Z</time>
      </trkpt>
      <trkpt lat="48.873573" lon="2.253025">
        <ele>37.984136</ele>
        <time>2023-10-19T18:11:20.568Z</time>
      </trkpt>
      <trkpt lat="48.873607" lon="2.252159">
        <ele>37.820803</ele>
        <time>2023-10-19T18:11:29.407Z</time>
      </trkpt>
      <trkpt lat="48.873709" lon="2.251578">
        <ele>37.520862</ele>
        <time>2023-10-19T18:11:35.512Z</time>
      </trkpt>
      <trkpt lat="48.873854" lon="2.251101">
        <ele>37.258759</ele>
        <time>2023-10-19T18:11:40.262Z</time>
      </trkpt>
      <trkpt lat="48.873882" lon="2.251044">
        <ele>37.223274</ele>
        <time>2023-10-19T18:11:40.833Z</time>
      </trkpt>
      <trkpt lat="48.874443" lon="2.249958">
        <ele>36.494215</ele>
        <time>2023-10-19T18:11:51.284Z</time>
      </trkpt>
      <trkpt lat="48.874506" lon="2.249577">
        <ele>36.136994</ele>
        <time>2023-10-19T18:11:54.247Z</time>
      </trkpt>
      <trkpt lat="48.874507" lon="2.249271">
        <ele>35.858748</ele>
        <time>2023-10-19T18:11:56.509Z</time>
      </trkpt>
      <trkpt lat="48.874514" lon="2.248973">
        <ele>35.587606</ele>
        <time>2023-10-19T18:11:59.676Z</time>
      </trkpt>
      <trkpt lat="48.874518" lon="2.248804">
        <ele>35.433837</ele>
        <time>2023-10-19T18:12:01.445Z</time>
      </trkpt>
      <trkpt lat="48.874392" lon="2.248684">
        <ele>35.228288</ele>
        <time>2023-10-19T18:12:03.173Z</time>
      </trkpt>
      <trkpt lat="48.874261" lon="2.248559">
        <ele>35.014467</ele>
        <time>2023-10-19T18:12:04.923Z</time>
      </trkpt>
      <trkpt lat="48.874238" lon="2.248537">
        <ele>34.976900</ele>
        <time>2023-10-19T18:12:05.225Z</time>
      </trkpt>
      <trkpt lat="48.873298" lon="2.247574">
        <ele>34.044309</ele>
        <time>2023-10-19T18:12:18.896Z</time>
      </trkpt>
      <trkpt lat="48.872487" lon="2.246832">
        <ele>33.944316</ele>
        <time>2023-10-19T18:12:33.943Z</time>
      </trkpt>
      <trkpt lat="48.871281" lon="2.245856">
        <ele>34.481160</ele>
        <time>2023-10-19T18:12:56.993Z</time>
      </trkpt>
      <trkpt lat="48.870498" lon="2.245273">
        <ele>34.944491</ele>
        <time>2023-10-19T18:13:12.368Z</time>
      </trkpt>
      <trkpt lat="48.869950" lon="2.244855">
        <ele>35.059770</ele>
        <time>2023-10-19T18:13:22.756Z</time>
      </trkpt>
      <trkpt lat="48.869051" lon="2.244123">
        <ele>35.251520</ele>
        <time>2023-10-19T18:13:37.948Z</time>
      </trkpt>
      <trkpt lat="48.868019" lon="2.243177">
        <ele>34.420599</ele>
        <time>2023-10-19T18:13:53.909Z</time>
      </trkpt>
      <trkpt lat="48.867419" lon="2.242602">
        <ele>33.897724</ele>
        <time>2023-10-19T18:14:02.248Z</time>
      </trkpt>
      <trkpt lat="48.867338" lon="2.242393">
        <ele>33.830413</ele>
        <time>2023-10-19T18:14:04.136Z</time>
      </trkpt>
      <trkpt lat="48.867179" lon="2.241672">
        <ele>33.619405</ele>
        <time>2023-10-19T18:14:10.193Z</time>
      </trkpt>
      <trkpt lat="48.867077" lon="2.241036">
        <ele>33.437756</ele>
        <time>2023-10-19T18:14:16.217Z</time>
      </trkpt>
      <trkpt lat="48.867016" lon="2.240387">
        <ele>33.255839</ele>
        <time>2023-10-19T18:14:22.477Z</time>
      </trkpt>
      <trkpt lat="48.866953" lon="2.239768">
        <ele>33.236045</ele>
        <time>2023-10-19T18:14:28.900Z</time>
      </trkpt>
      <trkpt lat="48.866889" lon="2.238885">
        <ele>33.521317</ele>
        <time>2023-10-19T18:14:39.723Z</time>
      </trkpt>
      <trkpt lat="48.866812" lon="2.238460">
        <ele>33.662878</ele>
        <time>2023-10-19T18:14:44.988Z</time>
      </trkpt>
      <trkpt lat="48.866758" lon="2.238169">
        <ele>33.759974</ele>
        <time>2023-10-19T18:14:48.284Z</time>
      </trkpt>
      <trkpt lat="48.866682" lon="2.237821">
        <ele>33.877725</ele>
        <time>2023-10-19T18:14:52.680Z</time>
      </trkpt>
      <trkpt lat="48.866441" lon="2.237024">
        <ele>33.762949</ele>
        <time>2023-10-19T18:15:02.083Z</time>
      </trkpt>
      <trkpt lat="48.866151" lon="2.236304">
        <ele>33.193872</ele>
        <time>2023-10-19T18:15:08.943Z</time>
      </trkpt>
      <trkpt lat="48.866023" lon="2.236007">
        <ele>32.954533</ele>
        <time>2023-10-19T18:15:11.731Z</time>
      </trkpt>
      <trkpt lat="48.865764" lon="2.235526">
        <ele>32.535535</ele>
        <time>2023-10-19T18:15:16.328Z</time>
      </trkpt>
      <trkpt lat="48.865174" lon="2.234598">
        <ele>31.910057</ele>
        <time>2023-10-19T18:15:25.707Z</time>
      </trkpt>
      <trkpt lat="48.865083" lon="2.234494">
        <ele>31.847947</ele>
        <time>2023-10-19T18:15:27.131Z</time>
      </trkpt>
      <trkpt lat="48.865153" lon="2.234359">
        <ele>31.786257</ele>
        <time>2023-10-19T18:15:28.513Z</time>
      </trkpt>
      <trkpt lat="48.865377" lon="2.233926">
        <ele>31.588567</ele>
        <time>2023-10-19T18:15:33.289Z</time>
      </trkpt>
      <trkpt lat="48.865672" lon="2.233237">
        <ele>31.293538</ele>
        <time>2023-10-19T18:15:41.806Z</time>
      </trkpt>
      <trkpt lat="48.865962" lon="2.232592">
        <ele>31.543718</ele>
        <time>2023-10-19T18:15:51.447Z</time>
      </trkpt>
      <trkpt lat="48.866258" lon="2.231749">
        <ele>32.138655</ele>
        <time>2023-10-19T18:16:03.807Z</time>
      </trkpt>
      <trkpt lat="48.866370" lon="2.231378">
        <ele>32.392800</ele>
        <time>2023-10-19T18:16:09.173Z</time>
      </trkpt>
      <trkpt lat="48.866436" lon="2.231145">
        <ele>32.550741</ele>
        <time>2023-10-19T18:16:12.448Z</time>
      </trkpt>
      <trkpt lat="48.866504" lon="2.230901">
        <ele>32.715724</ele>
        <time>2023-10-19T18:16:15.765Z</time>
      </trkpt>
      <trkpt lat="48.867112" lon="2.228576">
        <ele>34.036467</ele>
        <time>2023-10-19T18:16:43.200Z</time>
      </trkpt>
      <trkpt lat="48.867229" lon="2.228279">
        <ele>34.214551</ele>
        <time>2023-10-19T18:16:47.751Z</time>
      </trkpt>
      <trkpt lat="48.867367" lon="2.227798">
        <ele>34.885803</ele>
        <time>2023-10-19T18:16:55.051Z</time>
      </trkpt>
      <trkpt lat="48.867396" lon="2.227675">
        <ele>35.113168</ele>
        <time>2023-10-19T18:16:56.853Z</time>
      </trkpt>
      <trkpt lat="48.867508" lon="2.227191">
        <ele>36.005967</ele>
        <time>2023-10-19T18:17:04.398Z</time>
      </trkpt>
      <trkpt lat="48.867536" lon="2.226906">
        <ele>36.507395</ele>
        <time>2023-10-19T18:17:09.137Z</time>
      </trkpt>
      <trkpt lat="48.867587" lon="2.226665">
        <ele>36.947923</ele>
        <time>2023-10-19T18:17:13.191Z</time>
      </trkpt>
      <trkpt lat="48.867695" lon="2.226339">
        <ele>37.583073</ele>
        <time>2023-10-19T18:17:19.736Z</time>
      </trkpt>
      <trkpt lat="48.867798" lon="2.226025">
        <ele>38.193628</ele>
        <time>2023-10-19T18:17:26.222Z</time>
      </trkpt>
      <trkpt lat="48.867804" lon="2.226006">
        <ele>38.230302</ele>
        <time>2023-10-19T18:17:26.632Z</time>
      </trkpt>
      <trkpt lat="48.867838" lon="2.225904">
        <ele>38.429278</ele>
        <time>2023-10-19T18:17:28.816Z</time>
      </trkpt>
      <trkpt lat="48.868021" lon="2.225367">
        <ele>39.591752</ele>
        <time>2023-10-19T18:17:41.218Z</time>
      </trkpt>
      <trkpt lat="48.868067" lon="2.225220">
        <ele>39.951524</ele>
        <time>2023-10-19T18:17:44.529Z</time>
      </trkpt>
      <trkpt lat="48.868223" lon="2.224771">
        <ele>41.073770</ele>
        <time>2023-10-19T18:17:55.351Z</time>
      </trkpt>
      <trkpt lat="48.868371" lon="2.224274">
        <ele>42.279493</ele>
        <time>2023-10-19T18:18:06.071Z</time>
      </trkpt>
      <trkpt lat="48.868443" lon="2.223942">
        <ele>43.052087</ele>
        <time>2023-10-19T18:18:12.477Z</time>
      </trkpt>
      <trkpt lat="48.868460" lon="2.223720">
        <ele>43.546037</ele>
        <time>2023-10-19T18:18:16.043Z</time>
      </trkpt>
      <trkpt lat="48.868462" lon="2.223528">
        <ele>43.970425</ele>
        <time>2023-10-19T18:18:19.418Z</time>
      </trkpt>
      <trkpt lat="48.868439" lon="2.223346">
        <ele>44.380014</ele>
        <time>2023-10-19T18:18:22.412Z</time>
      </trkpt>
      <trkpt lat="48.868371" lon="2.223114">
        <ele>44.941350</ele>
        <time>2023-10-19T18:18:26.633Z</time>
      </trkpt>
      <trkpt lat="48.868321" lon="2.222962">
        <ele>45.215035</ele>
        <time>2023-10-19T18:18:29.569Z</time>
      </trkpt>
      <trkpt lat="48.868305" lon="2.222914">
        <ele>45.273283</ele>
        <time>2023-10-19T18:18:30.478Z</time>
      </trkpt>
      <trkpt lat="48.868259" lon="2.222790">
        <ele>45.427379</ele>
        <time>2023-10-19T18:18:32.685Z</time>
      </trkpt>
      <trkpt lat="48.868094" lon="2.222403">
        <ele>45.926583</ele>
        <time>2023-10-19T18:18:40.036Z</time>
      </trkpt>
      <trkpt lat="48.867944" lon="2.222125">
        <ele>46.315788</ele>
        <time>2023-10-19T18:18:45.448Z</time>
      </trkpt>
      <trkpt lat="48.867798" lon="2.221885">
        <ele>46.669640</ele>
        <time>2023-10-19T18:18:49.962Z</time>
      </trkpt>
      <trkpt lat="48.867706" lon="2.221761">
        <ele>46.871966</ele>
        <time>2023-10-19T18:18:52.603Z</time>
      </trkpt>
      <trkpt lat="48.867671" lon="2.221722">
        <ele>46.943376</ele>
        <time>2023-10-19T18:18:53.528Z</time>
      </trkpt>
      <trkpt lat="48.867588" lon="2.221615">
        <ele>47.122456</ele>
        <time>2023-10-19T18:18:55.635Z</time>
      </trkpt>
      <trkpt lat="48.867549" lon="2.221556">
        <ele>47.212995</ele>
        <time>2023-10-19T18:18:56.671Z</time>
      </trkpt>
      <trkpt lat="48.867282" lon="2.221327">
        <ele>47.717465</ele>
        <time>2023-10-19T18:19:02.287Z</time>
      </trkpt>
      <trkpt lat="48.867207" lon="2.221268">
        <ele>47.856428</ele>
        <time>2023-10-19T18:19:03.799Z</time>
      </trkpt>
      <trkpt lat="48.866696" lon="2.220898">
        <ele>48.771341</ele>
        <time>2023-10-19T18:19:13.976Z</time>
      </trkpt>
      <trkpt lat="48.866407" lon="2.220647">
        <ele>49.306353</ele>
        <time>2023-10-19T18:19:20.482Z</time>
      </trkpt>
      <trkpt lat="48.866139" lon="2.220350">
        <ele>49.839456</ele>
        <time>2023-10-19T18:19:27.730Z</time>
      </trkpt>
      <trkpt lat="48.865792" lon="2.219882">
        <ele>50.585106</ele>
        <time>2023-10-19T18:19:38.507Z</time>
      </trkpt>
      <trkpt lat="48.865568" lon="2.219615">
        <ele>51.114128</ele>
        <time>2023-10-19T18:19:45.209Z</time>
      </trkpt>
      <trkpt lat="48.865070" lon="2.219150">
        <ele>52.954868</ele>
        <time>2023-10-19T18:19:59.718Z</time>
      </trkpt>
      <trkpt lat="48.864818" lon="2.218973">
        <ele>53.829186</ele>
        <time>2023-10-19T18:20:06.998Z</time>
      </trkpt>
      <trkpt lat="48.864456" lon="2.218777">
        <ele>55.039490</ele>
        <time>2023-10-19T18:20:17.510Z</time>
      </trkpt>
      <trkpt lat="48.864028" lon="2.218620">
        <ele>56.426197</ele>
        <time>2023-10-19T18:20:30.618Z</time>
      </trkpt>
      <trkpt lat="48.863926" lon="2.218595">
        <ele>56.830965</ele>
        <time>2023-10-19T18:20:33.831Z</time>
      </trkpt>
      <trkpt lat="48.863254" lon="2.218462">
        <ele>60.394757</ele>
        <time>2023-10-19T18:20:57.525Z</time>
      </trkpt>
      <trkpt lat="48.863250" lon="2.218459">
        <ele>60.418214</ele>
        <time>2023-10-19T18:20:57.691Z</time>
      </trkpt>
      <trkpt lat="48.863036" lon="2.218290">
        <ele>61.686427</ele>
        <time>2023-10-19T18:21:06.950Z</time>
      </trkpt>
      <trkpt lat="48.862858" lon="2.218033">
        <ele>62.977466</ele>
        <time>2023-10-19T18:21:16.090Z</time>
      </trkpt>
      <trkpt lat="48.862746" lon="2.217766">
        <ele>64.072990</ele>
        <time>2023-10-19T18:21:23.913Z</time>
      </trkpt>
      <trkpt lat="48.862725" lon="2.217689">
        <ele>64.361366</ele>
        <time>2023-10-19T18:21:25.938Z</time>
      </trkpt>
      <trkpt lat="48.862664" lon="2.217364">
        <ele>65.530614</ele>
        <time>2023-10-19T18:21:34.448Z</time>
      </trkpt>
      <trkpt lat="48.862622" lon="2.217145">
        <ele>66.313061</ele>
        <time>2023-10-19T18:21:40.090Z</time>
      </trkpt>
      <trkpt lat="48.862574" lon="2.216915">
        <ele>67.123124</ele>
        <time>2023-10-19T18:21:46.159Z</time>
      </trkpt>
      <trkpt lat="48.862514" lon="2.216714">
        <ele>67.864126</ele>
        <time>2023-10-19T18:21:51.520Z</time>
      </trkpt>
      <trkpt lat="48.862475" lon="2.216636">
        <ele>68.193031</ele>
        <time>2023-10-19T18:21:53.943Z</time>
      </trkpt>
      <trkpt lat="48.862342" lon="2.216439">
        <ele>69.140680</ele>
        <time>2023-10-19T18:22:01.000Z</time>
      </trkpt>
      <trkpt lat="48.860651" lon="2.215293">
        <ele>78.422233</ele>
        <time>2023-10-19T18:23:03.939Z</time>
      </trkpt>
      <trkpt lat="48.860088" lon="2.214858">
        <ele>81.483366</ele>
        <time>2023-10-19T18:23:24.772Z</time>
      </trkpt>
      <trkpt lat="48.859917" lon="2.214614">
        <ele>82.620175</ele>
        <time>2023-10-19T18:23:32.968Z</time>
      </trkpt>
      <trkpt lat="48.859759" lon="2.214288">
        <ele>83.911351</ele>
        <time>2023-10-19T18:23:42.568Z</time>
      </trkpt>
      <trkpt lat="48.859612" lon="2.213796">
        <ele>85.613422</ele>
        <time>2023-10-19T18:23:55.351Z</time>
      </trkpt>
      <trkpt lat="48.859577" lon="2.213668">
        <ele>86.049793</ele>
        <time>2023-10-19T18:23:58.574Z</time>
      </trkpt>
      <trkpt lat="48.859539" lon="2.213538">
        <ele>86.497618</ele>
        <time>2023-10-19T18:24:02.006Z</time>
      </trkpt>
      <trkpt lat="48.859501" lon="2.213401">
        <ele>86.965667</ele>
        <time>2023-10-19T18:24:05.532Z</time>
      </trkpt>
      <trkpt lat="48.859397" lon="2.213061">
        <ele>88.146044</ele>
        <time>2023-10-19T18:24:13.675Z</time>
      </trkpt>
      <trkpt lat="48.859349" lon="2.212904">
        <ele>88.691053</ele>
        <time>2023-10-19T18:24:17.548Z</time>
      </trkpt>
      <trkpt lat="48.859268" lon="2.212627">
        <ele>89.645329</ele>
        <time>2023-10-19T18:24:23.771Z</time>
      </trkpt>
      <trkpt lat="48.859225" lon="2.212494">
        <ele>90.111850</ele>
        <time>2023-10-19T18:24:26.975Z</time>
      </trkpt>
      <trkpt lat="48.859170" lon="2.212354">
        <ele>90.625179</ele>
        <time>2023-10-19T18:24:30.431Z</time>
      </trkpt>
      <trkpt lat="48.859042" lon="2.211893">
        <ele>92.200403</ele>
        <time>2023-10-19T18:24:41.439Z</time>
      </trkpt>
      <trkpt lat="48.859006" lon="2.211732">
        <ele>92.704683</ele>
        <time>2023-10-19T18:24:45.131Z</time>
      </trkpt>
      <trkpt lat="48.858978" lon="2.211612">
        <ele>93.017167</ele>
        <time>2023-10-19T18:24:48.094Z</time>
      </trkpt>
      <trkpt lat="48.858943" lon="2.211562">
        <ele>93.196345</ele>
        <time>2023-10-19T18:24:49.890Z</time>
      </trkpt>
      <trkpt lat="48.858897" lon="2.211496">
        <ele>93.432318</ele>
        <time>2023-10-19T18:24:52.278Z</time>
      </trkpt>
      <trkpt lat="48.858814" lon="2.211381">
        <ele>93.851273</ele>
        <time>2023-10-19T18:24:56.205Z</time>
      </trkpt>
      <trkpt lat="48.858589" lon="2.211198">
        <ele>94.803214</ele>
        <time>2023-10-19T18:25:04.546Z</time>
      </trkpt>
      <trkpt lat="48.858098" lon="2.210915">
        <ele>96.762088</ele>
        <time>2023-10-19T18:25:19.675Z</time>
      </trkpt>
      <trkpt lat="48.858062" lon="2.210714">
        <ele>97.273354</ele>
        <time>2023-10-19T18:25:23.250Z</time>
      </trkpt>
      <trkpt lat="48.857949" lon="2.210519">
        <ele>97.911112</ele>
        <time>2023-10-19T18:25:27.995Z</time>
      </trkpt>
      <trkpt lat="48.857747" lon="2.210338">
        <ele>98.785840</ele>
        <time>2023-10-19T18:25:34.086Z</time>
      </trkpt>
      <trkpt lat="48.856958" lon="2.209773">
        <ele>100.744241</ele>
        <time>2023-10-19T18:25:57.492Z</time>
      </trkpt>
      <trkpt lat="48.856851" lon="2.209678">
        <ele>100.987592</ele>
        <time>2023-10-19T18:26:00.537Z</time>
      </trkpt>
      <trkpt lat="48.855519" lon="2.208007">
        <ele>103.863752</ele>
        <time>2023-10-19T18:26:33.818Z</time>
      </trkpt>
      <trkpt lat="48.854475" lon="2.206703">
        <ele>106.355526</ele>
        <time>2023-10-19T18:27:01.009Z</time>
      </trkpt>
      <trkpt lat="48.854298" lon="2.206574">
        <ele>107.032903</ele>
        <time>2023-10-19T18:27:05.747Z</time>
      </trkpt>
      <trkpt lat="48.852899" lon="2.205842">
        <ele>112.635392</ele>
        <time>2023-10-19T18:27:51.960Z</time>
      </trkpt>
      <trkpt lat="48.852830" lon="2.205820">
        <ele>113.041222</ele>
        <time>2023-10-19T18:27:54.722Z</time>
      </trkpt>
      <trkpt lat="48.852160" lon="2.205630">
        <ele>116.964489</ele>
        <time>2023-10-19T18:28:22.112Z</time>
      </trkpt>
      <trkpt lat="48.852083" lon="2.205602">
        <ele>117.420233</ele>
        <time>2023-10-19T18:28:25.209Z</time>
      </trkpt>
      <trkpt lat="48.851961" lon="2.205509">
        <ele>118.205890</ele>
        <time>2023-10-19T18:28:30.687Z</time>
      </trkpt>
      <trkpt lat="48.851830" lon="2.205478">
        <ele>118.969048</ele>
        <time>2023-10-19T18:28:36.093Z</time>
      </trkpt>
      <trkpt lat="48.851717" lon="2.205346">
        <ele>119.789456</ele>
        <time>2023-10-19T18:28:41.565Z</time>
      </trkpt>
      <trkpt lat="48.851256" lon="2.205101">
        <ele>122.514183</ele>
        <time>2023-10-19T18:29:00.400Z</time>
      </trkpt>
      <trkpt lat="48.851035" lon="2.204928">
        <ele>123.799935</ele>
        <time>2023-10-19T18:29:09.614Z</time>
      </trkpt>
      <trkpt lat="48.850943" lon="2.204811">
        <ele>124.420392</ele>
        <time>2023-10-19T18:29:14.121Z</time>
      </trkpt>
      <trkpt lat="48.850752" lon="2.204383">
        <ele>126.180399</ele>
        <time>2023-10-19T18:29:26.718Z</time>
      </trkpt>
      <trkpt lat="48.850643" lon="2.204245">
        <ele>126.914157</ele>
        <time>2023-10-19T18:29:32.018Z</time>
      </trkpt>
      <trkpt lat="48.850360" lon="2.203743">
        <ele>129.163891</ele>
        <time>2023-10-19T18:29:47.272Z</time>
      </trkpt>
      <trkpt lat="48.850099" lon="2.203088">
        <ele>131.409662</ele>
        <time>2023-10-19T18:30:03.601Z</time>
      </trkpt>
      <trkpt lat="48.850001" lon="2.202875">
        <ele>131.850845</ele>
        <time>2023-10-19T18:30:08.896Z</time>
      </trkpt>
      <trkpt lat="48.849754" lon="2.202300">
        <ele>133.016475</ele>
        <time>2023-10-19T18:30:21.643Z</time>
      </trkpt>
      <trkpt lat="48.849436" lon="2.201621">
        <ele>134.431204</ele>
        <time>2023-10-19T18:30:34.881Z</time>
      </trkpt>
      <trkpt lat="48.849297" lon="2.201406">
        <ele>134.942843</ele>
        <time>2023-10-19T18:30:39.272Z</time>
      </trkpt>
      <trkpt lat="48.849009" lon="2.201078">
        <ele>135.629216</ele>
        <time>2023-10-19T18:30:46.566Z</time>
      </trkpt>
      <trkpt lat="48.848948" lon="2.200985">
        <ele>135.552790</ele>
        <time>2023-10-19T18:30:48.195Z</time>
      </trkpt>
      <trkpt lat="48.848114" lon="2.199449">
        <ele>134.393742</ele>
        <time>2023-10-19T18:31:04.953Z</time>
      </trkpt>
      <trkpt lat="48.847941" lon="2.199019">
        <ele>134.100394</ele>
        <time>2023-10-19T18:31:08.404Z</time>
      </trkpt>
      <trkpt lat="48.847832" lon="2.198742">
        <ele>133.453989</ele>
        <time>2023-10-19T18:31:10.564Z</time>
      </trkpt>
      <trkpt lat="48.847519" lon="2.198093">
        <ele>131.840939</ele>
        <time>2023-10-19T18:31:15.865Z</time>
      </trkpt>
      <trkpt lat="48.847483" lon="2.198021">
        <ele>131.659663</ele>
        <time>2023-10-19T18:31:16.455Z</time>
      </trkpt>
      <trkpt lat="48.847363" lon="2.197853">
        <ele>131.162605</ele>
        <time>2023-10-19T18:31:18.080Z</time>
      </trkpt>
      <trkpt lat="48.847351" lon="2.197679">
        <ele>130.811874</ele>
        <time>2023-10-19T18:31:19.221Z</time>
      </trkpt>
      <trkpt lat="48.847215" lon="2.197234">
        <ele>129.828262</ele>
        <time>2023-10-19T18:31:22.466Z</time>
      </trkpt>
      <trkpt lat="48.847201" lon="2.197183">
        <ele>129.717482</ele>
        <time>2023-10-19T18:31:22.839Z</time>
      </trkpt>
      <trkpt lat="48.847143" lon="2.196943">
        <ele>129.204930</ele>
        <time>2023-10-19T18:31:24.567Z</time>
      </trkpt>
      <trkpt lat="48.847110" lon="2.196815">
        <ele>128.929335</ele>
        <time>2023-10-19T18:31:25.521Z</time>
      </trkpt>
      <trkpt lat="48.847005" lon="2.196397">
        <ele>128.179468</ele>
        <time>2023-10-19T18:31:28.599Z</time>
      </trkpt>
      <trkpt lat="48.846978" lon="2.196254">
        <ele>127.955774</ele>
        <time>2023-10-19T18:31:29.649Z</time>
      </trkpt>
      <trkpt lat="48.846962" lon="2.196179">
        <ele>127.837224</ele>
        <time>2023-10-19T18:31:30.193Z</time>
      </trkpt>
      <trkpt lat="48.846885" lon="2.195418">
        <ele>126.679516</ele>
        <time>2023-10-19T18:31:35.542Z</time>
      </trkpt>
      <trkpt lat="48.846880" lon="2.195218">
        <ele>126.378573</ele>
        <time>2023-10-19T18:31:36.950Z</time>
      </trkpt>
      <trkpt lat="48.846886" lon="2.195093">
        <ele>126.190120</ele>
        <time>2023-10-19T18:31:37.803Z</time>
      </trkpt>
      <trkpt lat="48.846901" lon="2.194899">
        <ele>125.896409</ele>
        <time>2023-10-19T18:31:39.141Z</time>
      </trkpt>
      <trkpt lat="48.846933" lon="2.194678">
        <ele>125.556158</ele>
        <time>2023-10-19T18:31:40.759Z</time>
      </trkpt>
      <trkpt lat="48.846966" lon="2.194450">
        <ele>125.205137</ele>
        <time>2023-10-19T18:31:42.396Z</time>
      </trkpt>
      <trkpt lat="48.846967" lon="2.194226">
        <ele>124.868316</ele>
        <time>2023-10-19T18:31:43.981Z</time>
      </trkpt>
      <trkpt lat="48.846951" lon="2.193995">
        <ele>124.519060</ele>
        <time>2023-10-19T18:31:45.740Z</time>
      </trkpt>
      <trkpt lat="48.846886" lon="2.193748">
        <ele>124.477079</ele>
        <time>2023-10-19T18:31:47.759Z</time>
      </trkpt>
      <trkpt lat="48.846826" lon="2.193516">
        <ele>124.444555</ele>
        <time>2023-10-19T18:31:49.852Z</time>
      </trkpt>
      <trkpt lat="48.846633" lon="2.192773">
        <ele>124.340333</ele>
        <time>2023-10-19T18:31:56.863Z</time>
      </trkpt>
      <trkpt lat="48.846476" lon="2.192193">
        <ele>124.258505</ele>
        <time>2023-10-19T18:32:02.588Z</time>
      </trkpt>
      <trkpt lat="48.846019" lon="2.190045">
        <ele>125.764012</ele>
        <time>2023-10-19T18:32:31.437Z</time>
      </trkpt>
      <trkpt lat="48.845867" lon="2.189268">
        <ele>126.657505</ele>
        <time>2023-10-19T18:32:45.283Z</time>
      </trkpt>
      <trkpt lat="48.845768" lon="2.188908">
        <ele>127.087572</ele>
        <time>2023-10-19T18:32:51.338Z</time>
      </trkpt>
      <trkpt lat="48.845656" lon="2.188464">
        <ele>127.763768</ele>
        <time>2023-10-19T18:32:57.987Z</time>
      </trkpt>
      <trkpt lat="48.845678" lon="2.188319">
        <ele>127.983892</ele>
        <time>2023-10-19T18:32:59.991Z</time>
      </trkpt>
      <trkpt lat="48.845822" lon="2.187913">
        <ele>128.666157</ele>
        <time>2023-10-19T18:33:06.505Z</time>
      </trkpt>
      <trkpt lat="48.845864" lon="2.187722">
        <ele>128.964056</ele>
        <time>2023-10-19T18:33:09.264Z</time>
      </trkpt>
      <trkpt lat="48.845816" lon="2.187523">
        <ele>129.277584</ele>
        <time>2023-10-19T18:33:12.523Z</time>
      </trkpt>
      <trkpt lat="48.845766" lon="2.187437">
        <ele>129.447339</ele>
        <time>2023-10-19T18:33:14.376Z</time>
      </trkpt>
      <trkpt lat="48.845013" lon="2.186727">
        <ele>131.716087</ele>
        <time>2023-10-19T18:33:36.374Z</time>
      </trkpt>
      <trkpt lat="48.845351" lon="2.186285">
        <ele>133.928932</ele>
        <time>2023-10-19T18:33:48.913Z</time>
      </trkpt>
      <trkpt lat="48.845530" lon="2.185999">
        <ele>135.217849</ele>
        <time>2023-10-19T18:33:56.632Z</time>
      </trkpt>
      <trkpt lat="48.845872" lon="2.185223">
        <ele>138.267771</ele>
        <time>2023-10-19T18:34:18.963Z</time>
      </trkpt>
      <trkpt lat="48.846512" lon="2.183680">
        <ele>146.374612</ele>
        <time>2023-10-19T18:35:14.399Z</time>
      </trkpt>
      <trkpt lat="48.846654" lon="2.183251">
        <ele>148.767713</ele>
        <time>2023-10-19T18:35:29.337Z</time>
      </trkpt>
      <trkpt lat="48.847040" lon="2.181800">
        <ele>155.738066</ele>
        <time>2023-10-19T18:36:15.074Z</time>
      </trkpt>
      <trkpt lat="48.847115" lon="2.181789">
        <ele>156.140365</ele>
        <time>2023-10-19T18:36:17.957Z</time>
      </trkpt>
      <trkpt lat="48.847139" lon="2.181720">
        <ele>156.414581</ele>
        <time>2023-10-19T18:36:20.071Z</time>
      </trkpt>
      <trkpt lat="48.847118" lon="2.181634">
        <ele>156.736879</ele>
        <time>2023-10-19T18:36:22.610Z</time>
      </trkpt>
      <trkpt lat="48.847075" lon="2.181608">
        <ele>156.983971</ele>
        <time>2023-10-19T18:36:24.485Z</time>
      </trkpt>
      <trkpt lat="48.847212" lon="2.181004">
        <ele>159.228679</ele>
        <time>2023-10-19T18:36:40.312Z</time>
      </trkpt>
      <trkpt lat="48.847273" lon="2.180592">
        <ele>160.712446</ele>
        <time>2023-10-19T18:36:49.625Z</time>
      </trkpt>
      <trkpt lat="48.847498" lon="2.179068">
        <ele>164.477264</ele>
        <time>2023-10-19T18:37:18.977Z</time>
      </trkpt>
      <trkpt lat="48.847713" lon="2.177231">
        <ele>167.056764</ele>
        <time>2023-10-19T18:37:45.259Z</time>
      </trkpt>
      <trkpt lat="48.847813" lon="2.176357">
        <ele>167.264241</ele>
        <time>2023-10-19T18:37:55.808Z</time>
      </trkpt>
      <trkpt lat="48.848283" lon="2.173847">
        <ele>167.304176</ele>
        <time>2023-10-19T18:38:20.078Z</time>
      </trkpt>
      <trkpt lat="48.848386" lon="2.173199">
        <ele>167.067682</ele>
        <time>2023-10-19T18:38:25.842Z</time>
      </trkpt>
      <trkpt lat="48.848513" lon="2.171991">
        <ele>166.633700</ele>
        <time>2023-10-19T18:38:36.174Z</time>
      </trkpt>
      <trkpt lat="48.848563" lon="2.171594">
        <ele>166.440437</ele>
        <time>2023-10-19T18:38:39.544Z</time>
      </trkpt>
      <trkpt lat="48.848605" lon="2.171135">
        <ele>166.188986</ele>
        <time>2023-10-19T18:38:43.373Z</time>
      </trkpt>
      <trkpt lat="48.848628" lon="2.170861">
        <ele>166.039107</ele>
        <time>2023-10-19T18:38:45.622Z</time>
      </trkpt>
      <trkpt lat="48.848618" lon="2.170743">
        <ele>165.974551</ele>
        <time>2023-10-19T18:38:46.587Z</time>
      </trkpt>
      <trkpt lat="48.848500" lon="2.170548">
        <ele>165.830807</ele>
        <time>2023-10-19T18:38:48.694Z</time>
      </trkpt>
      <trkpt lat="48.848301" lon="2.170290">
        <ele>165.615116</ele>
        <time>2023-10-19T18:38:51.877Z</time>
      </trkpt>
      <trkpt lat="48.848032" lon="2.169940">
        <ele>165.323113</ele>
        <time>2023-10-19T18:38:56.275Z</time>
      </trkpt>
      <trkpt lat="48.847814" lon="2.169658">
        <ele>165.093236</ele>
        <time>2023-10-19T18:38:59.999Z</time>
      </trkpt>
      <trkpt lat="48.847709" lon="2.169520">
        <ele>165.028150</ele>
        <time>2023-10-19T18:39:01.780Z</time>
      </trkpt>
      <trkpt lat="48.847106" lon="2.169191">
        <ele>164.727773</ele>
        <time>2023-10-19T18:39:10.063Z</time>
      </trkpt>
      <trkpt lat="48.846873" lon="2.169077">
        <ele>164.613012</ele>
        <time>2023-10-19T18:39:13.353Z</time>
      </trkpt>
      <trkpt lat="48.846876" lon="2.169015">
        <ele>164.593832</ele>
        <time>2023-10-19T18:39:13.917Z</time>
      </trkpt>
      <trkpt lat="48.846846" lon="2.168963">
        <ele>164.572496</ele>
        <time>2023-10-19T18:39:14.531Z</time>
      </trkpt>
      <trkpt lat="48.846848" lon="2.168746">
        <ele>164.505539</ele>
        <time>2023-10-19T18:39:17.228Z</time>
      </trkpt>
      <trkpt lat="48.846853" lon="2.168318">
        <ele>164.373468</ele>
        <time>2023-10-19T18:39:22.616Z</time>
      </trkpt>
      <trkpt lat="48.846851" lon="2.167025">
        <ele>164.397849</ele>
        <time>2023-10-19T18:39:39.295Z</time>
      </trkpt>
      <trkpt lat="48.846851" lon="2.166931">
        <ele>164.412139</ele>
        <time>2023-10-19T18:39:40.588Z</time>
      </trkpt>
      <trkpt lat="48.846836" lon="2.158827">
        <ele>165.887089</ele>
        <time>2023-10-19T18:41:35.447Z</time>
      </trkpt>
      <trkpt lat="48.846898" lon="2.158709">
        <ele>165.919733</ele>
        <time>2023-10-19T18:41:36.980Z</time>
      </trkpt>
      <trkpt lat="48.846873" lon="2.158598">
        <ele>165.945097</ele>
        <time>2023-10-19T18:41:38.207Z</time>
      </trkpt>
      <trkpt lat="48.846841" lon="2.158564">
        <ele>165.957924</ele>
        <time>2023-10-19T18:41:38.826Z</time>
      </trkpt>
      <trkpt lat="48.846848" lon="2.156293">
        <ele>166.461656</ele>
        <time>2023-10-19T18:42:03.072Z</time>
      </trkpt>
      <trkpt lat="48.846849" lon="2.155991">
        <ele>166.531866</ele>
        <time>2023-10-19T18:42:06.309Z</time>
      </trkpt>
      <trkpt lat="48.846851" lon="2.155007">
        <ele>166.760629</ele>
        <time>2023-10-19T18:42:16.597Z</time>
      </trkpt>
      <trkpt lat="48.846852" lon="2.154726">
        <ele>166.825958</ele>
        <time>2023-10-19T18:42:19.513Z</time>
      </trkpt>
      <trkpt lat="48.846840" lon="2.153022">
        <ele>167.270000</ele>
        <time>2023-10-19T18:42:38.131Z</time>
      </trkpt>
      <trkpt lat="48.846840" lon="2.152709">
        <ele>167.354110</ele>
        <time>2023-10-19T18:42:41.465Z</time>
      </trkpt>
      <trkpt lat="48.846860" lon="2.150455">
        <ele>168.129158</ele>
        <time>2023-10-19T18:43:06.351Z</time>
      </trkpt>
      <trkpt lat="48.846899" lon="2.150442">
        <ele>168.154355</ele>
        <time>2023-10-19T18:43:07.035Z</time>
      </trkpt>
      <trkpt lat="48.846935" lon="2.150350">
        <ele>168.198806</ele>
        <time>2023-10-19T18:43:08.235Z</time>
      </trkpt>
      <trkpt lat="48.846909" lon="2.150266">
        <ele>168.237357</ele>
        <time>2023-10-19T18:43:09.297Z</time>
      </trkpt>
      <trkpt lat="48.846855" lon="2.150243">
        <ele>168.272749</ele>
        <time>2023-10-19T18:43:10.296Z</time>
      </trkpt>
      <trkpt lat="48.846826" lon="2.150259">
        <ele>168.292219</ele>
        <time>2023-10-19T18:43:10.878Z</time>
      </trkpt>
      <trkpt lat="48.846223" lon="2.148853">
        <ele>169.097389</ele>
        <time>2023-10-19T18:43:30.328Z</time>
      </trkpt>
      <trkpt lat="48.845992" lon="2.148323">
        <ele>169.501007</ele>
        <time>2023-10-19T18:43:38.110Z</time>
      </trkpt>
      <trkpt lat="48.846003" lon="2.148120">
        <ele>169.630332</ele>
        <time>2023-10-19T18:43:40.687Z</time>
      </trkpt>
      <trkpt lat="48.845842" lon="2.147989">
        <ele>169.806532</ele>
        <time>2023-10-19T18:43:44.209Z</time>
      </trkpt>
      <trkpt lat="48.844460" lon="2.146983">
        <ele>171.270584</ele>
        <time>2023-10-19T18:44:13.442Z</time>
      </trkpt>
      <trkpt lat="48.843992" lon="2.146635">
        <ele>171.763815</ele>
        <time>2023-10-19T18:44:23.239Z</time>
      </trkpt>
      <trkpt lat="48.843454" lon="2.146244">
        <ele>172.232216</ele>
        <time>2023-10-19T18:44:34.025Z</time>
      </trkpt>
      <trkpt lat="48.843225" lon="2.146078">
        <ele>172.254114</ele>
        <time>2023-10-19T18:44:38.423Z</time>
      </trkpt>
      <trkpt lat="48.842740" lon="2.145753">
        <ele>172.299863</ele>
        <time>2023-10-19T18:44:46.900Z</time>
      </trkpt>
      <trkpt lat="48.842543" lon="2.145682">
        <ele>172.317338</ele>
        <time>2023-10-19T18:44:50.021Z</time>
      </trkpt>
      <trkpt lat="48.842342" lon="2.145674">
        <ele>172.334692</ele>
        <time>2023-10-19T18:44:53.014Z</time>
      </trkpt>
      <trkpt lat="48.841796" lon="2.145715">
        <ele>172.322488</ele>
        <time>2023-10-19T18:45:00.461Z</time>
      </trkpt>
      <trkpt lat="48.840876" lon="2.145811">
        <ele>171.239630</ele>
        <time>2023-10-19T18:45:11.682Z</time>
      </trkpt>
      <trkpt lat="48.840769" lon="2.145807">
        <ele>171.113947</ele>
        <time>2023-10-19T18:45:12.949Z</time>
      </trkpt>
      <trkpt lat="48.839512" lon="2.145693">
        <ele>169.758641</ele>
        <time>2023-10-19T18:45:27.310Z</time>
      </trkpt>
      <trkpt lat="48.839485" lon="2.145703">
        <ele>169.732393</ele>
        <time>2023-10-19T18:45:27.637Z</time>
      </trkpt>
      <trkpt lat="48.839358" lon="2.145752">
        <ele>169.608635</ele>
        <time>2023-10-19T18:45:29.179Z</time>
      </trkpt>
      <trkpt lat="48.838922" lon="2.146108">
        <ele>169.141137</ele>
        <time>2023-10-19T18:45:34.968Z</time>
      </trkpt>
      <trkpt lat="48.838528" lon="2.146239">
        <ele>168.760199</ele>
        <time>2023-10-19T18:45:40.030Z</time>
      </trkpt>
      <trkpt lat="48.838157" lon="2.146189">
        <ele>168.843027</ele>
        <time>2023-10-19T18:45:45.674Z</time>
      </trkpt>
      <trkpt lat="48.837226" lon="2.145926">
        <ele>170.400799</ele>
        <time>2023-10-19T18:46:05.955Z</time>
      </trkpt>
      <trkpt lat="48.836920" lon="2.145846">
        <ele>170.911577</ele>
        <time>2023-10-19T18:46:13.745Z</time>
      </trkpt>
      <trkpt lat="48.836916" lon="2.144243">
        <ele>173.017828</ele>
        <time>2023-10-19T18:46:39.631Z</time>
      </trkpt>
      <trkpt lat="48.836869" lon="2.143682">
        <ele>173.832487</ele>
        <time>2023-10-19T18:46:49.172Z</time>
      </trkpt>
      <trkpt lat="48.836792" lon="2.143101">
        <ele>174.686234</ele>
        <time>2023-10-19T18:46:58.862Z</time>
      </trkpt>
      <trkpt lat="48.836349" lon="2.139942">
        <ele>177.765786</ele>
        <time>2023-10-19T18:47:41.121Z</time>
      </trkpt>
      <trkpt lat="48.836313" lon="2.139648">
        <ele>178.000997</ele>
        <time>2023-10-19T18:47:44.918Z</time>
      </trkpt>
      <trkpt lat="48.835869" lon="2.136426">
        <ele>180.184717</ele>
        <time>2023-10-19T18:48:27.116Z</time>
      </trkpt>
      <trkpt lat="48.835540" lon="2.133989">
        <ele>180.391090</ele>
        <time>2023-10-19T18:48:53.254Z</time>
      </trkpt>
      <trkpt lat="48.835524" lon="2.133849">
        <ele>180.288176</ele>
        <time>2023-10-19T18:48:54.399Z</time>
      </trkpt>
      <trkpt lat="48.835452" lon="2.133046">
        <ele>179.701221</ele>
        <time>2023-10-19T18:49:00.829Z</time>
      </trkpt>
      <trkpt lat="48.835330" lon="2.131496">
        <ele>178.470390</ele>
        <time>2023-10-19T18:49:12.234Z</time>
      </trkpt>
      <trkpt lat="48.835295" lon="2.131120">
        <ele>178.087541</ele>
        <time>2023-10-19T18:49:14.967Z</time>
      </trkpt>
      <trkpt lat="48.835269" lon="2.130851">
        <ele>177.813430</ele>
        <time>2023-10-19T18:49:16.952Z</time>
      </trkpt>
      <trkpt lat="48.835161" lon="2.129693">
        <ele>176.634288</ele>
        <time>2023-10-19T18:49:25.781Z</time>
      </trkpt>
      <trkpt lat="48.835136" lon="2.129213">
        <ele>176.148845</ele>
        <time>2023-10-19T18:49:29.600Z</time>
      </trkpt>
      <trkpt lat="48.835115" lon="2.128310">
        <ele>175.661215</ele>
        <time>2023-10-19T18:49:36.935Z</time>
      </trkpt>
      <trkpt lat="48.835148" lon="2.127626">
        <ele>175.320966</ele>
        <time>2023-10-19T18:49:42.741Z</time>
      </trkpt>
      <trkpt lat="48.835207" lon="2.126036">
        <ele>174.401358</ele>
        <time>2023-10-19T18:49:56.800Z</time>
      </trkpt>
      <trkpt lat="48.835620" lon="2.123725">
        <ele>172.335813</ele>
        <time>2023-10-19T18:50:15.304Z</time>
      </trkpt>
      <trkpt lat="48.835784" lon="2.122937">
        <ele>170.569109</ele>
        <time>2023-10-19T18:50:21.106Z</time>
      </trkpt>
      <trkpt lat="48.835932" lon="2.122000">
        <ele>168.509229</ele>
        <time>2023-10-19T18:50:27.505Z</time>
      </trkpt>
      <trkpt lat="48.836090" lon="2.120916">
        <ele>165.968944</ele>
        <time>2023-10-19T18:50:34.554Z</time>
      </trkpt>
      <trkpt lat="48.836104" lon="2.120840">
        <ele>165.735132</ele>
        <time>2023-10-19T18:50:35.042Z</time>
      </trkpt>
      <trkpt lat="48.836134" lon="2.120676">
        <ele>165.230846</ele>
        <time>2023-10-19T18:50:36.096Z</time>
      </trkpt>
      <trkpt lat="48.836188" lon="2.120343">
        <ele>164.214790</ele>
        <time>2023-10-19T18:50:38.243Z</time>
      </trkpt>
      <trkpt lat="48.836201" lon="2.120204">
        <ele>163.798848</ele>
        <time>2023-10-19T18:50:39.109Z</time>
      </trkpt>
      <trkpt lat="48.836260" lon="2.119593">
        <ele>161.969307</ele>
        <time>2023-10-19T18:50:42.959Z</time>
      </trkpt>
      <trkpt lat="48.836305" lon="2.118429">
        <ele>158.514868</ele>
        <time>2023-10-19T18:50:50.315Z</time>
      </trkpt>
      <trkpt lat="48.836264" lon="2.117520">
        <ele>156.288803</ele>
        <time>2023-10-19T18:50:56.243Z</time>
      </trkpt>
      <trkpt lat="48.836210" lon="2.116971">
        <ele>154.937184</ele>
        <time>2023-10-19T18:50:59.939Z</time>
      </trkpt>
      <trkpt lat="48.835912" lon="2.114892">
        <ele>149.714818</ele>
        <time>2023-10-19T18:51:13.854Z</time>
      </trkpt>
      <trkpt lat="48.835670" lon="2.113570">
        <ele>146.306438</ele>
        <time>2023-10-19T18:51:22.671Z</time>
      </trkpt>
      <trkpt lat="48.835552" lon="2.112566">
        <ele>144.286762</ele>
        <time>2023-10-19T18:51:29.301Z</time>
      </trkpt>
      <trkpt lat="48.835529" lon="2.111494">
        <ele>142.710174</ele>
        <time>2023-10-19T18:51:36.567Z</time>
      </trkpt>
      <trkpt lat="48.835570" lon="2.110756">
        <ele>141.621518</ele>
        <time>2023-10-19T18:51:42.185Z</time>
      </trkpt>
      <trkpt lat="48.835669" lon="2.109993">
        <ele>140.981645</ele>
        <time>2023-10-19T18:51:49.107Z</time>
      </trkpt>
      <trkpt lat="48.835864" lon="2.108951">
        <ele>140.883582</ele>
        <time>2023-10-19T18:52:00.973Z</time>
      </trkpt>
      <trkpt lat="48.835915" lon="2.108847">
        <ele>140.871843</ele>
        <time>2023-10-19T18:52:02.469Z</time>
      </trkpt>
      <trkpt lat="48.836225" lon="2.107224">
        <ele>140.315417</ele>
        <time>2023-10-19T18:52:17.724Z</time>
      </trkpt>
      <trkpt lat="48.836275" lon="2.107067">
        <ele>140.168149</ele>
        <time>2023-10-19T18:52:19.136Z</time>
      </trkpt>
      <trkpt lat="48.836447" lon="2.106237">
        <ele>139.433410</ele>
        <time>2023-10-19T18:52:26.089Z</time>
      </trkpt>
      <trkpt lat="48.836563" lon="2.105329">
        <ele>138.652417</ele>
        <time>2023-10-19T18:52:32.929Z</time>
      </trkpt>
      <trkpt lat="48.836589" lon="2.105081">
        <ele>138.426506</ele>
        <time>2023-10-19T18:52:34.784Z</time>
      </trkpt>
      <trkpt lat="48.836686" lon="2.104011">
        <ele>136.869059</ele>
        <time>2023-10-19T18:52:42.191Z</time>
      </trkpt>
      <trkpt lat="48.836714" lon="2.103678">
        <ele>136.384989</ele>
        <time>2023-10-19T18:52:44.455Z</time>
      </trkpt>
      <trkpt lat="48.836765" lon="2.103592">
        <ele>136.218074</ele>
        <time>2023-10-19T18:52:45.307Z</time>
      </trkpt>
      <trkpt lat="48.836768" lon="2.103498">
        <ele>136.082372</ele>
        <time>2023-10-19T18:52:45.969Z</time>
      </trkpt>
      <trkpt lat="48.836758" lon="2.103460">
        <ele>136.023361</ele>
        <time>2023-10-19T18:52:46.252Z</time>
      </trkpt>
      <trkpt lat="48.836707" lon="2.103393">
        <ele>135.875658</ele>
        <time>2023-10-19T18:52:46.938Z</time>
      </trkpt>
      <trkpt lat="48.836669" lon="2.103234">
        <ele>135.631743</ele>
        <time>2023-10-19T18:52:48.108Z</time>
      </trkpt>
      <trkpt lat="48.836529" lon="2.101917">
        <ele>134.266008</ele>
        <time>2023-10-19T18:52:58.252Z</time>
      </trkpt>
      <trkpt lat="48.836425" lon="2.101305">
        <ele>133.981153</ele>
        <time>2023-10-19T18:53:03.203Z</time>
      </trkpt>
      <trkpt lat="48.836364" lon="2.101153">
        <ele>133.900922</ele>
        <time>2023-10-19T18:53:04.565Z</time>
      </trkpt>
      <trkpt lat="48.836207" lon="2.100109">
        <ele>133.418295</ele>
        <time>2023-10-19T18:53:14.235Z</time>
      </trkpt>
      <trkpt lat="48.836098" lon="2.099182">
        <ele>133.473009</ele>
        <time>2023-10-19T18:53:25.190Z</time>
      </trkpt>
      <trkpt lat="48.836079" lon="2.098695">
        <ele>133.611153</ele>
        <time>2023-10-19T18:53:31.398Z</time>
      </trkpt>
      <trkpt lat="48.836073" lon="2.098257">
        <ele>133.735206</ele>
        <time>2023-10-19T18:53:36.761Z</time>
      </trkpt>
      <trkpt lat="48.836106" lon="2.097592">
        <ele>133.924045</ele>
        <time>2023-10-19T18:53:44.028Z</time>
      </trkpt>
      <trkpt lat="48.836207" lon="2.096799">
        <ele>133.893558</ele>
        <time>2023-10-19T18:53:51.667Z</time>
      </trkpt>
      <trkpt lat="48.836505" lon="2.094990">
        <ele>132.914938</ele>
        <time>2023-10-19T18:54:06.569Z</time>
      </trkpt>
      <trkpt lat="48.836881" lon="2.092817">
        <ele>132.872690</ele>
        <time>2023-10-19T18:54:25.210Z</time>
      </trkpt>
      <trkpt lat="48.837066" lon="2.091976">
        <ele>133.000400</ele>
        <time>2023-10-19T18:54:37.108Z</time>
      </trkpt>
      <trkpt lat="48.837329" lon="2.091105">
        <ele>134.337708</ele>
        <time>2023-10-19T18:54:52.462Z</time>
      </trkpt>
      <trkpt lat="48.837650" lon="2.090083">
        <ele>136.172943</ele>
        <time>2023-10-19T18:55:11.874Z</time>
      </trkpt>
      <trkpt lat="48.837825" lon="2.089477">
        <ele>137.245426</ele>
        <time>2023-10-19T18:55:23.188Z</time>
      </trkpt>
      <trkpt lat="48.837930" lon="2.089022">
        <ele>137.743768</ele>
        <time>2023-10-19T18:55:30.948Z</time>
      </trkpt>
      <trkpt lat="48.838039" lon="2.088727">
        <ele>138.022904</ele>
        <time>2023-10-19T18:55:36.283Z</time>
      </trkpt>
      <trkpt lat="48.838129" lon="2.088322">
        <ele>138.375602</ele>
        <time>2023-10-19T18:55:42.808Z</time>
      </trkpt>
      <trkpt lat="48.838203" lon="2.088145">
        <ele>138.548616</ele>
        <time>2023-10-19T18:55:45.845Z</time>
      </trkpt>
      <trkpt lat="48.838575" lon="2.087504">
        <ele>139.253734</ele>
        <time>2023-10-19T18:55:56.456Z</time>
      </trkpt>
      <trkpt lat="48.838677" lon="2.087237">
        <ele>139.508453</ele>
        <time>2023-10-19T18:55:59.520Z</time>
      </trkpt>
      <trkpt lat="48.838713" lon="2.087136">
        <ele>139.603222</ele>
        <time>2023-10-19T18:56:00.513Z</time>
      </trkpt>
      <trkpt lat="48.838791" lon="2.086868">
        <ele>139.501105</ele>
        <time>2023-10-19T18:56:03.145Z</time>
      </trkpt>
      <trkpt lat="48.838829" lon="2.086748">
        <ele>139.341177</ele>
        <time>2023-10-19T18:56:04.271Z</time>
      </trkpt>
      <trkpt lat="48.839107" lon="2.085884">
        <ele>138.186196</ele>
        <time>2023-10-19T18:56:11.810Z</time>
      </trkpt>
      <trkpt lat="48.839816" lon="2.083598">
        <ele>134.952758</ele>
        <time>2023-10-19T18:56:29.102Z</time>
      </trkpt>
      <trkpt lat="48.839922" lon="2.083197">
        <ele>134.352776</ele>
        <time>2023-10-19T18:56:31.989Z</time>
      </trkpt>
      <trkpt lat="48.840002" lon="2.082934">
        <ele>133.950510</ele>
        <time>2023-10-19T18:56:33.985Z</time>
      </trkpt>
      <trkpt lat="48.840049" lon="2.082835">
        <ele>133.781030</ele>
        <time>2023-10-19T18:56:34.840Z</time>
      </trkpt>
      <trkpt lat="48.840107" lon="2.082785">
        <ele>133.640355</ele>
        <time>2023-10-19T18:56:35.621Z</time>
      </trkpt>
      <trkpt lat="48.840123" lon="2.082655">
        <ele>133.456733</ele>
        <time>2023-10-19T18:56:36.606Z</time>
      </trkpt>
      <trkpt lat="48.840092" lon="2.082588">
        <ele>133.343023</ele>
        <time>2023-10-19T18:56:37.224Z</time>
      </trkpt>
      <trkpt lat="48.840040" lon="2.082560">
        <ele>133.226643</ele>
        <time>2023-10-19T18:56:37.845Z</time>
      </trkpt>
      <trkpt lat="48.840031" lon="2.082212">
        <ele>132.743102</ele>
        <time>2023-10-19T18:56:40.687Z</time>
      </trkpt>
      <trkpt lat="48.840067" lon="2.081564">
        <ele>133.120461</ele>
        <time>2023-10-19T18:56:46.823Z</time>
      </trkpt>
      <trkpt lat="48.840081" lon="2.081328">
        <ele>133.325621</ele>
        <time>2023-10-19T18:56:49.352Z</time>
      </trkpt>
      <trkpt lat="48.840182" lon="2.080077">
        <ele>134.416872</ele>
        <time>2023-10-19T18:57:07.128Z</time>
      </trkpt>
      <trkpt lat="48.840193" lon="2.079968">
        <ele>134.512348</ele>
        <time>2023-10-19T18:57:08.899Z</time>
      </trkpt>
      <trkpt lat="48.840210" lon="2.079816">
        <ele>134.645838</ele>
        <time>2023-10-19T18:57:11.395Z</time>
      </trkpt>
      <trkpt lat="48.840276" lon="2.079285">
        <ele>135.219473</ele>
        <time>2023-10-19T18:57:20.630Z</time>
      </trkpt>
      <trkpt lat="48.840402" lon="2.078884">
        <ele>135.946540</ele>
        <time>2023-10-19T18:57:28.750Z</time>
      </trkpt>
      <trkpt lat="48.840479" lon="2.078697">
        <ele>136.307462</ele>
        <time>2023-10-19T18:57:32.847Z</time>
      </trkpt>
      <trkpt lat="48.840576" lon="2.078371">
        <ele>136.892849</ele>
        <time>2023-10-19T18:57:39.245Z</time>
      </trkpt>
      <trkpt lat="48.840613" lon="2.078246">
        <ele>137.117109</ele>
        <time>2023-10-19T18:57:41.640Z</time>
      </trkpt>
      <trkpt lat="48.840648" lon="2.078140">
        <ele>137.311151</ele>
        <time>2023-10-19T18:57:43.666Z</time>
      </trkpt>
      <trkpt lat="48.841008" lon="2.076437">
        <ele>139.484260</ele>
        <time>2023-10-19T18:58:11.347Z</time>
      </trkpt>
      <trkpt lat="48.841080" lon="2.076070">
        <ele>139.498765</ele>
        <time>2023-10-19T18:58:16.031Z</time>
      </trkpt>
      <trkpt lat="48.841126" lon="2.075784">
        <ele>139.509916</ele>
        <time>2023-10-19T18:58:19.347Z</time>
      </trkpt>
      <trkpt lat="48.841184" lon="2.075477">
        <ele>139.522014</ele>
        <time>2023-10-19T18:58:22.391Z</time>
      </trkpt>
      <trkpt lat="48.841187" lon="2.075456">
        <ele>139.522828</ele>
        <time>2023-10-19T18:58:22.600Z</time>
      </trkpt>
      <trkpt lat="48.841257" lon="2.075058">
        <ele>139.538432</ele>
        <time>2023-10-19T18:58:26.062Z</time>
      </trkpt>
      <trkpt lat="48.841303" lon="2.074809">
        <ele>139.548227</ele>
        <time>2023-10-19T18:58:28.160Z</time>
      </trkpt>
      <trkpt lat="48.841424" lon="2.074160">
        <ele>139.484639</ele>
        <time>2023-10-19T18:58:33.214Z</time>
      </trkpt>
      <trkpt lat="48.841428" lon="2.074141">
        <ele>139.467957</ele>
        <time>2023-10-19T18:58:33.363Z</time>
      </trkpt>
      <trkpt lat="48.841499" lon="2.073786">
        <ele>139.157695</ele>
        <time>2023-10-19T18:58:36.104Z</time>
      </trkpt>
      <trkpt lat="48.841563" lon="2.073246">
        <ele>138.698872</ele>
        <time>2023-10-19T18:58:40.153Z</time>
      </trkpt>
      <trkpt lat="48.841572" lon="2.073080">
        <ele>138.559589</ele>
        <time>2023-10-19T18:58:41.393Z</time>
      </trkpt>
      <trkpt lat="48.841574" lon="2.072741">
        <ele>138.276099</ele>
        <time>2023-10-19T18:58:43.870Z</time>
      </trkpt>
      <trkpt lat="48.841574" lon="2.072675">
        <ele>138.220909</ele>
        <time>2023-10-19T18:58:44.372Z</time>
      </trkpt>
      <trkpt lat="48.841578" lon="2.072151">
        <ele>137.782700</ele>
        <time>2023-10-19T18:58:48.330Z</time>
      </trkpt>
      <trkpt lat="48.841581" lon="2.071734">
        <ele>137.433976</ele>
        <time>2023-10-19T18:58:51.727Z</time>
      </trkpt>
      <trkpt lat="48.841599" lon="2.071527">
        <ele>137.319929</ele>
        <time>2023-10-19T18:58:53.509Z</time>
      </trkpt>
      <trkpt lat="48.841613" lon="2.071532">
        <ele>137.345512</ele>
        <time>2023-10-19T18:58:53.709Z</time>
      </trkpt>
      <trkpt lat="48.841660" lon="2.071493">
        <ele>137.440778</ele>
        <time>2023-10-19T18:58:54.505Z</time>
      </trkpt>
      <trkpt lat="48.841660" lon="2.071424">
        <ele>137.521562</ele>
        <time>2023-10-19T18:58:55.181Z</time>
      </trkpt>
      <trkpt lat="48.841622" lon="2.071385">
        <ele>137.603137</ele>
        <time>2023-10-19T18:58:55.839Z</time>
      </trkpt>
      <trkpt lat="48.841631" lon="2.071219">
        <ele>137.798146</ele>
        <time>2023-10-19T18:58:57.476Z</time>
      </trkpt>
      <trkpt lat="48.841742" lon="2.070549">
        <ele>138.607044</ele>
        <time>2023-10-19T18:59:06.212Z</time>
      </trkpt>
      <trkpt lat="48.841832" lon="2.070030">
        <ele>139.235419</ele>
        <time>2023-10-19T18:59:14.559Z</time>
      </trkpt>
      <trkpt lat="48.841885" lon="2.069717">
        <ele>139.613808</ele>
        <time>2023-10-19T18:59:20.179Z</time>
      </trkpt>
      <trkpt lat="48.842169" lon="2.068153">
        <ele>142.334026</ele>
        <time>2023-10-19T18:59:50.228Z</time>
      </trkpt>
      <trkpt lat="48.842261" lon="2.067692">
        <ele>143.347819</ele>
        <time>2023-10-19T18:59:59.578Z</time>
      </trkpt>
      <trkpt lat="48.842288" lon="2.067561">
        <ele>143.636710</ele>
        <time>2023-10-19T19:00:02.233Z</time>
      </trkpt>
      <trkpt lat="48.842439" lon="2.066771">
        <ele>145.367951</ele>
        <time>2023-10-19T19:00:17.821Z</time>
      </trkpt>
      <trkpt lat="48.842488" lon="2.066625">
        <ele>145.712850</ele>
        <time>2023-10-19T19:00:20.823Z</time>
      </trkpt>
      <trkpt lat="48.842563" lon="2.066444">
        <ele>146.162971</ele>
        <time>2023-10-19T19:00:24.416Z</time>
      </trkpt>
      <trkpt lat="48.842712" lon="2.066304">
        <ele>146.411954</ele>
        <time>2023-10-19T19:00:28.763Z</time>
      </trkpt>
      <trkpt lat="48.842824" lon="2.066226">
        <ele>146.554397</ele>
        <time>2023-10-19T19:00:31.621Z</time>
      </trkpt>
      <trkpt lat="48.843417" lon="2.065829">
        <ele>147.303600</ele>
        <time>2023-10-19T19:00:44.766Z</time>
      </trkpt>
      <trkpt lat="48.843531" lon="2.065697">
        <ele>147.469310</ele>
        <time>2023-10-19T19:00:47.254Z</time>
      </trkpt>
      <trkpt lat="48.843663" lon="2.065460">
        <ele>147.705552</ele>
        <time>2023-10-19T19:00:50.957Z</time>
      </trkpt>
      <trkpt lat="48.844059" lon="2.064583">
        <ele>148.142389</ele>
        <time>2023-10-19T19:01:02.287Z</time>
      </trkpt>
      <trkpt lat="48.844104" lon="2.064484">
        <ele>148.063103</ele>
        <time>2023-10-19T19:01:03.381Z</time>
      </trkpt>
      <trkpt lat="48.844286" lon="2.064131">
        <ele>147.767603</ele>
        <time>2023-10-19T19:01:07.349Z</time>
      </trkpt>
      <trkpt lat="48.844396" lon="2.063925">
        <ele>147.592793</ele>
        <time>2023-10-19T19:01:09.458Z</time>
      </trkpt>
      <trkpt lat="48.844730" lon="2.063305">
        <ele>147.064811</ele>
        <time>2023-10-19T19:01:15.580Z</time>
      </trkpt>
      <trkpt lat="48.845041" lon="2.062687">
        <ele>146.552158</ele>
        <time>2023-10-19T19:01:21.383Z</time>
      </trkpt>
      <trkpt lat="48.845203" lon="2.062355">
        <ele>145.993740</ele>
        <time>2023-10-19T19:01:24.452Z</time>
      </trkpt>
      <trkpt lat="48.845451" lon="2.061727">
        <ele>144.922240</ele>
        <time>2023-10-19T19:01:29.826Z</time>
      </trkpt>
      <trkpt lat="48.845866" lon="2.061017">
        <ele>143.532945</ele>
        <time>2023-10-19T19:01:36.510Z</time>
      </trkpt>
      <trkpt lat="48.846014" lon="2.060790">
        <ele>143.065456</ele>
        <time>2023-10-19T19:01:38.701Z</time>
      </trkpt>
      <trkpt lat="48.846128" lon="2.060526">
        <ele>142.603501</ele>
        <time>2023-10-19T19:01:40.863Z</time>
      </trkpt>
      <trkpt lat="48.846426" lon="2.059695">
        <ele>140.914764</ele>
        <time>2023-10-19T19:01:47.320Z</time>
      </trkpt>
      <trkpt lat="48.845932" lon="2.059188">
        <ele>139.278623</ele>
        <time>2023-10-19T19:01:53.471Z</time>
      </trkpt>
      <trkpt lat="48.845553" lon="2.058747">
        <ele>137.968449</ele>
        <time>2023-10-19T19:01:58.433Z</time>
      </trkpt>
      <trkpt lat="48.845413" lon="2.058564">
        <ele>137.476025</ele>
        <time>2023-10-19T19:02:00.397Z</time>
      </trkpt>
      <trkpt lat="48.845214" lon="2.058282">
        <ele>136.821012</ele>
        <time>2023-10-19T19:02:03.248Z</time>
      </trkpt>
      <trkpt lat="48.845022" lon="2.058026">
        <ele>136.206130</ele>
        <time>2023-10-19T19:02:05.917Z</time>
      </trkpt>
      <trkpt lat="48.845051" lon="2.057923">
        <ele>136.028654</ele>
        <time>2023-10-19T19:02:06.714Z</time>
      </trkpt>
      <trkpt lat="48.845038" lon="2.057838">
        <ele>135.890412</ele>
        <time>2023-10-19T19:02:07.327Z</time>
      </trkpt>
      <trkpt lat="48.844998" lon="2.057777">
        <ele>135.753995</ele>
        <time>2023-10-19T19:02:07.940Z</time>
      </trkpt>
      <trkpt lat="48.844931" lon="2.057759">
        <ele>135.590211</ele>
        <time>2023-10-19T19:02:08.657Z</time>
      </trkpt>
      <trkpt lat="48.844871" lon="2.057806">
        <ele>135.427718</ele>
        <time>2023-10-19T19:02:09.376Z</time>
      </trkpt>
      <trkpt lat="48.844841" lon="2.057764">
        <ele>135.329523</ele>
        <time>2023-10-19T19:02:09.825Z</time>
      </trkpt>
      <trkpt lat="48.844600" lon="2.057444">
        <ele>134.559107</ele>
        <time>2023-10-19T19:02:13.295Z</time>
      </trkpt>
      <trkpt lat="48.844375" lon="2.057135">
        <ele>133.829056</ele>
        <time>2023-10-19T19:02:16.561Z</time>
      </trkpt>
      <trkpt lat="48.844232" lon="2.056847">
        <ele>133.257518</ele>
        <time>2023-10-19T19:02:19.105Z</time>
      </trkpt>
      <trkpt lat="48.844173" lon="2.056655">
        <ele>132.919416</ele>
        <time>2023-10-19T19:02:20.585Z</time>
      </trkpt>
      <trkpt lat="48.844198" lon="2.056502">
        <ele>132.667835</ele>
        <time>2023-10-19T19:02:21.693Z</time>
      </trkpt>
      <trkpt lat="48.844199" lon="2.056413">
        <ele>132.525782</ele>
        <time>2023-10-19T19:02:22.326Z</time>
      </trkpt>
      <trkpt lat="48.844155" lon="2.056201">
        <ele>132.171033</ele>
        <time>2023-10-19T19:02:23.885Z</time>
      </trkpt>
      <trkpt lat="48.844111" lon="2.056111">
        <ele>131.992110</ele>
        <time>2023-10-19T19:02:24.663Z</time>
      </trkpt>
      <trkpt lat="48.844068" lon="2.056052">
        <ele>131.851618</ele>
        <time>2023-10-19T19:02:25.289Z</time>
      </trkpt>
      <trkpt lat="48.843934" lon="2.055959">
        <ele>131.494388</ele>
        <time>2023-10-19T19:02:26.850Z</time>
      </trkpt>
      <trkpt lat="48.843861" lon="2.055948">
        <ele>131.316500</ele>
        <time>2023-10-19T19:02:27.630Z</time>
      </trkpt>
      <trkpt lat="48.843788" lon="2.055963">
        <ele>131.137869</ele>
        <time>2023-10-19T19:02:28.414Z</time>
      </trkpt>
      <trkpt lat="48.843656" lon="2.056061">
        <ele>130.781614</ele>
        <time>2023-10-19T19:02:29.979Z</time>
      </trkpt>
      <trkpt lat="48.843463" lon="2.056030">
        <ele>130.310995</ele>
        <time>2023-10-19T19:02:32.046Z</time>
      </trkpt>
      <trkpt lat="48.843346" lon="2.055976">
        <ele>130.014479</ele>
        <time>2023-10-19T19:02:33.349Z</time>
      </trkpt>
      <trkpt lat="48.842922" lon="2.055895">
        <ele>128.978216</ele>
        <time>2023-10-19T19:02:37.890Z</time>
      </trkpt>
      <trkpt lat="48.842767" lon="2.055800">
        <ele>128.541446</ele>
        <time>2023-10-19T19:02:39.654Z</time>
      </trkpt>
      <trkpt lat="48.840938" lon="2.054267">
        <ele>123.229852</ele>
        <time>2023-10-19T19:03:01.388Z</time>
      </trkpt>
      <trkpt lat="48.840814" lon="2.054126">
        <ele>122.912660</ele>
        <time>2023-10-19T19:03:03.057Z</time>
      </trkpt>
      <trkpt lat="48.840468" lon="2.053661">
        <ele>121.966634</ele>
        <time>2023-10-19T19:03:08.085Z</time>
      </trkpt>
      <trkpt lat="48.839782" lon="2.052671">
        <ele>120.194200</ele>
        <time>2023-10-19T19:03:18.763Z</time>
      </trkpt>
      <trkpt lat="48.838639" lon="2.050703">
        <ele>118.221004</ele>
        <time>2023-10-19T19:03:39.883Z</time>
      </trkpt>
      <trkpt lat="48.837350" lon="2.048778">
        <ele>116.271537</ele>
        <time>2023-10-19T19:04:02.089Z</time>
      </trkpt>
      <trkpt lat="48.837053" lon="2.048425">
        <ele>115.509249</ele>
        <time>2023-10-19T19:04:06.580Z</time>
      </trkpt>
      <trkpt lat="48.836115" lon="2.047478">
        <ele>113.232559</ele>
        <time>2023-10-19T19:04:18.852Z</time>
      </trkpt>
      <trkpt lat="48.835829" lon="2.047117">
        <ele>112.139772</ele>
        <time>2023-10-19T19:04:22.650Z</time>
      </trkpt>
      <trkpt lat="48.834877" lon="2.045705">
        <ele>107.163063</ele>
        <time>2023-10-19T19:04:35.576Z</time>
      </trkpt>
      <trkpt lat="48.834807" lon="2.045564">
        <ele>106.728222</ele>
        <time>2023-10-19T19:04:36.707Z</time>
      </trkpt>
      <trkpt lat="48.834753" lon="2.045420">
        <ele>106.320165</ele>
        <time>2023-10-19T19:04:37.787Z</time>
      </trkpt>
      <trkpt lat="48.834649" lon="2.045053">
        <ele>105.403390</ele>
        <time>2023-10-19T19:04:40.407Z</time>
      </trkpt>
      <trkpt lat="48.834533" lon="2.044514">
        <ele>104.121596</ele>
        <time>2023-10-19T19:04:44.196Z</time>
      </trkpt>
      <trkpt lat="48.834527" lon="2.044239">
        <ele>103.499658</ele>
        <time>2023-10-19T19:04:46.038Z</time>
      </trkpt>
      <trkpt lat="48.834521" lon="2.044144">
        <ele>103.283938</ele>
        <time>2023-10-19T19:04:46.664Z</time>
      </trkpt>
      <trkpt lat="48.834515" lon="2.043974">
        <ele>102.899126</ele>
        <time>2023-10-19T19:04:47.784Z</time>
      </trkpt>
      <trkpt lat="48.834544" lon="2.043822">
        <ele>102.541412</ele>
        <time>2023-10-19T19:04:48.846Z</time>
      </trkpt>
      <trkpt lat="48.834666" lon="2.043467">
        <ele>101.636207</ele>
        <time>2023-10-19T19:04:51.462Z</time>
      </trkpt>
      <trkpt lat="48.834925" lon="2.042909">
        <ele>100.092891</ele>
        <time>2023-10-19T19:04:55.943Z</time>
      </trkpt>
      <trkpt lat="48.835005" lon="2.042740">
        <ele>99.675085</ele>
        <time>2023-10-19T19:04:57.301Z</time>
      </trkpt>
      <trkpt lat="48.835078" lon="2.042592">
        <ele>99.319095</ele>
        <time>2023-10-19T19:04:58.510Z</time>
      </trkpt>
      <trkpt lat="48.835635" lon="2.041393">
        <ele>96.494278</ele>
        <time>2023-10-19T19:05:08.483Z</time>
      </trkpt>
      <trkpt lat="48.835932" lon="2.040638">
        <ele>94.801265</ele>
        <time>2023-10-19T19:05:14.383Z</time>
      </trkpt>
      <trkpt lat="48.835948" lon="2.040578">
        <ele>94.693581</ele>
        <time>2023-10-19T19:05:14.810Z</time>
      </trkpt>
      <trkpt lat="48.836894" lon="2.037953">
        <ele>91.364845</ele>
        <time>2023-10-19T19:05:37.330Z</time>
      </trkpt>
      <trkpt lat="48.836974" lon="2.037565">
        <ele>90.990607</ele>
        <time>2023-10-19T19:05:40.563Z</time>
      </trkpt>
      <trkpt lat="48.836979" lon="2.036803">
        <ele>90.289208</ele>
        <time>2023-10-19T19:05:46.422Z</time>
      </trkpt>
      <trkpt lat="48.836885" lon="2.034339">
        <ele>88.444688</ele>
        <time>2023-10-19T19:06:05.302Z</time>
      </trkpt>
      <trkpt lat="48.836748" lon="2.031827">
        <ele>87.481717</ele>
        <time>2023-10-19T19:06:27.706Z</time>
      </trkpt>
      <trkpt lat="48.836739" lon="2.031436">
        <ele>87.442944</ele>
        <time>2023-10-19T19:06:31.562Z</time>
      </trkpt>
      <trkpt lat="48.836704" lon="2.031050">
        <ele>87.404329</ele>
        <time>2023-10-19T19:06:35.342Z</time>
      </trkpt>
      <trkpt lat="48.836310" lon="2.029538">
        <ele>87.425724</ele>
        <time>2023-10-19T19:06:51.260Z</time>
      </trkpt>
      <trkpt lat="48.836145" lon="2.028283">
        <ele>87.659478</ele>
        <time>2023-10-19T19:07:03.999Z</time>
      </trkpt>
      <trkpt lat="48.835897" lon="2.026809">
        <ele>88.184471</ele>
        <time>2023-10-19T19:07:21.649Z</time>
      </trkpt>
      <trkpt lat="48.835851" lon="2.026342">
        <ele>88.433574</ele>
        <time>2023-10-19T19:07:27.483Z</time>
      </trkpt>
      <trkpt lat="48.835817" lon="2.025123">
        <ele>89.077218</ele>
        <time>2023-10-19T19:07:42.740Z</time>
      </trkpt>
      <trkpt lat="48.835923" lon="2.023479">
        <ele>89.028012</ele>
        <time>2023-10-19T19:08:00.127Z</time>
      </trkpt>
      <trkpt lat="48.835910" lon="2.022953">
        <ele>88.940807</ele>
        <time>2023-10-19T19:08:04.595Z</time>
      </trkpt>
      <trkpt lat="48.835798" lon="2.021983">
        <ele>88.791517</ele>
        <time>2023-10-19T19:08:12.544Z</time>
      </trkpt>
      <trkpt lat="48.835681" lon="2.021249">
        <ele>88.764576</ele>
        <time>2023-10-19T19:08:18.800Z</time>
      </trkpt>
      <trkpt lat="48.835536" lon="2.020699">
        <ele>88.743440</ele>
        <time>2023-10-19T19:08:23.923Z</time>
      </trkpt>
      <trkpt lat="48.835251" lon="2.019851">
        <ele>88.709473</ele>
        <time>2023-10-19T19:08:33.460Z</time>
      </trkpt>
      <trkpt lat="48.835094" lon="2.019518">
        <ele>88.884543</ele>
        <time>2023-10-19T19:08:38.529Z</time>
      </trkpt>
      <trkpt lat="48.834809" lon="2.018910">
        <ele>90.552977</ele>
        <time>2023-10-19T19:08:49.263Z</time>
      </trkpt>
      <trkpt lat="48.834718" lon="2.018659">
        <ele>91.193506</ele>
        <time>2023-10-19T19:08:54.382Z</time>
      </trkpt>
      <trkpt lat="48.834668" lon="2.018528">
        <ele>91.531994</ele>
        <time>2023-10-19T19:08:57.214Z</time>
      </trkpt>
      <trkpt lat="48.834588" lon="2.018408">
        <ele>91.913771</ele>
        <time>2023-10-19T19:09:00.515Z</time>
      </trkpt>
      <trkpt lat="48.834583" lon="2.018378">
        <ele>91.982945</ele>
        <time>2023-10-19T19:09:01.131Z</time>
      </trkpt>
      <trkpt lat="48.834558" lon="2.018330">
        <ele>92.119764</ele>
        <time>2023-10-19T19:09:02.407Z</time>
      </trkpt>
      <trkpt lat="48.834494" lon="2.018311">
        <ele>92.341210</ele>
        <time>2023-10-19T19:09:04.501Z</time>
      </trkpt>
      <trkpt lat="48.834450" lon="2.018361">
        <ele>92.527804</ele>
        <time>2023-10-19T19:09:06.225Z</time>
      </trkpt>
      <trkpt lat="48.834236" lon="2.018484">
        <ele>93.304791</ele>
        <time>2023-10-19T19:09:13.775Z</time>
      </trkpt>
      <trkpt lat="48.833805" lon="2.018771">
        <ele>94.964882</ele>
        <time>2023-10-19T19:09:30.180Z</time>
      </trkpt>
      <trkpt lat="48.832833" lon="2.019440">
        <ele>100.905679</ele>
        <time>2023-10-19T19:10:10.243Z</time>
      </trkpt>
      <trkpt lat="48.831603" lon="2.020287">
        <ele>107.226176</ele>
        <time>2023-10-19T19:11:01.515Z</time>
      </trkpt>
      <trkpt lat="48.830871" lon="2.020790">
        <ele>110.212646</ele>
        <time>2023-10-19T19:11:24.245Z</time>
      </trkpt>
      <trkpt lat="48.830634" lon="2.020956">
        <ele>111.182774</ele>
        <time>2023-10-19T19:11:30.559Z</time>
      </trkpt>
      <trkpt lat="48.830647" lon="2.021012">
        <ele>111.328078</ele>
        <time>2023-10-19T19:11:31.474Z</time>
      </trkpt>
      <trkpt lat="48.829918" lon="2.023791">
        <ele>112.013210</ele>
        <time>2023-10-19T19:12:02.756Z</time>
      </trkpt>
      <trkpt lat="48.829086" lon="2.026911">
        <ele>108.915398</ele>
        <time>2023-10-19T19:12:28.054Z</time>
      </trkpt>
      <trkpt lat="48.829038" lon="2.027151">
        <ele>108.618148</ele>
        <time>2023-10-19T19:12:29.804Z</time>
      </trkpt>
      <trkpt lat="48.828783" lon="2.029450">
        <ele>106.353494</ele>
        <time>2023-10-19T19:12:46.898Z</time>
      </trkpt>
      <trkpt lat="48.828677" lon="2.029984">
        <ele>106.106741</ele>
        <time>2023-10-19T19:12:51.370Z</time>
      </trkpt>
      <trkpt lat="48.828431" lon="2.030924">
        <ele>105.659218</ele>
        <time>2023-10-19T19:13:00.367Z</time>
      </trkpt>
      <trkpt lat="48.828406" lon="2.031018">
        <ele>105.614366</ele>
        <time>2023-10-19T19:13:01.718Z</time>
      </trkpt>
      <trkpt lat="48.828161" lon="2.031836">
        <ele>105.669040</ele>
        <time>2023-10-19T19:13:11.758Z</time>
      </trkpt>
      <trkpt lat="48.827709" lon="2.032758">
        <ele>106.183870</ele>
        <time>2023-10-19T19:13:25.600Z</time>
      </trkpt>
      <trkpt lat="48.827309" lon="2.033742">
        <ele>106.708017</ele>
        <time>2023-10-19T19:13:39.143Z</time>
      </trkpt>
      <trkpt lat="48.826684" lon="2.036133">
        <ele>108.055457</ele>
        <time>2023-10-19T19:14:09.620Z</time>
      </trkpt>
      <trkpt lat="48.825632" lon="2.040074">
        <ele>109.859070</ele>
        <time>2023-10-19T19:14:58.328Z</time>
      </trkpt>
      <trkpt lat="48.825016" lon="2.042371">
        <ele>110.852835</ele>
        <time>2023-10-19T19:15:26.465Z</time>
      </trkpt>
      <trkpt lat="48.824230" lon="2.045311">
        <ele>112.285805</ele>
        <time>2023-10-19T19:16:02.994Z</time>
      </trkpt>
      <trkpt lat="48.822385" lon="2.052311">
        <ele>115.768630</ele>
        <time>2023-10-19T19:17:33.596Z</time>
      </trkpt>
      <trkpt lat="48.821041" lon="2.057424">
        <ele>113.599147</ele>
        <time>2023-10-19T19:18:18.838Z</time>
      </trkpt>
      <trkpt lat="48.820705" lon="2.057104">
        <ele>113.374741</ele>
        <time>2023-10-19T19:18:24.170Z</time>
      </trkpt>
      <trkpt lat="48.820333" lon="2.056642">
        <ele>113.102838</ele>
        <time>2023-10-19T19:18:30.737Z</time>
      </trkpt>
      <trkpt lat="48.819762" lon="2.055764">
        <ele>112.853120</ele>
        <time>2023-10-19T19:18:42.114Z</time>
      </trkpt>
      <trkpt lat="48.818691" lon="2.053862">
        <ele>112.829331</ele>
        <time>2023-10-19T19:19:05.378Z</time>
      </trkpt>
      <trkpt lat="48.818373" lon="2.053362">
        <ele>113.067198</ele>
        <time>2023-10-19T19:19:12.751Z</time>
      </trkpt>
      <trkpt lat="48.818222" lon="2.053170">
        <ele>113.169540</ele>
        <time>2023-10-19T19:19:16.173Z</time>
      </trkpt>
      <trkpt lat="48.818005" lon="2.052941">
        <ele>113.306860</ele>
        <time>2023-10-19T19:19:20.946Z</time>
      </trkpt>
      <trkpt lat="48.817757" lon="2.052743">
        <ele>113.452463</ele>
        <time>2023-10-19T19:19:26.261Z</time>
      </trkpt>
      <trkpt lat="48.817725" lon="2.052726">
        <ele>113.470080</ele>
        <time>2023-10-19T19:19:26.950Z</time>
      </trkpt>
      <trkpt lat="48.816317" lon="2.052182">
        <ele>115.201506</ele>
        <time>2023-10-19T19:19:55.432Z</time>
      </trkpt>
      <trkpt lat="48.816205" lon="2.052122">
        <ele>115.352569</ele>
        <time>2023-10-19T19:19:57.760Z</time>
      </trkpt>
      <trkpt lat="48.815943" lon="2.051806">
        <ele>115.778133</ele>
        <time>2023-10-19T19:20:04.613Z</time>
      </trkpt>
      <trkpt lat="48.815811" lon="2.051558">
        <ele>116.151699</ele>
        <time>2023-10-19T19:20:09.020Z</time>
      </trkpt>
      <trkpt lat="48.815757" lon="2.051440">
        <ele>116.334010</ele>
        <time>2023-10-19T19:20:11.019Z</time>
      </trkpt>
      <trkpt lat="48.815904" lon="2.050934">
        <ele>117.035677</ele>
        <time>2023-10-19T19:20:18.834Z</time>
      </trkpt>
      <trkpt lat="48.816048" lon="2.050291">
        <ele>117.897341</ele>
        <time>2023-10-19T19:20:28.701Z</time>
      </trkpt>
      <trkpt lat="48.816155" lon="2.049654">
        <ele>118.731383</ele>
        <time>2023-10-19T19:20:38.702Z</time>
      </trkpt>
      <trkpt lat="48.816700" lon="2.047095">
        <ele>122.833737</ele>
        <time>2023-10-19T19:21:23.123Z</time>
      </trkpt>
      <trkpt lat="48.816697" lon="2.047005">
        <ele>122.975852</ele>
        <time>2023-10-19T19:21:24.486Z</time>
      </trkpt>
      <trkpt lat="48.816646" lon="2.046915">
        <ele>123.163107</ele>
        <time>2023-10-19T19:21:26.358Z</time>
      </trkpt>
      <trkpt lat="48.816563" lon="2.046813">
        <ele>123.418823</ele>
        <time>2023-10-19T19:21:28.920Z</time>
      </trkpt>
      <trkpt lat="48.816525" lon="2.046621">
        <ele>123.688632</ele>
        <time>2023-10-19T19:21:31.998Z</time>
      </trkpt>
      <trkpt lat="48.816401" lon="2.046671">
        <ele>123.880466</ele>
        <time>2023-10-19T19:21:34.936Z</time>
      </trkpt>
      <trkpt lat="48.816177" lon="2.046619">
        <ele>124.219292</ele>
        <time>2023-10-19T19:21:40.105Z</time>
      </trkpt>
      <trkpt lat="48.816014" lon="2.046542">
        <ele>124.474536</ele>
        <time>2023-10-19T19:21:43.812Z</time>
      </trkpt>
      <trkpt lat="48.815803" lon="2.046340">
        <ele>124.847489</ele>
        <time>2023-10-19T19:21:49.088Z</time>
      </trkpt>
      <trkpt lat="48.815401" lon="2.045931">
        <ele>125.571005</ele>
        <time>2023-10-19T19:21:58.670Z</time>
      </trkpt>
      <trkpt lat="48.815305" lon="2.045858">
        <ele>125.731538</ele>
        <time>2023-10-19T19:22:00.710Z</time>
      </trkpt>
      <trkpt lat="48.814944" lon="2.045600">
        <ele>126.323411</ele>
        <time>2023-10-19T19:22:08.122Z</time>
      </trkpt>
      <trkpt lat="48.814858" lon="2.045544">
        <ele>126.439083</ele>
        <time>2023-10-19T19:22:09.829Z</time>
      </trkpt>
      <trkpt lat="48.814325" lon="2.045082">
        <ele>127.197740</ele>
        <time>2023-10-19T19:22:21.733Z</time>
      </trkpt>
      <trkpt lat="48.814210" lon="2.044939">
        <ele>127.381478</ele>
        <time>2023-10-19T19:22:24.650Z</time>
      </trkpt>
      <trkpt lat="48.813929" lon="2.044589">
        <ele>127.830740</ele>
        <time>2023-10-19T19:22:31.857Z</time>
      </trkpt>
      <trkpt lat="48.813826" lon="2.044471">
        <ele>127.990235</ele>
        <time>2023-10-19T19:22:34.403Z</time>
      </trkpt>
      <trkpt lat="48.813703" lon="2.044342">
        <ele>128.175023</ele>
        <time>2023-10-19T19:22:37.365Z</time>
      </trkpt>
      <trkpt lat="48.813349" lon="2.044019">
        <ele>128.780024</ele>
        <time>2023-10-19T19:22:45.700Z</time>
      </trkpt>
      <trkpt lat="48.813264" lon="2.043932">
        <ele>128.981046</ele>
        <time>2023-10-19T19:22:47.861Z</time>
      </trkpt>
      <trkpt lat="48.813180" lon="2.043861">
        <ele>129.169576</ele>
        <time>2023-10-19T19:22:49.847Z</time>
      </trkpt>
      <trkpt lat="48.813005" lon="2.043693">
        <ele>129.575595</ele>
        <time>2023-10-19T19:22:54.327Z</time>
      </trkpt>
      <trkpt lat="48.812617" lon="2.043382">
        <ele>130.435994</ele>
        <time>2023-10-19T19:23:04.409Z</time>
      </trkpt>
      <trkpt lat="48.812467" lon="2.043295">
        <ele>130.750885</ele>
        <time>2023-10-19T19:23:08.235Z</time>
      </trkpt>
      <trkpt lat="48.812435" lon="2.043262">
        <ele>130.826743</ele>
        <time>2023-10-19T19:23:09.188Z</time>
      </trkpt>
      <trkpt lat="48.812397" lon="2.043117">
        <ele>131.028285</ele>
        <time>2023-10-19T19:23:11.752Z</time>
      </trkpt>
      <trkpt lat="48.811950" lon="2.042612">
        <ele>132.078162</ele>
        <time>2023-10-19T19:23:25.097Z</time>
      </trkpt>
      <trkpt lat="48.811856" lon="2.042499">
        <ele>132.167982</ele>
        <time>2023-10-19T19:23:28.087Z</time>
      </trkpt>
      <trkpt lat="48.811371" lon="2.041885">
        <ele>132.641050</ele>
        <time>2023-10-19T19:23:42.424Z</time>
      </trkpt>
      <trkpt lat="48.811203" lon="2.041748">
        <ele>132.783915</ele>
        <time>2023-10-19T19:23:46.069Z</time>
      </trkpt>
      <trkpt lat="48.811030" lon="2.041625">
        <ele>132.927028</ele>
        <time>2023-10-19T19:23:49.400Z</time>
      </trkpt>
      <trkpt lat="48.810769" lon="2.041459">
        <ele>133.139025</ele>
        <time>2023-10-19T19:23:53.794Z</time>
      </trkpt>
      <trkpt lat="48.810540" lon="2.041322">
        <ele>133.323424</ele>
        <time>2023-10-19T19:23:57.002Z</time>
      </trkpt>
      <trkpt lat="48.810435" lon="2.041218">
        <ele>133.350904</ele>
        <time>2023-10-19T19:23:58.590Z</time>
      </trkpt>
      <trkpt lat="48.811403" lon="2.038969">
        <ele>129.803057</ele>
        <time>2023-10-19T19:24:17.296Z</time>
      </trkpt>
      <trkpt lat="48.811498" lon="2.038621">
        <ele>130.326279</ele>
        <time>2023-10-19T19:24:20.133Z</time>
      </trkpt>
      <trkpt lat="48.811542" lon="2.038549">
        <ele>130.468373</ele>
        <time>2023-10-19T19:24:20.972Z</time>
      </trkpt>
      <trkpt lat="48.811592" lon="2.038511">
        <ele>130.591196</ele>
        <time>2023-10-19T19:24:21.687Z</time>
      </trkpt>
      <trkpt lat="48.811631" lon="2.038417">
        <ele>130.751914</ele>
        <time>2023-10-19T19:24:22.598Z</time>
      </trkpt>
      <trkpt lat="48.811629" lon="2.038319">
        <ele>130.893750</ele>
        <time>2023-10-19T19:24:23.530Z</time>
      </trkpt>
      <trkpt lat="48.811590" lon="2.038231">
        <ele>131.047194</ele>
        <time>2023-10-19T19:24:24.679Z</time>
      </trkpt>
      <trkpt lat="48.811524" lon="2.038192">
        <ele>131.202766</ele>
        <time>2023-10-19T19:24:25.919Z</time>
      </trkpt>
      <trkpt lat="48.811456" lon="2.038216">
        <ele>131.356124</ele>
        <time>2023-10-19T19:24:27.221Z</time>
      </trkpt>
      <trkpt lat="48.811347" lon="2.038141">
        <ele>131.618998</ele>
        <time>2023-10-19T19:24:29.383Z</time>
      </trkpt>
      <trkpt lat="48.810484" lon="2.037293">
        <ele>134.212398</ele>
        <time>2023-10-19T19:25:01.577Z</time>
      </trkpt>
      <trkpt lat="48.810117" lon="2.037017">
        <ele>137.375674</ele>
        <time>2023-10-19T19:25:19.458Z</time>
      </trkpt>
      <trkpt lat="48.809817" lon="2.036876">
        <ele>139.801304</ele>
        <time>2023-10-19T19:25:33.807Z</time>
      </trkpt>
      <trkpt lat="48.809563" lon="2.036855">
        <ele>141.766081</ele>
        <time>2023-10-19T19:25:45.707Z</time>
      </trkpt>
      <trkpt lat="48.809439" lon="2.036888">
        <ele>142.738444</ele>
        <time>2023-10-19T19:25:51.523Z</time>
      </trkpt>
      <trkpt lat="48.809215" lon="2.037044">
        <ele>144.641893</ele>
        <time>2023-10-19T19:26:03.382Z</time>
      </trkpt>
      <trkpt lat="48.809091" lon="2.037203">
        <ele>145.895468</ele>
        <time>2023-10-19T19:26:11.237Z</time>
      </trkpt>
      <trkpt lat="48.809079" lon="2.037267">
        <ele>146.233956</ele>
        <time>2023-10-19T19:26:13.426Z</time>
      </trkpt>
      <trkpt lat="48.808713" lon="2.038162">
        <ele>152.636706</ele>
        <time>2023-10-19T19:26:51.490Z</time>
      </trkpt>
      <trkpt lat="48.808481" lon="2.038588">
        <ele>156.190441</ele>
        <time>2023-10-19T19:27:12.502Z</time>
      </trkpt>
      <trkpt lat="48.808360" lon="2.038696">
        <ele>157.560546</ele>
        <time>2023-10-19T19:27:20.514Z</time>
      </trkpt>
      <trkpt lat="48.808227" lon="2.038760">
        <ele>158.922474</ele>
        <time>2023-10-19T19:27:28.456Z</time>
      </trkpt>
      <trkpt lat="48.807939" lon="2.038774">
        <ele>161.735254</ele>
        <time>2023-10-19T19:27:44.108Z</time>
      </trkpt>
      <trkpt lat="48.807799" lon="2.038721">
        <ele>163.143713</ele>
        <time>2023-10-19T19:27:52.071Z</time>
      </trkpt>
      <trkpt lat="48.807599" lon="2.038651">
        <ele>165.147228</ele>
        <time>2023-10-19T19:28:02.704Z</time>
      </trkpt>
      <trkpt lat="48.807494" lon="2.038613">
        <ele>165.781011</ele>
        <time>2023-10-19T19:28:08.483Z</time>
      </trkpt>
      <trkpt lat="48.806996" lon="2.038445">
        <ele>168.684303</ele>
        <time>2023-10-19T19:28:31.917Z</time>
      </trkpt>
      <trkpt lat="48.806820" lon="2.038333">
        <ele>169.770355</ele>
        <time>2023-10-19T19:28:39.880Z</time>
      </trkpt>
      <trkpt lat="48.806248" lon="2.037612">
        <ele>174.001241</ele>
        <time>2023-10-19T19:29:06.000Z</time>
      </trkpt>
      <trkpt lat="48.806117" lon="2.037218">
        <ele>175.437285</ele>
        <time>2023-10-19T19:29:12.687Z</time>
      </trkpt>
      <trkpt lat="48.805898" lon="2.036432">
        <ele>175.537215</ele>
        <time>2023-10-19T19:29:22.526Z</time>
      </trkpt>
      <trkpt lat="48.805861" lon="2.036292">
        <ele>175.554878</ele>
        <time>2023-10-19T19:29:23.940Z</time>
      </trkpt>
      <trkpt lat="48.805768" lon="2.035949">
        <ele>175.598310</ele>
        <time>2023-10-19T19:29:27.270Z</time>
      </trkpt>
      <trkpt lat="48.805701" lon="2.035697">
        <ele>175.630130</ele>
        <time>2023-10-19T19:29:29.605Z</time>
      </trkpt>
      <trkpt lat="48.805557" lon="2.035387">
        <ele>175.674548</ele>
        <time>2023-10-19T19:29:32.705Z</time>
      </trkpt>
      <trkpt lat="48.805477" lon="2.035256">
        <ele>175.695466</ele>
        <time>2023-10-19T19:29:34.163Z</time>
      </trkpt>
      <trkpt lat="48.805308" lon="2.035035">
        <ele>175.735119</ele>
        <time>2023-10-19T19:29:37.023Z</time>
      </trkpt>
      <trkpt lat="48.804936" lon="2.034749">
        <ele>175.247459</ele>
        <time>2023-10-19T19:29:42.480Z</time>
      </trkpt>
      <trkpt lat="48.803669" lon="2.033946">
        <ele>173.176579</ele>
        <time>2023-10-19T19:29:58.246Z</time>
      </trkpt>
      <trkpt lat="48.803558" lon="2.033876">
        <ele>172.972464</ele>
        <time>2023-10-19T19:29:59.491Z</time>
      </trkpt>
      <trkpt lat="48.802890" lon="2.033468">
        <ele>171.293027</ele>
        <time>2023-10-19T19:30:06.977Z</time>
      </trkpt>
      <trkpt lat="48.802203" lon="2.033030">
        <ele>169.555073</ele>
        <time>2023-10-19T19:30:14.907Z</time>
      </trkpt>
      <trkpt lat="48.801891" lon="2.032812">
        <ele>168.799242</ele>
        <time>2023-10-19T19:30:18.614Z</time>
      </trkpt>
      <trkpt lat="48.801257" lon="2.032252">
        <ele>167.970392</ele>
        <time>2023-10-19T19:30:26.873Z</time>
      </trkpt>
      <trkpt lat="48.801032" lon="2.032005">
        <ele>167.656636</ele>
        <time>2023-10-19T19:30:30.307Z</time>
      </trkpt>
      <trkpt lat="48.800715" lon="2.031846">
        <ele>167.279381</ele>
        <time>2023-10-19T19:30:34.693Z</time>
      </trkpt>
      <trkpt lat="48.800640" lon="2.031829">
        <ele>167.193691</ele>
        <time>2023-10-19T19:30:35.694Z</time>
      </trkpt>
      <trkpt lat="48.800337" lon="2.031741">
        <ele>166.845090</ele>
        <time>2023-10-19T19:30:39.914Z</time>
      </trkpt>
      <trkpt lat="48.800268" lon="2.031680">
        <ele>166.814564</ele>
        <time>2023-10-19T19:30:40.982Z</time>
      </trkpt>
      <trkpt lat="48.799931" lon="2.031563">
        <ele>166.852327</ele>
        <time>2023-10-19T19:30:45.654Z</time>
      </trkpt>
      <trkpt lat="48.799740" lon="2.031534">
        <ele>166.873296</ele>
        <time>2023-10-19T19:30:48.345Z</time>
      </trkpt>
      <trkpt lat="48.798879" lon="2.031613">
        <ele>166.967521</ele>
        <time>2023-10-19T19:31:01.737Z</time>
      </trkpt>
      <trkpt lat="48.798616" lon="2.031688">
        <ele>166.996752</ele>
        <time>2023-10-19T19:31:06.545Z</time>
      </trkpt>
      <trkpt lat="48.798422" lon="2.031803">
        <ele>167.060310</ele>
        <time>2023-10-19T19:31:10.320Z</time>
      </trkpt>
      <trkpt lat="48.797423" lon="2.032360">
        <ele>167.522285</ele>
        <time>2023-10-19T19:31:28.266Z</time>
      </trkpt>
      <trkpt lat="48.797108" lon="2.032566">
        <ele>167.671171</ele>
        <time>2023-10-19T19:31:33.864Z</time>
      </trkpt>
      <trkpt lat="48.796884" lon="2.032690">
        <ele>167.774669</ele>
        <time>2023-10-19T19:31:37.641Z</time>
      </trkpt>
      <trkpt lat="48.796515" lon="2.032844">
        <ele>167.763489</ele>
        <time>2023-10-19T19:31:43.557Z</time>
      </trkpt>
      <trkpt lat="48.796014" lon="2.033123">
        <ele>167.728858</ele>
        <time>2023-10-19T19:31:51.083Z</time>
      </trkpt>
      <trkpt lat="48.795119" lon="2.033635">
        <ele>167.708117</ele>
        <time>2023-10-19T19:32:04.281Z</time>
      </trkpt>
      <trkpt lat="48.794913" lon="2.033749">
        <ele>167.887612</ele>
        <time>2023-10-19T19:32:07.495Z</time>
      </trkpt>
      <trkpt lat="48.794185" lon="2.034416">
        <ele>168.583715</ele>
        <time>2023-10-19T19:32:22.955Z</time>
      </trkpt>
      <trkpt lat="48.793732" lon="2.035103">
        <ele>169.107916</ele>
        <time>2023-10-19T19:32:36.105Z</time>
      </trkpt>
      <trkpt lat="48.793629" lon="2.035318">
        <ele>169.260769</ele>
        <time>2023-10-19T19:32:39.701Z</time>
      </trkpt>
      <trkpt lat="48.793365" lon="2.035866">
        <ele>169.658752</ele>
        <time>2023-10-19T19:32:48.563Z</time>
      </trkpt>
      <trkpt lat="48.793209" lon="2.036248">
        <ele>169.922227</ele>
        <time>2023-10-19T19:32:54.127Z</time>
      </trkpt>
      <trkpt lat="48.793112" lon="2.036315">
        <ele>170.017060</ele>
        <time>2023-10-19T19:32:56.042Z</time>
      </trkpt>
      <trkpt lat="48.793008" lon="2.036287">
        <ele>170.111051</ele>
        <time>2023-10-19T19:32:57.941Z</time>
      </trkpt>
      <trkpt lat="48.792707" lon="2.036086">
        <ele>170.403674</ele>
        <time>2023-10-19T19:33:03.797Z</time>
      </trkpt>
      <trkpt lat="48.792609" lon="2.036026">
        <ele>170.497707</ele>
        <time>2023-10-19T19:33:05.640Z</time>
      </trkpt>
      <trkpt lat="48.792467" lon="2.035938">
        <ele>170.634193</ele>
        <time>2023-10-19T19:33:08.353Z</time>
      </trkpt>
      <trkpt lat="48.792262" lon="2.035809">
        <ele>170.722187</ele>
        <time>2023-10-19T19:33:12.140Z</time>
      </trkpt>
      <trkpt lat="48.791699" lon="2.035452">
        <ele>170.596189</ele>
        <time>2023-10-19T19:33:20.924Z</time>
      </trkpt>
      <trkpt lat="48.791638" lon="2.035413">
        <ele>170.582521</ele>
        <time>2023-10-19T19:33:21.781Z</time>
      </trkpt>
      <trkpt lat="48.791081" lon="2.035061">
        <ele>170.457928</ele>
        <time>2023-10-19T19:33:29.501Z</time>
      </trkpt>
      <trkpt lat="48.790881" lon="2.034945">
        <ele>170.413715</ele>
        <time>2023-10-19T19:33:32.341Z</time>
      </trkpt>
      <trkpt lat="48.790712" lon="2.034927">
        <ele>170.378730</ele>
        <time>2023-10-19T19:33:34.728Z</time>
      </trkpt>
      <trkpt lat="48.790600" lon="2.034960">
        <ele>170.349532</ele>
        <time>2023-10-19T19:33:36.354Z</time>
      </trkpt>
      <trkpt lat="48.790313" lon="2.035166">
        <ele>170.261176</ele>
        <time>2023-10-19T19:33:41.266Z</time>
      </trkpt>
      <trkpt lat="48.790201" lon="2.035207">
        <ele>170.229112</ele>
        <time>2023-10-19T19:33:42.908Z</time>
      </trkpt>
      <trkpt lat="48.790105" lon="2.035204">
        <ele>170.202388</ele>
        <time>2023-10-19T19:33:44.362Z</time>
      </trkpt>
      <trkpt lat="48.789960" lon="2.035122">
        <ele>170.159323</ele>
        <time>2023-10-19T19:33:46.588Z</time>
      </trkpt>
      <trkpt lat="48.789821" lon="2.035114">
        <ele>170.120610</ele>
        <time>2023-10-19T19:33:48.431Z</time>
      </trkpt>
      <trkpt lat="48.789705" lon="2.035158">
        <ele>170.087332</ele>
        <time>2023-10-19T19:33:50.063Z</time>
      </trkpt>
      <trkpt lat="48.789593" lon="2.035255">
        <ele>170.051444</ele>
        <time>2023-10-19T19:33:51.775Z</time>
      </trkpt>
      <trkpt lat="48.789510" lon="2.035383">
        <ele>170.018513</ele>
        <time>2023-10-19T19:33:53.371Z</time>
      </trkpt>
      <trkpt lat="48.789443" lon="2.035570">
        <ele>169.979483</ele>
        <time>2023-10-19T19:33:55.312Z</time>
      </trkpt>
      <trkpt lat="48.789416" lon="2.035801">
        <ele>169.936465</ele>
        <time>2023-10-19T19:33:57.371Z</time>
      </trkpt>
      <trkpt lat="48.789442" lon="2.036033">
        <ele>169.893315</ele>
        <time>2023-10-19T19:33:59.516Z</time>
      </trkpt>
      <trkpt lat="48.789391" lon="2.036224">
        <ele>169.828576</ele>
        <time>2023-10-19T19:34:01.335Z</time>
      </trkpt>
      <trkpt lat="48.789215" lon="2.036510">
        <ele>169.630196</ele>
        <time>2023-10-19T19:34:04.870Z</time>
      </trkpt>
      <trkpt lat="48.788857" lon="2.036901">
        <ele>169.290853</ele>
        <time>2023-10-19T19:34:10.849Z</time>
      </trkpt>
      <trkpt lat="48.788115" lon="2.037747">
        <ele>168.576828</ele>
        <time>2023-10-19T19:34:22.418Z</time>
      </trkpt>
      <trkpt lat="48.787672" lon="2.038289">
        <ele>167.663345</ele>
        <time>2023-10-19T19:34:28.978Z</time>
      </trkpt>
      <trkpt lat="48.787530" lon="2.038486">
        <ele>167.312930</ele>
        <time>2023-10-19T19:34:31.166Z</time>
      </trkpt>
      <trkpt lat="48.787082" lon="2.039008">
        <ele>166.284190</ele>
        <time>2023-10-19T19:34:37.352Z</time>
      </trkpt>
      <trkpt lat="48.786987" lon="2.039110">
        <ele>166.072232</ele>
        <time>2023-10-19T19:34:38.591Z</time>
      </trkpt>
      <trkpt lat="48.786553" lon="2.039617">
        <ele>165.126742</ele>
        <time>2023-10-19T19:34:44.479Z</time>
      </trkpt>
      <trkpt lat="48.786027" lon="2.040231">
        <ele>164.380491</ele>
        <time>2023-10-19T19:34:51.806Z</time>
      </trkpt>
      <trkpt lat="48.785899" lon="2.040373">
        <ele>164.202189</ele>
        <time>2023-10-19T19:34:53.631Z</time>
      </trkpt>
      <trkpt lat="48.785309" lon="2.041029">
        <ele>163.379685</ele>
        <time>2023-10-19T19:35:03.085Z</time>
      </trkpt>
      <trkpt lat="48.785227" lon="2.041132">
        <ele>163.259983</ele>
        <time>2023-10-19T19:35:04.708Z</time>
      </trkpt>
      <trkpt lat="48.785129" lon="2.041044">
        <ele>163.227178</ele>
        <time>2023-10-19T19:35:06.426Z</time>
      </trkpt>
      <trkpt lat="48.785045" lon="2.041056">
        <ele>163.293388</ele>
        <time>2023-10-19T19:35:07.635Z</time>
      </trkpt>
      <trkpt lat="48.785039" lon="2.041059">
        <ele>163.298346</ele>
        <time>2023-10-19T19:35:07.721Z</time>
      </trkpt>
      <trkpt lat="48.784948" lon="2.041205">
        <ele>163.402261</ele>
        <time>2023-10-19T19:35:09.891Z</time>
      </trkpt>
      <trkpt lat="48.784942" lon="2.041236">
        <ele>163.418968</ele>
        <time>2023-10-19T19:35:10.268Z</time>
      </trkpt>
      <trkpt lat="48.784946" lon="2.041352">
        <ele>163.479029</ele>
        <time>2023-10-19T19:35:11.628Z</time>
      </trkpt>
      <trkpt lat="48.784889" lon="2.041473">
        <ele>163.555938</ele>
        <time>2023-10-19T19:35:13.299Z</time>
      </trkpt>
      <trkpt lat="48.784549" lon="2.041847">
        <ele>163.885462</ele>
        <time>2023-10-19T19:35:21.174Z</time>
      </trkpt>
      <trkpt lat="48.784404" lon="2.041974">
        <ele>164.016839</ele>
        <time>2023-10-19T19:35:24.535Z</time>
      </trkpt>
      <trkpt lat="48.784299" lon="2.042076">
        <ele>164.114671</ele>
        <time>2023-10-19T19:35:26.989Z</time>
      </trkpt>
      <trkpt lat="48.784177" lon="2.042158">
        <ele>164.219379</ele>
        <time>2023-10-19T19:35:29.530Z</time>
      </trkpt>
      <trkpt lat="48.784098" lon="2.042147">
        <ele>164.281634</ele>
        <time>2023-10-19T19:35:31.165Z</time>
      </trkpt>
      <trkpt lat="48.783987" lon="2.042245">
        <ele>164.382408</ele>
        <time>2023-10-19T19:35:33.761Z</time>
      </trkpt>
      <trkpt lat="48.783911" lon="2.042333">
        <ele>164.457424</ele>
        <time>2023-10-19T19:35:35.569Z</time>
      </trkpt>
      <trkpt lat="48.783893" lon="2.042369">
        <ele>164.480792</ele>
        <time>2023-10-19T19:35:36.137Z</time>
      </trkpt>
      <trkpt lat="48.783880" lon="2.042482">
        <ele>164.540105</ele>
        <time>2023-10-19T19:35:37.613Z</time>
      </trkpt>
      <trkpt lat="48.783792" lon="2.043007">
        <ele>164.656177</ele>
        <time>2023-10-19T19:35:44.591Z</time>
      </trkpt>
      <trkpt lat="48.783796" lon="2.043099">
        <ele>164.668418</ele>
        <time>2023-10-19T19:35:45.688Z</time>
      </trkpt>
      <trkpt lat="48.783843" lon="2.043204">
        <ele>164.685270</ele>
        <time>2023-10-19T19:35:47.165Z</time>
      </trkpt>
      <trkpt lat="48.783904" lon="2.043326">
        <ele>164.705602</ele>
        <time>2023-10-19T19:35:48.868Z</time>
      </trkpt>
      <trkpt lat="48.784632" lon="2.044776">
        <ele>164.947622</ele>
        <time>2023-10-19T19:36:06.120Z</time>
      </trkpt>
      <trkpt lat="48.784695" lon="2.044913">
        <ele>164.962889</ele>
        <time>2023-10-19T19:36:07.569Z</time>
      </trkpt>
      <trkpt lat="48.784732" lon="2.045004">
        <ele>164.964640</ele>
        <time>2023-10-19T19:36:08.501Z</time>
      </trkpt>
      <trkpt lat="48.784791" lon="2.045144">
        <ele>164.967361</ele>
        <time>2023-10-19T19:36:09.961Z</time>
      </trkpt>
      <trkpt lat="48.785436" lon="2.046445">
        <ele>164.994021</ele>
        <time>2023-10-19T19:36:25.234Z</time>
      </trkpt>
      <trkpt lat="48.785452" lon="2.046477">
        <ele>164.994678</ele>
        <time>2023-10-19T19:36:25.653Z</time>
      </trkpt>
      <trkpt lat="48.785513" lon="2.046603">
        <ele>164.997238</ele>
        <time>2023-10-19T19:36:27.262Z</time>
      </trkpt>
      <trkpt lat="48.785702" lon="2.046993">
        <ele>165.005165</ele>
        <time>2023-10-19T19:36:32.354Z</time>
      </trkpt>
      <trkpt lat="48.785781" lon="2.047143">
        <ele>165.095199</ele>
        <time>2023-10-19T19:36:34.504Z</time>
      </trkpt>
      <trkpt lat="48.785792" lon="2.047163">
        <ele>165.117492</ele>
        <time>2023-10-19T19:36:34.788Z</time>
      </trkpt>
      <trkpt lat="48.785838" lon="2.047248">
        <ele>165.211615</ele>
        <time>2023-10-19T19:36:36.029Z</time>
      </trkpt>
      <trkpt lat="48.785910" lon="2.047391">
        <ele>165.365617</ele>
        <time>2023-10-19T19:36:38.082Z</time>
      </trkpt>
      <trkpt lat="48.786434" lon="2.048444">
        <ele>166.494767</ele>
        <time>2023-10-19T19:36:55.633Z</time>
      </trkpt>
      <trkpt lat="48.786514" lon="2.048608">
        <ele>166.669374</ele>
        <time>2023-10-19T19:36:58.708Z</time>
      </trkpt>
      <trkpt lat="48.786548" lon="2.048680">
        <ele>166.745172</ele>
        <time>2023-10-19T19:37:00.016Z</time>
      </trkpt>
      <trkpt lat="48.786777" lon="2.049142">
        <ele>167.239874</ele>
        <time>2023-10-19T19:37:08.617Z</time>
      </trkpt>
      <trkpt lat="48.787174" lon="2.049939">
        <ele>167.690465</ele>
        <time>2023-10-19T19:37:22.524Z</time>
      </trkpt>
      <trkpt lat="48.787203" lon="2.049999">
        <ele>167.719915</ele>
        <time>2023-10-19T19:37:23.464Z</time>
      </trkpt>
      <trkpt lat="48.787246" lon="2.050082">
        <ele>167.761700</ele>
        <time>2023-10-19T19:37:24.662Z</time>
      </trkpt>
      <trkpt lat="48.787210" lon="2.050272">
        <ele>167.839940</ele>
        <time>2023-10-19T19:37:26.973Z</time>
      </trkpt>
      <trkpt lat="48.787112" lon="2.050386">
        <ele>167.914105</ele>
        <time>2023-10-19T19:37:29.128Z</time>
      </trkpt>
      <trkpt lat="48.786216" lon="2.051397">
        <ele>168.235932</ele>
        <time>2023-10-19T19:37:45.144Z</time>
      </trkpt>
      <trkpt lat="48.785898" lon="2.051815">
        <ele>167.943961</ele>
        <time>2023-10-19T19:37:50.321Z</time>
      </trkpt>
      <trkpt lat="48.785742" lon="2.052036">
        <ele>167.795853</ele>
        <time>2023-10-19T19:37:52.908Z</time>
      </trkpt>
      <trkpt lat="48.785587" lon="2.052337">
        <ele>167.621157</ele>
        <time>2023-10-19T19:37:55.966Z</time>
      </trkpt>
      <trkpt lat="48.785422" lon="2.052739">
        <ele>167.404575</ele>
        <time>2023-10-19T19:37:59.852Z</time>
      </trkpt>
      <trkpt lat="48.785358" lon="2.052951">
        <ele>167.297937</ele>
        <time>2023-10-19T19:38:01.805Z</time>
      </trkpt>
      <trkpt lat="48.785323" lon="2.053149">
        <ele>167.204192</ele>
        <time>2023-10-19T19:38:03.525Z</time>
      </trkpt>
      <trkpt lat="48.785257" lon="2.053592">
        <ele>167.073224</ele>
        <time>2023-10-19T19:38:07.424Z</time>
      </trkpt>
      <trkpt lat="48.785218" lon="2.054035">
        <ele>166.956903</ele>
        <time>2023-10-19T19:38:11.712Z</time>
      </trkpt>
      <trkpt lat="48.785233" lon="2.054503">
        <ele>166.834957</ele>
        <time>2023-10-19T19:38:16.184Z</time>
      </trkpt>
      <trkpt lat="48.785390" lon="2.055768">
        <ele>166.499936</ele>
        <time>2023-10-19T19:38:27.714Z</time>
      </trkpt>
      <trkpt lat="48.785451" lon="2.056258">
        <ele>166.311455</ele>
        <time>2023-10-19T19:38:32.142Z</time>
      </trkpt>
      <trkpt lat="48.785498" lon="2.056643">
        <ele>166.145881</ele>
        <time>2023-10-19T19:38:35.487Z</time>
      </trkpt>
      <trkpt lat="48.785523" lon="2.056841">
        <ele>166.060630</ele>
        <time>2023-10-19T19:38:37.199Z</time>
      </trkpt>
      <trkpt lat="48.785697" lon="2.058316">
        <ele>165.426988</ele>
        <time>2023-10-19T19:38:49.723Z</time>
      </trkpt>
      <trkpt lat="48.785689" lon="2.058479">
        <ele>165.357871</ele>
        <time>2023-10-19T19:38:51.122Z</time>
      </trkpt>
      <trkpt lat="48.785638" lon="2.058655">
        <ele>165.258532</ele>
        <time>2023-10-19T19:38:52.765Z</time>
      </trkpt>
      <trkpt lat="48.785423" lon="2.058892">
        <ele>164.995288</ele>
        <time>2023-10-19T19:38:56.195Z</time>
      </trkpt>
      <trkpt lat="48.785179" lon="2.059171">
        <ele>164.692641</ele>
        <time>2023-10-19T19:39:00.032Z</time>
      </trkpt>
      <trkpt lat="48.785061" lon="2.059302">
        <ele>164.547806</ele>
        <time>2023-10-19T19:39:01.883Z</time>
      </trkpt>
      <trkpt lat="48.785020" lon="2.059410">
        <ele>164.466446</ele>
        <time>2023-10-19T19:39:02.844Z</time>
      </trkpt>
      <trkpt lat="48.785011" lon="2.059593">
        <ele>164.346663</ele>
        <time>2023-10-19T19:39:04.277Z</time>
      </trkpt>
      <trkpt lat="48.784968" lon="2.059746">
        <ele>164.238089</ele>
        <time>2023-10-19T19:39:05.629Z</time>
      </trkpt>
      <trkpt lat="48.784897" lon="2.059885">
        <ele>164.123287</ele>
        <time>2023-10-19T19:39:06.952Z</time>
      </trkpt>
      <trkpt lat="48.784600" lon="2.060231">
        <ele>163.752372</ele>
        <time>2023-10-19T19:39:11.471Z</time>
      </trkpt>
      <trkpt lat="48.784430" lon="2.060429">
        <ele>163.540082</ele>
        <time>2023-10-19T19:39:14.107Z</time>
      </trkpt>
      <trkpt lat="48.783762" lon="2.061205">
        <ele>162.385160</ele>
        <time>2023-10-19T19:39:24.069Z</time>
      </trkpt>
      <trkpt lat="48.783679" lon="2.061252">
        <ele>162.263033</ele>
        <time>2023-10-19T19:39:25.065Z</time>
      </trkpt>
      <trkpt lat="48.783512" lon="2.061202">
        <ele>162.028372</ele>
        <time>2023-10-19T19:39:27.071Z</time>
      </trkpt>
      <trkpt lat="48.783392" lon="2.061229">
        <ele>161.861134</ele>
        <time>2023-10-19T19:39:28.412Z</time>
      </trkpt>
      <trkpt lat="48.783221" lon="2.061375">
        <ele>161.590652</ele>
        <time>2023-10-19T19:39:30.652Z</time>
      </trkpt>
      <trkpt lat="48.783098" lon="2.061397">
        <ele>161.419912</ele>
        <time>2023-10-19T19:39:32.023Z</time>
      </trkpt>
      <trkpt lat="48.782729" lon="2.061312">
        <ele>160.896059</ele>
        <time>2023-10-19T19:39:36.258Z</time>
      </trkpt>
      <trkpt lat="48.782343" lon="2.061152">
        <ele>160.308424</ele>
        <time>2023-10-19T19:39:41.097Z</time>
      </trkpt>
      <trkpt lat="48.781375" lon="2.060678">
        <ele>158.814674</ele>
        <time>2023-10-19T19:39:53.451Z</time>
      </trkpt>
      <trkpt lat="48.781036" lon="2.060497">
        <ele>158.097582</ele>
        <time>2023-10-19T19:39:57.334Z</time>
      </trkpt>
      <trkpt lat="48.781029" lon="2.060495">
        <ele>158.070610</ele>
        <time>2023-10-19T19:39:57.408Z</time>
      </trkpt>
      <trkpt lat="48.780612" lon="2.060392">
        <ele>156.470776</ele>
        <time>2023-10-19T19:40:01.781Z</time>
      </trkpt>
      <trkpt lat="48.780455" lon="2.060384">
        <ele>155.875929</ele>
        <time>2023-10-19T19:40:03.368Z</time>
      </trkpt>
      <trkpt lat="48.778896" lon="2.060526">
        <ele>150.339408</ele>
        <time>2023-10-19T19:40:18.254Z</time>
      </trkpt>
      <trkpt lat="48.778039" lon="2.060443">
        <ele>147.838963</ele>
        <time>2023-10-19T19:40:26.875Z</time>
      </trkpt>
      <trkpt lat="48.776858" lon="2.059947">
        <ele>146.874340</ele>
        <time>2023-10-19T19:40:42.613Z</time>
      </trkpt>
      <trkpt lat="48.776596" lon="2.059783">
        <ele>147.078139</ele>
        <time>2023-10-19T19:40:48.109Z</time>
      </trkpt>
      <trkpt lat="48.776553" lon="2.059729">
        <ele>147.118275</ele>
        <time>2023-10-19T19:40:49.386Z</time>
      </trkpt>
      <trkpt lat="48.776544" lon="2.059683">
        <ele>147.141014</ele>
        <time>2023-10-19T19:40:50.108Z</time>
      </trkpt>
      <trkpt lat="48.776462" lon="2.059631">
        <ele>147.204920</ele>
        <time>2023-10-19T19:40:52.060Z</time>
      </trkpt>
      <trkpt lat="48.776428" lon="2.059647">
        <ele>147.230518</ele>
        <time>2023-10-19T19:40:52.835Z</time>
      </trkpt>
      <trkpt lat="48.776412" lon="2.059706">
        <ele>147.260751</ele>
        <time>2023-10-19T19:40:53.740Z</time>
      </trkpt>
      <trkpt lat="48.776317" lon="2.060053">
        <ele>147.438812</ele>
        <time>2023-10-19T19:40:59.355Z</time>
      </trkpt>
      <trkpt lat="48.776297" lon="2.060127">
        <ele>147.476713</ele>
        <time>2023-10-19T19:41:00.500Z</time>
      </trkpt>
      <trkpt lat="48.776304" lon="2.060189">
        <ele>147.506522</ele>
        <time>2023-10-19T19:41:01.387Z</time>
      </trkpt>
      <trkpt lat="48.776286" lon="2.060301">
        <ele>147.561151</ele>
        <time>2023-10-19T19:41:03.048Z</time>
      </trkpt>
      <trkpt lat="48.776214" lon="2.060551">
        <ele>147.791899</ele>
        <time>2023-10-19T19:41:07.302Z</time>
      </trkpt>
      <trkpt lat="48.775819" lon="2.061204">
        <ele>149.323753</ele>
        <time>2023-10-19T19:41:21.027Z</time>
      </trkpt>
      <trkpt lat="48.775702" lon="2.061410">
        <ele>149.793740</ele>
        <time>2023-10-19T19:41:25.488Z</time>
      </trkpt>
      <trkpt lat="48.775364" lon="2.062038">
        <ele>151.195029</ele>
        <time>2023-10-19T19:41:39.211Z</time>
      </trkpt>
      <trkpt lat="48.774920" lon="2.062906">
        <ele>153.104225</ele>
        <time>2023-10-19T19:41:59.707Z</time>
      </trkpt>
      <trkpt lat="48.774478" lon="2.063771">
        <ele>155.022577</ele>
        <time>2023-10-19T19:42:18.886Z</time>
      </trkpt>
      <trkpt lat="48.774365" lon="2.063964">
        <ele>155.475048</ele>
        <time>2023-10-19T19:42:23.388Z</time>
      </trkpt>
      <trkpt lat="48.774334" lon="2.064076">
        <ele>155.687954</ele>
        <time>2023-10-19T19:42:25.448Z</time>
      </trkpt>
      <trkpt lat="48.774291" lon="2.064099">
        <ele>155.809207</ele>
        <time>2023-10-19T19:42:26.525Z</time>
      </trkpt>
      <trkpt lat="48.774259" lon="2.064148">
        <ele>155.930110</ele>
        <time>2023-10-19T19:42:27.594Z</time>
      </trkpt>
      <trkpt lat="48.774245" lon="2.064206">
        <ele>156.038368</ele>
        <time>2023-10-19T19:42:28.581Z</time>
      </trkpt>
      <trkpt lat="48.774265" lon="2.064322">
        <ele>156.248517</ele>
        <time>2023-10-19T19:42:30.633Z</time>
      </trkpt>
      <trkpt lat="48.774227" lon="2.064440">
        <ele>156.478700</ele>
        <time>2023-10-19T19:42:32.795Z</time>
      </trkpt>
      <trkpt lat="48.774163" lon="2.064573">
        <ele>156.767329</ele>
        <time>2023-10-19T19:42:35.360Z</time>
      </trkpt>
      <trkpt lat="48.773898" lon="2.065045">
        <ele>157.373826</ele>
        <time>2023-10-19T19:42:44.205Z</time>
      </trkpt>
      <trkpt lat="48.773661" lon="2.065510">
        <ele>157.698997</ele>
        <time>2023-10-19T19:42:51.645Z</time>
      </trkpt>
      <trkpt lat="48.773627" lon="2.065574">
        <ele>157.744469</ele>
        <time>2023-10-19T19:42:52.689Z</time>
      </trkpt>
      <trkpt lat="48.773566" lon="2.065702">
        <ele>157.831848</ele>
        <time>2023-10-19T19:42:54.646Z</time>
      </trkpt>
      <trkpt lat="48.773261" lon="2.066308">
        <ele>158.253643</ele>
        <time>2023-10-19T19:43:03.174Z</time>
      </trkpt>
      <trkpt lat="48.773145" lon="2.066537">
        <ele>158.413414</ele>
        <time>2023-10-19T19:43:05.957Z</time>
      </trkpt>
      <trkpt lat="48.772867" lon="2.067095">
        <ele>158.702556</ele>
        <time>2023-10-19T19:43:12.736Z</time>
      </trkpt>
      <trkpt lat="48.772444" lon="2.067899">
        <ele>158.869200</ele>
        <time>2023-10-19T19:43:23.368Z</time>
      </trkpt>
      <trkpt lat="48.772404" lon="2.067862">
        <ele>158.880714</ele>
        <time>2023-10-19T19:43:24.076Z</time>
      </trkpt>
      <trkpt lat="48.772357" lon="2.067870">
        <ele>158.892339</ele>
        <time>2023-10-19T19:43:24.861Z</time>
      </trkpt>
      <trkpt lat="48.772317" lon="2.067955">
        <ele>158.909257</ele>
        <time>2023-10-19T19:43:25.984Z</time>
      </trkpt>
      <trkpt lat="48.772337" lon="2.068047">
        <ele>158.924949</ele>
        <time>2023-10-19T19:43:26.932Z</time>
      </trkpt>
      <trkpt lat="48.772418" lon="2.068070">
        <ele>158.945204</ele>
        <time>2023-10-19T19:43:28.118Z</time>
      </trkpt>
      <trkpt lat="48.772467" lon="2.068185">
        <ele>158.967386</ele>
        <time>2023-10-19T19:43:29.405Z</time>
      </trkpt>
      <trkpt lat="48.772692" lon="2.068727">
        <ele>159.071146</ele>
        <time>2023-10-19T19:43:36.262Z</time>
      </trkpt>
      <trkpt lat="48.772700" lon="2.068821">
        <ele>159.086499</ele>
        <time>2023-10-19T19:43:37.409Z</time>
      </trkpt>
      <trkpt lat="48.772699" lon="2.069024">
        <ele>159.118865</ele>
        <time>2023-10-19T19:43:39.737Z</time>
      </trkpt>
      <trkpt lat="48.772590" lon="2.069336">
        <ele>159.174124</ele>
        <time>2023-10-19T19:43:43.891Z</time>
      </trkpt>
      <trkpt lat="48.772434" lon="2.069569">
        <ele>159.226099</ele>
        <time>2023-10-19T19:43:47.504Z</time>
      </trkpt>
      <trkpt lat="48.771972" lon="2.069968">
        <ele>159.352321</ele>
        <time>2023-10-19T19:43:55.789Z</time>
      </trkpt>
      <trkpt lat="48.771945" lon="2.069988">
        <ele>159.359455</ele>
        <time>2023-10-19T19:43:56.275Z</time>
      </trkpt>
      <trkpt lat="48.771809" lon="2.070097">
        <ele>159.395975</ele>
        <time>2023-10-19T19:43:58.540Z</time>
      </trkpt>
      <trkpt lat="48.771738" lon="2.070167">
        <ele>159.416080</ele>
        <time>2023-10-19T19:43:59.771Z</time>
      </trkpt>
      <trkpt lat="48.771588" lon="2.070291">
        <ele>159.456639</ele>
        <time>2023-10-19T19:44:02.364Z</time>
      </trkpt>
      <trkpt lat="48.771336" lon="2.070566">
        <ele>159.530342</ele>
        <time>2023-10-19T19:44:07.123Z</time>
      </trkpt>
      <trkpt lat="48.770854" lon="2.070979">
        <ele>159.533285</ele>
        <time>2023-10-19T19:44:15.472Z</time>
      </trkpt>
      <trkpt lat="48.770755" lon="2.071103">
        <ele>159.533770</ele>
        <time>2023-10-19T19:44:17.418Z</time>
      </trkpt>
      <trkpt lat="48.770529" lon="2.071854">
        <ele>159.535826</ele>
        <time>2023-10-19T19:44:25.213Z</time>
      </trkpt>
      <trkpt lat="48.770350" lon="2.072477">
        <ele>159.537519</ele>
        <time>2023-10-19T19:44:31.780Z</time>
      </trkpt>
      <trkpt lat="48.769978" lon="2.073768">
        <ele>159.738527</ele>
        <time>2023-10-19T19:44:45.941Z</time>
      </trkpt>
      <trkpt lat="48.769748" lon="2.074617">
        <ele>159.890109</ele>
        <time>2023-10-19T19:44:56.319Z</time>
      </trkpt>
      <trkpt lat="48.769673" lon="2.074880">
        <ele>159.937431</ele>
        <time>2023-10-19T19:44:59.229Z</time>
      </trkpt>
      <trkpt lat="48.769549" lon="2.074997">
        <ele>159.974017</ele>
        <time>2023-10-19T19:45:01.726Z</time>
      </trkpt>
      <trkpt lat="48.769337" lon="2.075087">
        <ele>159.982306</ele>
        <time>2023-10-19T19:45:05.093Z</time>
      </trkpt>
      <trkpt lat="48.769210" lon="2.075088">
        <ele>159.977316</ele>
        <time>2023-10-19T19:45:07.205Z</time>
      </trkpt>
      <trkpt lat="48.769135" lon="2.075020">
        <ele>159.973883</ele>
        <time>2023-10-19T19:45:08.510Z</time>
      </trkpt>
      <trkpt lat="48.769049" lon="2.075037">
        <ele>159.970475</ele>
        <time>2023-10-19T19:45:09.746Z</time>
      </trkpt>
      <trkpt lat="48.769013" lon="2.075077">
        <ele>159.968722</ele>
        <time>2023-10-19T19:45:10.428Z</time>
      </trkpt>
      <trkpt lat="48.768976" lon="2.075198">
        <ele>159.965267</ele>
        <time>2023-10-19T19:45:11.837Z</time>
      </trkpt>
      <trkpt lat="48.768998" lon="2.075328">
        <ele>159.961792</ele>
        <time>2023-10-19T19:45:13.279Z</time>
      </trkpt>
      <trkpt lat="48.769061" lon="2.075404">
        <ele>159.958629</ele>
        <time>2023-10-19T19:45:14.447Z</time>
      </trkpt>
      <trkpt lat="48.769178" lon="2.075386">
        <ele>159.954008</ele>
        <time>2023-10-19T19:45:16.112Z</time>
      </trkpt>
      <trkpt lat="48.769350" lon="2.075965">
        <ele>159.937561</ele>
        <time>2023-10-19T19:45:22.043Z</time>
      </trkpt>
      <trkpt lat="48.769442" lon="2.076251">
        <ele>159.929319</ele>
        <time>2023-10-19T19:45:24.960Z</time>
      </trkpt>
      <trkpt lat="48.769691" lon="2.076994">
        <ele>159.886069</ele>
        <time>2023-10-19T19:45:32.499Z</time>
      </trkpt>
      <trkpt lat="48.769751" lon="2.077173">
        <ele>159.869880</ele>
        <time>2023-10-19T19:45:34.426Z</time>
      </trkpt>
      <trkpt lat="48.770131" lon="2.078285">
        <ele>159.768904</ele>
        <time>2023-10-19T19:45:46.125Z</time>
      </trkpt>
      <trkpt lat="48.770243" lon="2.078613">
        <ele>159.739125</ele>
        <time>2023-10-19T19:45:49.710Z</time>
      </trkpt>
      <trkpt lat="48.770261" lon="2.078679">
        <ele>159.733367</ele>
        <time>2023-10-19T19:45:50.370Z</time>
      </trkpt>
      <trkpt lat="48.770269" lon="2.078789">
        <ele>159.724446</ele>
        <time>2023-10-19T19:45:51.411Z</time>
      </trkpt>
      <trkpt lat="48.770381" lon="2.079033">
        <ele>159.700476</ele>
        <time>2023-10-19T19:45:54.362Z</time>
      </trkpt>
      <trkpt lat="48.770489" lon="2.079346">
        <ele>159.740276</ele>
        <time>2023-10-19T19:45:57.814Z</time>
      </trkpt>
      <trkpt lat="48.770514" lon="2.079418">
        <ele>159.750948</ele>
        <time>2023-10-19T19:45:58.614Z</time>
      </trkpt>
      <trkpt lat="48.770604" lon="2.079709">
        <ele>159.793098</ele>
        <time>2023-10-19T19:46:01.743Z</time>
      </trkpt>
      <trkpt lat="48.770638" lon="2.079776">
        <ele>159.804186</ele>
        <time>2023-10-19T19:46:02.542Z</time>
      </trkpt>
      <trkpt lat="48.770768" lon="2.079988">
        <ele>159.842156</ele>
        <time>2023-10-19T19:46:05.434Z</time>
      </trkpt>
      <trkpt lat="48.770789" lon="2.080020">
        <ele>159.848078</ele>
        <time>2023-10-19T19:46:05.922Z</time>
      </trkpt>
      <trkpt lat="48.771012" lon="2.080297">
        <ele>159.905416</ele>
        <time>2023-10-19T19:46:10.503Z</time>
      </trkpt>
      <trkpt lat="48.771299" lon="2.080750">
        <ele>159.987811</ele>
        <time>2023-10-19T19:46:17.454Z</time>
      </trkpt>
      <trkpt lat="48.771366" lon="2.080856">
        <ele>160.007069</ele>
        <time>2023-10-19T19:46:19.235Z</time>
      </trkpt>
      <trkpt lat="48.771342" lon="2.080962">
        <ele>160.021765</ele>
        <time>2023-10-19T19:46:20.427Z</time>
      </trkpt>
      <trkpt lat="48.771366" lon="2.081033">
        <ele>160.032228</ele>
        <time>2023-10-19T19:46:21.325Z</time>
      </trkpt>
      <trkpt lat="48.771312" lon="2.081151">
        <ele>160.051065</ele>
        <time>2023-10-19T19:46:22.795Z</time>
      </trkpt>
      <trkpt lat="48.771149" lon="2.081530">
        <ele>160.105636</ele>
        <time>2023-10-19T19:46:27.462Z</time>
      </trkpt>
      <trkpt lat="48.771009" lon="2.081875">
        <ele>160.154116</ele>
        <time>2023-10-19T19:46:31.359Z</time>
      </trkpt>
      <trkpt lat="48.770971" lon="2.081972">
        <ele>160.167619</ele>
        <time>2023-10-19T19:46:32.479Z</time>
      </trkpt>
      <trkpt lat="48.770877" lon="2.082036">
        <ele>160.186325</ele>
        <time>2023-10-19T19:46:33.939Z</time>
      </trkpt>
      <trkpt lat="48.770792" lon="2.082086">
        <ele>160.202876</ele>
        <time>2023-10-19T19:46:35.344Z</time>
      </trkpt>
      <trkpt lat="48.770722" lon="2.082174">
        <ele>160.219381</ele>
        <time>2023-10-19T19:46:36.629Z</time>
      </trkpt>
      <trkpt lat="48.770670" lon="2.082302">
        <ele>160.237373</ele>
        <time>2023-10-19T19:46:38.099Z</time>
      </trkpt>
      <trkpt lat="48.770650" lon="2.082449">
        <ele>160.255334</ele>
        <time>2023-10-19T19:46:39.555Z</time>
      </trkpt>
      <trkpt lat="48.770663" lon="2.082598">
        <ele>160.273319</ele>
        <time>2023-10-19T19:46:41.135Z</time>
      </trkpt>
      <trkpt lat="48.770761" lon="2.082811">
        <ele>160.304403</ele>
        <time>2023-10-19T19:46:43.691Z</time>
      </trkpt>
      <trkpt lat="48.770896" lon="2.082898">
        <ele>160.331033</ele>
        <time>2023-10-19T19:46:45.953Z</time>
      </trkpt>
      <trkpt lat="48.770969" lon="2.082900">
        <ele>160.344289</ele>
        <time>2023-10-19T19:46:47.137Z</time>
      </trkpt>
      <trkpt lat="48.771064" lon="2.082860">
        <ele>160.362189</ele>
        <time>2023-10-19T19:46:48.779Z</time>
      </trkpt>
      <trkpt lat="48.771144" lon="2.082774">
        <ele>160.379989</ele>
        <time>2023-10-19T19:46:50.443Z</time>
      </trkpt>
      <trkpt lat="48.771317" lon="2.082755">
        <ele>160.498268</ele>
        <time>2023-10-19T19:46:53.369Z</time>
      </trkpt>
      <trkpt lat="48.772276" lon="2.083169">
        <ele>161.219544</ele>
        <time>2023-10-19T19:47:10.669Z</time>
      </trkpt>
      <trkpt lat="48.772529" lon="2.083360">
        <ele>161.423967</ele>
        <time>2023-10-19T19:47:15.834Z</time>
      </trkpt>
      <trkpt lat="48.772740" lon="2.083572">
        <ele>161.607035</ele>
        <time>2023-10-19T19:47:20.674Z</time>
      </trkpt>
      <trkpt lat="48.772957" lon="2.083867">
        <ele>161.788509</ele>
        <time>2023-10-19T19:47:26.357Z</time>
      </trkpt>
      <trkpt lat="48.773134" lon="2.084154">
        <ele>161.935018</ele>
        <time>2023-10-19T19:47:31.311Z</time>
      </trkpt>
      <trkpt lat="48.773274" lon="2.084461">
        <ele>162.074171</ele>
        <time>2023-10-19T19:47:35.978Z</time>
      </trkpt>
      <trkpt lat="48.773435" lon="2.084956">
        <ele>162.279919</ele>
        <time>2023-10-19T19:47:42.686Z</time>
      </trkpt>
      <trkpt lat="48.773577" lon="2.085536">
        <ele>162.510539</ele>
        <time>2023-10-19T19:47:49.742Z</time>
      </trkpt>
      <trkpt lat="48.774411" lon="2.089470">
        <ele>161.301169</ele>
        <time>2023-10-19T19:48:25.581Z</time>
      </trkpt>
      <trkpt lat="48.774411" lon="2.089474">
        <ele>161.298905</ele>
        <time>2023-10-19T19:48:25.612Z</time>
      </trkpt>
      <trkpt lat="48.774721" lon="2.090484">
        <ele>160.668319</ele>
        <time>2023-10-19T19:48:34.345Z</time>
      </trkpt>
      <trkpt lat="48.774677" lon="2.090534">
        <ele>160.621110</ele>
        <time>2023-10-19T19:48:35.034Z</time>
      </trkpt>
      <trkpt lat="48.774658" lon="2.090556">
        <ele>160.600585</ele>
        <time>2023-10-19T19:48:35.332Z</time>
      </trkpt>
      <trkpt lat="48.774380" lon="2.092043">
        <ele>160.119383</ele>
        <time>2023-10-19T19:48:48.030Z</time>
      </trkpt>
      <trkpt lat="48.774300" lon="2.092452">
        <ele>160.055220</ele>
        <time>2023-10-19T19:48:51.907Z</time>
      </trkpt>
      <trkpt lat="48.774207" lon="2.092894">
        <ele>159.985441</ele>
        <time>2023-10-19T19:48:56.590Z</time>
      </trkpt>
      <trkpt lat="48.773936" lon="2.094023">
        <ele>159.949661</ele>
        <time>2023-10-19T19:49:09.107Z</time>
      </trkpt>
      <trkpt lat="48.773723" lon="2.094994">
        <ele>160.274098</ele>
        <time>2023-10-19T19:49:21.099Z</time>
      </trkpt>
      <trkpt lat="48.773518" lon="2.095736">
        <ele>160.529167</ele>
        <time>2023-10-19T19:49:30.295Z</time>
      </trkpt>
      <trkpt lat="48.771158" lon="2.102764">
        <ele>161.411059</ele>
        <time>2023-10-19T19:50:50.625Z</time>
      </trkpt>
      <trkpt lat="48.771158" lon="2.102764">
        <ele>161.411059</ele>
        <time>2023-10-19T19:50:50.627Z</time>
      </trkpt>
      <trkpt lat="48.771059" lon="2.103153">
        <ele>161.433177</ele>
        <time>2023-10-19T19:50:54.795Z</time>
      </trkpt>
      <trkpt lat="48.771002" lon="2.103565">
        <ele>161.455506</ele>
        <time>2023-10-19T19:50:58.848Z</time>
      </trkpt>
      <trkpt lat="48.770920" lon="2.104598">
        <ele>161.237065</ele>
        <time>2023-10-19T19:51:08.654Z</time>
      </trkpt>
      <trkpt lat="48.770845" lon="2.105147">
        <ele>161.111454</ele>
        <time>2023-10-19T19:51:13.875Z</time>
      </trkpt>
      <trkpt lat="48.770753" lon="2.105593">
        <ele>161.006753</ele>
        <time>2023-10-19T19:51:18.092Z</time>
      </trkpt>
      <trkpt lat="48.770820" lon="2.105646">
        <ele>160.981069</ele>
        <time>2023-10-19T19:51:19.072Z</time>
      </trkpt>
      <trkpt lat="48.770781" lon="2.106249">
        <ele>160.842429</ele>
        <time>2023-10-19T19:51:24.249Z</time>
      </trkpt>
      <trkpt lat="48.770722" lon="2.107027">
        <ele>160.344675</ele>
        <time>2023-10-19T19:51:30.762Z</time>
      </trkpt>
      <trkpt lat="48.770706" lon="2.108891">
        <ele>159.159829</ele>
        <time>2023-10-19T19:51:45.520Z</time>
      </trkpt>
      <trkpt lat="48.770677" lon="2.110292">
        <ele>158.417009</ele>
        <time>2023-10-19T19:51:56.989Z</time>
      </trkpt>
      <trkpt lat="48.770650" lon="2.110754">
        <ele>158.173972</ele>
        <time>2023-10-19T19:52:00.921Z</time>
      </trkpt>
      <trkpt lat="48.770602" lon="2.111386">
        <ele>157.840614</ele>
        <time>2023-10-19T19:52:06.294Z</time>
      </trkpt>
      <trkpt lat="48.770493" lon="2.112554">
        <ele>157.461114</ele>
        <time>2023-10-19T19:52:16.325Z</time>
      </trkpt>
      <trkpt lat="48.770416" lon="2.113065">
        <ele>157.328981</ele>
        <time>2023-10-19T19:52:20.837Z</time>
      </trkpt>
      <trkpt lat="48.770377" lon="2.113268">
        <ele>157.275681</ele>
        <time>2023-10-19T19:52:22.742Z</time>
      </trkpt>
      <trkpt lat="48.769969" lon="2.115250">
        <ele>157.089062</ele>
        <time>2023-10-19T19:52:42.262Z</time>
      </trkpt>
      <trkpt lat="48.769792" lon="2.116078">
        <ele>157.174831</ele>
        <time>2023-10-19T19:52:51.101Z</time>
      </trkpt>
      <trkpt lat="48.769691" lon="2.116563">
        <ele>157.224948</ele>
        <time>2023-10-19T19:52:56.550Z</time>
      </trkpt>
      <trkpt lat="48.769345" lon="2.118311">
        <ele>157.227135</ele>
        <time>2023-10-19T19:53:17.289Z</time>
      </trkpt>
      <trkpt lat="48.769134" lon="2.119415">
        <ele>157.198177</ele>
        <time>2023-10-19T19:53:27.407Z</time>
      </trkpt>
      <trkpt lat="48.769068" lon="2.119637">
        <ele>157.094216</ele>
        <time>2023-10-19T19:53:29.370Z</time>
      </trkpt>
      <trkpt lat="48.769010" lon="2.119614">
        <ele>157.002836</ele>
        <time>2023-10-19T19:53:30.115Z</time>
      </trkpt>
      <trkpt lat="48.768978" lon="2.119660">
        <ele>156.935641</ele>
        <time>2023-10-19T19:53:30.650Z</time>
      </trkpt>
      <trkpt lat="48.769016" lon="2.119893">
        <ele>156.694492</ele>
        <time>2023-10-19T19:53:32.554Z</time>
      </trkpt>
      <trkpt lat="48.769049" lon="2.119924">
        <ele>156.635328</ele>
        <time>2023-10-19T19:53:33.000Z</time>
      </trkpt>
      <trkpt lat="48.769030" lon="2.120430">
        <ele>156.126139</ele>
        <time>2023-10-19T19:53:36.903Z</time>
      </trkpt>
      <trkpt lat="48.769009" lon="2.120926">
        <ele>155.626793</ele>
        <time>2023-10-19T19:53:40.616Z</time>
      </trkpt>
      <trkpt lat="48.768991" lon="2.121313">
        <ele>155.237017</ele>
        <time>2023-10-19T19:53:43.470Z</time>
      </trkpt>
      <trkpt lat="48.768985" lon="2.121533">
        <ele>155.015800</ele>
        <time>2023-10-19T19:53:45.122Z</time>
      </trkpt>
      <trkpt lat="48.768942" lon="2.122590">
        <ele>153.898149</ele>
        <time>2023-10-19T19:53:52.761Z</time>
      </trkpt>
      <trkpt lat="48.768909" lon="2.123426">
        <ele>152.966569</ele>
        <time>2023-10-19T19:53:58.726Z</time>
      </trkpt>
      <trkpt lat="48.768883" lon="2.124096">
        <ele>152.220012</ele>
        <time>2023-10-19T19:54:03.780Z</time>
      </trkpt>
      <trkpt lat="48.768864" lon="2.124536">
        <ele>151.729534</ele>
        <time>2023-10-19T19:54:07.145Z</time>
      </trkpt>
      <trkpt lat="48.768854" lon="2.124831">
        <ele>151.413770</ele>
        <time>2023-10-19T19:54:09.439Z</time>
      </trkpt>
      <trkpt lat="48.768842" lon="2.125150">
        <ele>151.336338</ele>
        <time>2023-10-19T19:54:12.028Z</time>
      </trkpt>
      <trkpt lat="48.768838" lon="2.125278">
        <ele>151.305284</ele>
        <time>2023-10-19T19:54:13.075Z</time>
      </trkpt>
      <trkpt lat="48.768832" lon="2.125463">
        <ele>151.260398</ele>
        <time>2023-10-19T19:54:14.610Z</time>
      </trkpt>
      <trkpt lat="48.768778" lon="2.127034">
        <ele>150.879167</ele>
        <time>2023-10-19T19:54:29.076Z</time>
      </trkpt>
      <trkpt lat="48.768743" lon="2.127930">
        <ele>150.670308</ele>
        <time>2023-10-19T19:54:38.499Z</time>
      </trkpt>
      <trkpt lat="48.768743" lon="2.127931">
        <ele>150.670088</ele>
        <time>2023-10-19T19:54:38.506Z</time>
      </trkpt>
      <trkpt lat="48.768760" lon="2.128152">
        <ele>150.621115</ele>
        <time>2023-10-19T19:54:40.798Z</time>
      </trkpt>
      <trkpt lat="48.768777" lon="2.128286">
        <ele>150.591080</ele>
        <time>2023-10-19T19:54:42.244Z</time>
      </trkpt>
      <trkpt lat="48.768804" lon="2.128437">
        <ele>150.556643</ele>
        <time>2023-10-19T19:54:43.984Z</time>
      </trkpt>
      <trkpt lat="48.768830" lon="2.128553">
        <ele>150.529675</ele>
        <time>2023-10-19T19:54:45.250Z</time>
      </trkpt>
      <trkpt lat="48.768854" lon="2.128876">
        <ele>150.458131</ele>
        <time>2023-10-19T19:54:48.613Z</time>
      </trkpt>
      <trkpt lat="48.768833" lon="2.128983">
        <ele>150.433558</ele>
        <time>2023-10-19T19:54:49.857Z</time>
      </trkpt>
      <trkpt lat="48.768874" lon="2.129084">
        <ele>150.407449</ele>
        <time>2023-10-19T19:54:51.059Z</time>
      </trkpt>
      <trkpt lat="48.768949" lon="2.129103">
        <ele>150.382056</ele>
        <time>2023-10-19T19:54:52.200Z</time>
      </trkpt>
      <trkpt lat="48.768993" lon="2.129062">
        <ele>150.364813</ele>
        <time>2023-10-19T19:54:52.959Z</time>
      </trkpt>
      <trkpt lat="48.769386" lon="2.129252">
        <ele>150.227070</ele>
        <time>2023-10-19T19:54:58.998Z</time>
      </trkpt>
      <trkpt lat="48.770303" lon="2.130072">
        <ele>146.280583</ele>
        <time>2023-10-19T19:55:10.341Z</time>
      </trkpt>
      <trkpt lat="48.770428" lon="2.130254">
        <ele>145.490540</ele>
        <time>2023-10-19T19:55:11.960Z</time>
      </trkpt>
      <trkpt lat="48.770525" lon="2.130479">
        <ele>144.682461</ele>
        <time>2023-10-19T19:55:13.586Z</time>
      </trkpt>
      <trkpt lat="48.770773" lon="2.131228">
        <ele>142.163172</ele>
        <time>2023-10-19T19:55:18.522Z</time>
      </trkpt>
      <trkpt lat="48.770852" lon="2.131406">
        <ele>141.354327</ele>
        <time>2023-10-19T19:55:19.786Z</time>
      </trkpt>
      <trkpt lat="48.771090" lon="2.131716">
        <ele>139.384898</ele>
        <time>2023-10-19T19:55:22.569Z</time>
      </trkpt>
      <trkpt lat="48.771561" lon="2.132179">
        <ele>135.861225</ele>
        <time>2023-10-19T19:55:27.514Z</time>
      </trkpt>
      <trkpt lat="48.771619" lon="2.132229">
        <ele>135.442386</ele>
        <time>2023-10-19T19:55:28.099Z</time>
      </trkpt>
      <trkpt lat="48.771656" lon="2.132260">
        <ele>135.177010</ele>
        <time>2023-10-19T19:55:28.462Z</time>
      </trkpt>
      <trkpt lat="48.774447" lon="2.133549">
        <ele>122.785875</ele>
        <time>2023-10-19T19:55:57.086Z</time>
      </trkpt>
      <trkpt lat="48.774644" lon="2.133586">
        <ele>122.263038</ele>
        <time>2023-10-19T19:55:59.557Z</time>
      </trkpt>
      <trkpt lat="48.774736" lon="2.133566">
        <ele>122.018246</ele>
        <time>2023-10-19T19:56:00.704Z</time>
      </trkpt>
      <trkpt lat="48.774955" lon="2.133389">
        <ele>121.364703</ele>
        <time>2023-10-19T19:56:03.473Z</time>
      </trkpt>
      <trkpt lat="48.775049" lon="2.133273">
        <ele>121.045578</ele>
        <time>2023-10-19T19:56:04.828Z</time>
      </trkpt>
      <trkpt lat="48.775250" lon="2.132852">
        <ele>120.143196</ele>
        <time>2023-10-19T19:56:08.509Z</time>
      </trkpt>
      <trkpt lat="48.775903" lon="2.130692">
        <ele>116.698836</ele>
        <time>2023-10-19T19:56:24.472Z</time>
      </trkpt>
      <trkpt lat="48.775954" lon="2.130484">
        <ele>116.398684</ele>
        <time>2023-10-19T19:56:25.960Z</time>
      </trkpt>
      <trkpt lat="48.776006" lon="2.130434">
        <ele>116.272345</ele>
        <time>2023-10-19T19:56:26.630Z</time>
      </trkpt>
      <trkpt lat="48.775993" lon="2.130360">
        <ele>116.168768</ele>
        <time>2023-10-19T19:56:27.186Z</time>
      </trkpt>
      <trkpt lat="48.776186" lon="2.129990">
        <ele>115.530571</ele>
        <time>2023-10-19T19:56:30.969Z</time>
      </trkpt>
      <trkpt lat="48.776275" lon="2.129872">
        <ele>115.703969</ele>
        <time>2023-10-19T19:56:32.874Z</time>
      </trkpt>
      <trkpt lat="48.776472" lon="2.129689">
        <ele>116.860453</ele>
        <time>2023-10-19T19:56:37.066Z</time>
      </trkpt>
      <trkpt lat="48.776608" lon="2.129646">
        <ele>117.556005</ele>
        <time>2023-10-19T19:56:40.317Z</time>
      </trkpt>
      <trkpt lat="48.777986" lon="2.129558">
        <ele>124.476306</ele>
        <time>2023-10-19T19:57:36.932Z</time>
      </trkpt>
      <trkpt lat="48.778151" lon="2.129610">
        <ele>125.585265</ele>
        <time>2023-10-19T19:57:45.257Z</time>
      </trkpt>
      <trkpt lat="48.778318" lon="2.129726">
        <ele>126.793870</ele>
        <time>2023-10-19T19:57:54.345Z</time>
      </trkpt>
      <trkpt lat="48.778412" lon="2.129834">
        <ele>127.569735</ele>
        <time>2023-10-19T19:58:00.077Z</time>
      </trkpt>
      <trkpt lat="48.778838" lon="2.130475">
        <ele>131.517502</ele>
        <time>2023-10-19T19:58:27.523Z</time>
      </trkpt>
      <trkpt lat="48.778929" lon="2.130573">
        <ele>132.251798</ele>
        <time>2023-10-19T19:58:32.476Z</time>
      </trkpt>
      <trkpt lat="48.779255" lon="2.130800">
        <ele>134.612112</ele>
        <time>2023-10-19T19:58:46.290Z</time>
      </trkpt>
      <trkpt lat="48.780257" lon="2.131522">
        <ele>138.381862</ele>
        <time>2023-10-19T19:59:18.406Z</time>
      </trkpt>
      <trkpt lat="48.780413" lon="2.131540">
        <ele>138.769491</ele>
        <time>2023-10-19T19:59:21.366Z</time>
      </trkpt>
      <trkpt lat="48.780760" lon="2.131469">
        <ele>139.637013</ele>
        <time>2023-10-19T19:59:28.259Z</time>
      </trkpt>
      <trkpt lat="48.780884" lon="2.131511">
        <ele>139.951800</ele>
        <time>2023-10-19T19:59:30.753Z</time>
      </trkpt>
      <trkpt lat="48.781597" lon="2.131957">
        <ele>141.672642</ele>
        <time>2023-10-19T19:59:49.707Z</time>
      </trkpt>
      <trkpt lat="48.782668" lon="2.132204">
        <ele>143.915621</ele>
        <time>2023-10-19T20:00:21.041Z</time>
      </trkpt>
      <trkpt lat="48.782773" lon="2.132221">
        <ele>144.134259</ele>
        <time>2023-10-19T20:00:24.480Z</time>
      </trkpt>
      <trkpt lat="48.782882" lon="2.132241">
        <ele>144.361588</ele>
        <time>2023-10-19T20:00:27.532Z</time>
      </trkpt>
      <trkpt lat="48.783569" lon="2.132376">
        <ele>146.470771</ele>
        <time>2023-10-19T20:00:46.545Z</time>
      </trkpt>
      <trkpt lat="48.784236" lon="2.132482">
        <ele>148.545930</ele>
        <time>2023-10-19T20:01:05.590Z</time>
      </trkpt>
      <trkpt lat="48.784344" lon="2.132537">
        <ele>148.898422</ele>
        <time>2023-10-19T20:01:08.854Z</time>
      </trkpt>
      <trkpt lat="48.784549" lon="2.132577">
        <ele>149.537967</ele>
        <time>2023-10-19T20:01:14.465Z</time>
      </trkpt>
      <trkpt lat="48.785186" lon="2.132724">
        <ele>151.403157</ele>
        <time>2023-10-19T20:01:30.909Z</time>
      </trkpt>
      <trkpt lat="48.785586" lon="2.132798">
        <ele>152.545648</ele>
        <time>2023-10-19T20:01:40.768Z</time>
      </trkpt>
      <trkpt lat="48.785863" lon="2.132761">
        <ele>153.334046</ele>
        <time>2023-10-19T20:01:47.873Z</time>
      </trkpt>
      <trkpt lat="48.786123" lon="2.132801">
        <ele>154.074987</ele>
        <time>2023-10-19T20:01:54.594Z</time>
      </trkpt>
      <trkpt lat="48.786189" lon="2.132817">
        <ele>154.264485</ele>
        <time>2023-10-19T20:01:56.519Z</time>
      </trkpt>
      <trkpt lat="48.786294" lon="2.132841">
        <ele>154.565542</ele>
        <time>2023-10-19T20:01:59.413Z</time>
      </trkpt>
      <trkpt lat="48.786806" lon="2.132988">
        <ele>156.326699</ele>
        <time>2023-10-19T20:02:14.006Z</time>
      </trkpt>
      <trkpt lat="48.786859" lon="2.133034">
        <ele>156.551679</ele>
        <time>2023-10-19T20:02:15.886Z</time>
      </trkpt>
      <trkpt lat="48.786995" lon="2.133090">
        <ele>157.070947</ele>
        <time>2023-10-19T20:02:20.037Z</time>
      </trkpt>
      <trkpt lat="48.787000" lon="2.133091">
        <ele>157.089531</ele>
        <time>2023-10-19T20:02:20.173Z</time>
      </trkpt>
      <trkpt lat="48.787123" lon="2.133120">
        <ele>157.548216</ele>
        <time>2023-10-19T20:02:23.703Z</time>
      </trkpt>
      <trkpt lat="48.787458" lon="2.133202">
        <ele>158.798624</ele>
        <time>2023-10-19T20:02:33.947Z</time>
      </trkpt>
      <trkpt lat="48.787602" lon="2.133245">
        <ele>159.339429</ele>
        <time>2023-10-19T20:02:38.426Z</time>
      </trkpt>
      <trkpt lat="48.787679" lon="2.133268">
        <ele>159.628612</ele>
        <time>2023-10-19T20:02:40.781Z</time>
      </trkpt>
      <trkpt lat="48.787808" lon="2.133319">
        <ele>160.119832</ele>
        <time>2023-10-19T20:02:44.924Z</time>
      </trkpt>
      <trkpt lat="48.788143" lon="2.133491">
        <ele>161.423006</ele>
        <time>2023-10-19T20:02:55.993Z</time>
      </trkpt>
      <trkpt lat="48.788430" lon="2.133690">
        <ele>162.112636</ele>
        <time>2023-10-19T20:03:05.818Z</time>
      </trkpt>
      <trkpt lat="48.788702" lon="2.133923">
        <ele>162.631717</ele>
        <time>2023-10-19T20:03:14.973Z</time>
      </trkpt>
      <trkpt lat="48.788751" lon="2.133984">
        <ele>162.737041</ele>
        <time>2023-10-19T20:03:16.841Z</time>
      </trkpt>
      <trkpt lat="48.788771" lon="2.134008">
        <ele>162.779414</ele>
        <time>2023-10-19T20:03:17.567Z</time>
      </trkpt>
      <trkpt lat="48.789451" lon="2.134825">
        <ele>164.220765</ele>
        <time>2023-10-19T20:03:35.837Z</time>
      </trkpt>
      <trkpt lat="48.789917" lon="2.135246">
        <ele>163.630035</ele>
        <time>2023-10-19T20:03:42.291Z</time>
      </trkpt>
      <trkpt lat="48.790164" lon="2.135387">
        <ele>162.467831</ele>
        <time>2023-10-19T20:03:45.041Z</time>
      </trkpt>
      <trkpt lat="48.790338" lon="2.135448">
        <ele>161.681342</ele>
        <time>2023-10-19T20:03:46.816Z</time>
      </trkpt>
      <trkpt lat="48.790866" lon="2.135509">
        <ele>159.349245</ele>
        <time>2023-10-19T20:03:51.822Z</time>
      </trkpt>
      <trkpt lat="48.791004" lon="2.135557">
        <ele>158.725724</ele>
        <time>2023-10-19T20:03:53.122Z</time>
      </trkpt>
      <trkpt lat="48.791568" lon="2.135845">
        <ele>155.629742</ele>
        <time>2023-10-19T20:03:58.464Z</time>
      </trkpt>
      <trkpt lat="48.792621" lon="2.136463">
        <ele>147.217025</ele>
        <time>2023-10-19T20:04:08.451Z</time>
      </trkpt>
      <trkpt lat="48.793273" lon="2.136957">
        <ele>142.245930</ele>
        <time>2023-10-19T20:04:14.955Z</time>
      </trkpt>
      <trkpt lat="48.793566" lon="2.137179">
        <ele>140.504893</ele>
        <time>2023-10-19T20:04:17.943Z</time>
      </trkpt>
      <trkpt lat="48.793880" lon="2.137423">
        <ele>138.629453</ele>
        <time>2023-10-19T20:04:21.224Z</time>
      </trkpt>
      <trkpt lat="48.794031" lon="2.137518">
        <ele>137.760426</ele>
        <time>2023-10-19T20:04:22.790Z</time>
      </trkpt>
      <trkpt lat="48.794072" lon="2.137551">
        <ele>137.513698</ele>
        <time>2023-10-19T20:04:23.239Z</time>
      </trkpt>
      <trkpt lat="48.794261" lon="2.137715">
        <ele>136.356275</ele>
        <time>2023-10-19T20:04:25.320Z</time>
      </trkpt>
      <trkpt lat="48.794439" lon="2.137857">
        <ele>135.287193</ele>
        <time>2023-10-19T20:04:27.265Z</time>
      </trkpt>
      <trkpt lat="48.794515" lon="2.137914">
        <ele>134.836504</ele>
        <time>2023-10-19T20:04:28.076Z</time>
      </trkpt>
      <trkpt lat="48.794576" lon="2.137966">
        <ele>134.464552</ele>
        <time>2023-10-19T20:04:28.752Z</time>
      </trkpt>
      <trkpt lat="48.794606" lon="2.137992">
        <ele>134.280890</ele>
        <time>2023-10-19T20:04:29.082Z</time>
      </trkpt>
      <trkpt lat="48.794816" lon="2.138182">
        <ele>133.348201</ele>
        <time>2023-10-19T20:04:31.462Z</time>
      </trkpt>
      <trkpt lat="48.794826" lon="2.138191">
        <ele>133.313239</ele>
        <time>2023-10-19T20:04:31.572Z</time>
      </trkpt>
      <trkpt lat="48.795405" lon="2.138742">
        <ele>131.258123</ele>
        <time>2023-10-19T20:04:38.432Z</time>
      </trkpt>
      <trkpt lat="48.795655" lon="2.138980">
        <ele>130.370675</ele>
        <time>2023-10-19T20:04:41.504Z</time>
      </trkpt>
      <trkpt lat="48.795870" lon="2.139277">
        <ele>129.496460</ele>
        <time>2023-10-19T20:04:44.653Z</time>
      </trkpt>
      <trkpt lat="48.796128" lon="2.139739">
        <ele>128.342390</ele>
        <time>2023-10-19T20:04:49.005Z</time>
      </trkpt>
      <trkpt lat="48.796258" lon="2.140235">
        <ele>127.686785</ele>
        <time>2023-10-19T20:04:52.773Z</time>
      </trkpt>
      <trkpt lat="48.796486" lon="2.141162">
        <ele>126.471533</ele>
        <time>2023-10-19T20:04:59.639Z</time>
      </trkpt>
      <trkpt lat="48.796530" lon="2.141342">
        <ele>126.235739</ele>
        <time>2023-10-19T20:05:01.021Z</time>
      </trkpt>
      <trkpt lat="48.796611" lon="2.141721">
        <ele>125.746392</ele>
        <time>2023-10-19T20:05:03.988Z</time>
      </trkpt>
      <trkpt lat="48.796589" lon="2.142020">
        <ele>125.376897</ele>
        <time>2023-10-19T20:05:06.414Z</time>
      </trkpt>
      <trkpt lat="48.796532" lon="2.142354">
        <ele>125.094193</ele>
        <time>2023-10-19T20:05:09.250Z</time>
      </trkpt>
      <trkpt lat="48.796551" lon="2.142648">
        <ele>125.194096</ele>
        <time>2023-10-19T20:05:11.876Z</time>
      </trkpt>
      <trkpt lat="48.796649" lon="2.142921">
        <ele>125.299238</ele>
        <time>2023-10-19T20:05:14.656Z</time>
      </trkpt>
      <trkpt lat="48.796729" lon="2.143046">
        <ele>125.358177</ele>
        <time>2023-10-19T20:05:16.381Z</time>
      </trkpt>
      <trkpt lat="48.796886" lon="2.143177">
        <ele>125.450150</ele>
        <time>2023-10-19T20:05:19.007Z</time>
      </trkpt>
      <trkpt lat="48.797235" lon="2.143240">
        <ele>125.630583</ele>
        <time>2023-10-19T20:05:24.899Z</time>
      </trkpt>
      <trkpt lat="48.797287" lon="2.143255">
        <ele>125.657757</ele>
        <time>2023-10-19T20:05:25.931Z</time>
      </trkpt>
      <trkpt lat="48.797324" lon="2.143276">
        <ele>125.678036</ele>
        <time>2023-10-19T20:05:26.689Z</time>
      </trkpt>
      <trkpt lat="48.797616" lon="2.143466">
        <ele>125.841133</ele>
        <time>2023-10-19T20:05:32.950Z</time>
      </trkpt>
      <trkpt lat="48.797975" lon="2.143698">
        <ele>126.214409</ele>
        <time>2023-10-19T20:05:41.512Z</time>
      </trkpt>
      <trkpt lat="48.798134" lon="2.143800">
        <ele>126.585260</ele>
        <time>2023-10-19T20:05:45.611Z</time>
      </trkpt>
      <trkpt lat="48.798263" lon="2.143868">
        <ele>126.878642</ele>
        <time>2023-10-19T20:05:48.920Z</time>
      </trkpt>
      <trkpt lat="48.798339" lon="2.143876">
        <ele>127.042317</ele>
        <time>2023-10-19T20:05:50.902Z</time>
      </trkpt>
      <trkpt lat="48.798416" lon="2.143922">
        <ele>127.220095</ele>
        <time>2023-10-19T20:05:52.982Z</time>
      </trkpt>
      <trkpt lat="48.798541" lon="2.143990">
        <ele>127.505373</ele>
        <time>2023-10-19T20:05:56.303Z</time>
      </trkpt>
      <trkpt lat="48.798576" lon="2.143853">
        <ele>127.713327</ele>
        <time>2023-10-19T20:05:58.755Z</time>
      </trkpt>
      <trkpt lat="48.798685" lon="2.143467">
        <ele>128.307675</ele>
        <time>2023-10-19T20:06:05.659Z</time>
      </trkpt>
      <trkpt lat="48.798728" lon="2.143318">
        <ele>128.537889</ele>
        <time>2023-10-19T20:06:08.229Z</time>
      </trkpt>
      <trkpt lat="48.798914" lon="2.142627">
        <ele>129.594287</ele>
        <time>2023-10-19T20:06:19.634Z</time>
      </trkpt>
      <trkpt lat="48.798971" lon="2.142418">
        <ele>129.892026</ele>
        <time>2023-10-19T20:06:23.137Z</time>
      </trkpt>
      <trkpt lat="48.799160" lon="2.141688">
        <ele>130.607520</ele>
        <time>2023-10-19T20:06:34.463Z</time>
      </trkpt>
      <trkpt lat="48.799377" lon="2.140847">
        <ele>131.431432</ele>
        <time>2023-10-19T20:06:46.465Z</time>
      </trkpt>
      <trkpt lat="48.799403" lon="2.140751">
        <ele>131.526115</ele>
        <time>2023-10-19T20:06:47.698Z</time>
      </trkpt>
      <trkpt lat="48.799523" lon="2.140819">
        <ele>131.703495</ele>
        <time>2023-10-19T20:06:50.208Z</time>
      </trkpt>
      <trkpt lat="48.799702" lon="2.140909">
        <ele>131.964622</ele>
        <time>2023-10-19T20:06:53.775Z</time>
      </trkpt>
      <trkpt lat="48.800058" lon="2.141600">
        <ele>132.483035</ele>
        <time>2023-10-19T20:07:04.406Z</time>
      </trkpt>
      <trkpt lat="48.800715" lon="2.142846">
        <ele>132.968037</ele>
        <time>2023-10-19T20:07:22.478Z</time>
      </trkpt>
      <trkpt lat="48.800771" lon="2.143093">
        <ele>133.047415</ele>
        <time>2023-10-19T20:07:24.962Z</time>
      </trkpt>
      <trkpt lat="48.800841" lon="2.144049">
        <ele>133.223631</ele>
        <time>2023-10-19T20:07:33.939Z</time>
      </trkpt>
      <trkpt lat="48.800865" lon="2.144374">
        <ele>133.254211</ele>
        <time>2023-10-19T20:07:36.983Z</time>
      </trkpt>
      <trkpt lat="48.800869" lon="2.144439">
        <ele>133.260315</ele>
        <time>2023-10-19T20:07:37.636Z</time>
      </trkpt>
      <trkpt lat="48.800901" lon="2.144946">
        <ele>133.307940</ele>
        <time>2023-10-19T20:07:42.404Z</time>
      </trkpt>
      <trkpt lat="48.802653" lon="2.145579">
        <ele>133.749240</ele>
        <time>2023-10-19T20:08:12.291Z</time>
      </trkpt>
      <trkpt lat="48.802754" lon="2.145616">
        <ele>133.784089</ele>
        <time>2023-10-19T20:08:14.166Z</time>
      </trkpt>
      <trkpt lat="48.803797" lon="2.145989">
        <ele>133.822365</ele>
        <time>2023-10-19T20:08:31.033Z</time>
      </trkpt>
      <trkpt lat="48.803800" lon="2.146081">
        <ele>133.784801</ele>
        <time>2023-10-19T20:08:33.270Z</time>
      </trkpt>
      <trkpt lat="48.803908" lon="2.146238">
        <ele>133.692224</ele>
        <time>2023-10-19T20:08:38.530Z</time>
      </trkpt>
      <trkpt lat="48.804363" lon="2.146401">
        <ele>133.402772</ele>
        <time>2023-10-19T20:08:54.838Z</time>
      </trkpt>
      <trkpt lat="48.804463" lon="2.146304">
        <ele>133.329299</ele>
        <time>2023-10-19T20:08:58.925Z</time>
      </trkpt>
      <trkpt lat="48.804608" lon="2.146369">
        <ele>133.235691</ele>
        <time>2023-10-19T20:09:03.926Z</time>
      </trkpt>
      <trkpt lat="48.804667" lon="2.146289">
        <ele>133.186714</ele>
        <time>2023-10-19T20:09:06.565Z</time>
      </trkpt>
      <trkpt lat="48.806238" lon="2.146841">
        <ele>132.227038</ele>
        <time>2023-10-19T20:09:25.951Z</time>
      </trkpt>
      <trkpt lat="48.807067" lon="2.147108">
        <ele>131.985778</ele>
        <time>2023-10-19T20:09:39.388Z</time>
      </trkpt>
      <trkpt lat="48.807110" lon="2.147124">
        <ele>132.009945</ele>
        <time>2023-10-19T20:09:40.173Z</time>
      </trkpt>
      <trkpt lat="48.807247" lon="2.147164">
        <ele>132.086097</ele>
        <time>2023-10-19T20:09:42.708Z</time>
      </trkpt>
      <trkpt lat="48.807333" lon="2.146958">
        <ele>132.173778</ele>
        <time>2023-10-19T20:09:45.555Z</time>
      </trkpt>
      <trkpt lat="48.807642" lon="2.146235">
        <ele>132.483625</ele>
        <time>2023-10-19T20:09:55.900Z</time>
      </trkpt>
      <trkpt lat="48.807703" lon="2.146086">
        <ele>132.546696</ele>
        <time>2023-10-19T20:09:57.951Z</time>
      </trkpt>
      <trkpt lat="48.807785" lon="2.145890">
        <ele>132.630171</ele>
        <time>2023-10-19T20:10:00.592Z</time>
      </trkpt>
      <trkpt lat="48.807807" lon="2.145842">
        <ele>132.651195</ele>
        <time>2023-10-19T20:10:01.276Z</time>
      </trkpt>
      <trkpt lat="48.807896" lon="2.145739">
        <ele>132.712278</ele>
        <time>2023-10-19T20:10:03.248Z</time>
      </trkpt>
      <trkpt lat="48.807938" lon="2.145643">
        <ele>132.753710</ele>
        <time>2023-10-19T20:10:04.460Z</time>
      </trkpt>
      <trkpt lat="48.807967" lon="2.145688">
        <ele>132.776344</ele>
        <time>2023-10-19T20:10:05.117Z</time>
      </trkpt>
      <trkpt lat="48.808012" lon="2.145622">
        <ele>132.810495</ele>
        <time>2023-10-19T20:10:06.154Z</time>
      </trkpt>
      <trkpt lat="48.808086" lon="2.145518">
        <ele>132.839778</ele>
        <time>2023-10-19T20:10:07.848Z</time>
      </trkpt>
      <trkpt lat="48.808145" lon="2.145440">
        <ele>132.830542</ele>
        <time>2023-10-19T20:10:09.163Z</time>
      </trkpt>
      <trkpt lat="48.808087" lon="2.145322">
        <ele>132.819094</ele>
        <time>2023-10-19T20:10:10.631Z</time>
      </trkpt>
      <trkpt lat="48.808096" lon="2.145100">
        <ele>132.801801</ele>
        <time>2023-10-19T20:10:12.852Z</time>
      </trkpt>
      <trkpt lat="48.808300" lon="2.142472">
        <ele>132.403381</ele>
        <time>2023-10-19T20:10:37.070Z</time>
      </trkpt>
      <trkpt lat="48.808417" lon="2.141001">
        <ele>131.670859</ele>
        <time>2023-10-19T20:10:49.835Z</time>
      </trkpt>
      <trkpt lat="48.808486" lon="2.140138">
        <ele>131.183605</ele>
        <time>2023-10-19T20:10:56.669Z</time>
      </trkpt>
      <trkpt lat="48.808498" lon="2.140055">
        <ele>131.082323</ele>
        <time>2023-10-19T20:10:57.313Z</time>
      </trkpt>
      <trkpt lat="48.808501" lon="2.139983">
        <ele>130.996335</ele>
        <time>2023-10-19T20:10:57.852Z</time>
      </trkpt>
      <trkpt lat="48.808555" lon="2.139992">
        <ele>130.898020</ele>
        <time>2023-10-19T20:10:58.501Z</time>
      </trkpt>
      <trkpt lat="48.809104" lon="2.140094">
        <ele>129.897040</ele>
        <time>2023-10-19T20:11:04.762Z</time>
      </trkpt>
      <trkpt lat="48.809351" lon="2.140140">
        <ele>129.446674</ele>
        <time>2023-10-19T20:11:07.450Z</time>
      </trkpt>
      <trkpt lat="48.810153" lon="2.140278">
        <ele>128.016083</ele>
        <time>2023-10-19T20:11:16.110Z</time>
      </trkpt>
      <trkpt lat="48.811070" lon="2.140446">
        <ele>127.582032</ele>
        <time>2023-10-19T20:11:26.819Z</time>
      </trkpt>
      <trkpt lat="48.811425" lon="2.140509">
        <ele>127.414071</ele>
        <time>2023-10-19T20:11:32.012Z</time>
      </trkpt>
      <trkpt lat="48.811740" lon="2.140567">
        <ele>127.264959</ele>
        <time>2023-10-19T20:11:37.612Z</time>
      </trkpt>
      <trkpt lat="48.812442" lon="2.140679">
        <ele>128.312579</ele>
        <time>2023-10-19T20:11:52.847Z</time>
      </trkpt>
      <trkpt lat="48.812603" lon="2.140704">
        <ele>128.659235</ele>
        <time>2023-10-19T20:11:56.687Z</time>
      </trkpt>
      <trkpt lat="48.813681" lon="2.140883">
        <ele>130.982050</ele>
        <time>2023-10-19T20:12:23.499Z</time>
      </trkpt>
      <trkpt lat="48.813826" lon="2.140909">
        <ele>131.456570</ele>
        <time>2023-10-19T20:12:27.154Z</time>
      </trkpt>
      <trkpt lat="48.813890" lon="2.141097">
        <ele>131.940308</ele>
        <time>2023-10-19T20:12:30.542Z</time>
      </trkpt>
      <trkpt lat="48.814011" lon="2.141451">
        <ele>132.851958</ele>
        <time>2023-10-19T20:12:37.635Z</time>
      </trkpt>
      <trkpt lat="48.814586" lon="2.143041">
        <ele>136.998183</ele>
        <time>2023-10-19T20:13:11.339Z</time>
      </trkpt>
      <trkpt lat="48.815333" lon="2.145158">
        <ele>146.678564</ele>
        <time>2023-10-19T20:14:10.356Z</time>
      </trkpt>
      <trkpt lat="48.815529" lon="2.145683">
        <ele>149.373548</ele>
        <time>2023-10-19T20:14:30.911Z</time>
      </trkpt>
      <trkpt lat="48.815672" lon="2.146108">
        <ele>151.990232</ele>
        <time>2023-10-19T20:14:48.333Z</time>
      </trkpt>
      <trkpt lat="48.815857" lon="2.146627">
        <ele>155.225864</ele>
        <time>2023-10-19T20:15:09.926Z</time>
      </trkpt>
      <trkpt lat="48.816333" lon="2.147932">
        <ele>163.404958</ele>
        <time>2023-10-19T20:15:56.805Z</time>
      </trkpt>
      <trkpt lat="48.816446" lon="2.148132">
        <ele>164.208966</ele>
        <time>2023-10-19T20:16:03.404Z</time>
      </trkpt>
      <trkpt lat="48.816520" lon="2.148209">
        <ele>164.596653</ele>
        <time>2023-10-19T20:16:06.726Z</time>
      </trkpt>
      <trkpt lat="48.816805" lon="2.148366">
        <ele>165.906918</ele>
        <time>2023-10-19T20:16:16.752Z</time>
      </trkpt>
      <trkpt lat="48.816900" lon="2.148388">
        <ele>166.322242</ele>
        <time>2023-10-19T20:16:19.591Z</time>
      </trkpt>
      <trkpt lat="48.817125" lon="2.148351">
        <ele>167.300347</ele>
        <time>2023-10-19T20:16:26.721Z</time>
      </trkpt>
      <trkpt lat="48.817317" lon="2.148207">
        <ele>168.225819</ele>
        <time>2023-10-19T20:16:33.166Z</time>
      </trkpt>
      <trkpt lat="48.817381" lon="2.148110">
        <ele>168.616596</ele>
        <time>2023-10-19T20:16:35.995Z</time>
      </trkpt>
      <trkpt lat="48.817677" lon="2.147433">
        <ele>170.929234</ele>
        <time>2023-10-19T20:16:51.205Z</time>
      </trkpt>
      <trkpt lat="48.817826" lon="2.147277">
        <ele>171.559528</ele>
        <time>2023-10-19T20:16:55.560Z</time>
      </trkpt>
      <trkpt lat="48.818011" lon="2.147191">
        <ele>172.093767</ele>
        <time>2023-10-19T20:17:00.257Z</time>
      </trkpt>
      <trkpt lat="48.818115" lon="2.147185">
        <ele>172.381151</ele>
        <time>2023-10-19T20:17:02.534Z</time>
      </trkpt>
      <trkpt lat="48.818316" lon="2.147237">
        <ele>172.944170</ele>
        <time>2023-10-19T20:17:07.447Z</time>
      </trkpt>
      <trkpt lat="48.818432" lon="2.147311">
        <ele>173.291593</ele>
        <time>2023-10-19T20:17:10.394Z</time>
      </trkpt>
      <trkpt lat="48.818676" lon="2.147526">
        <ele>174.070544</ele>
        <time>2023-10-19T20:17:17.612Z</time>
      </trkpt>
      <trkpt lat="48.818881" lon="2.147854">
        <ele>174.892784</ele>
        <time>2023-10-19T20:17:25.583Z</time>
      </trkpt>
      <trkpt lat="48.818975" lon="2.148093">
        <ele>175.398945</ele>
        <time>2023-10-19T20:17:30.508Z</time>
      </trkpt>
      <trkpt lat="48.819067" lon="2.148461">
        <ele>176.114633</ele>
        <time>2023-10-19T20:17:37.812Z</time>
      </trkpt>
      <trkpt lat="48.819089" lon="2.148934">
        <ele>176.419945</ele>
        <time>2023-10-19T20:17:46.788Z</time>
      </trkpt>
      <trkpt lat="48.819039" lon="2.149475">
        <ele>176.644333</ele>
        <time>2023-10-19T20:17:55.222Z</time>
      </trkpt>
      <trkpt lat="48.819012" lon="2.149750">
        <ele>176.758536</ele>
        <time>2023-10-19T20:17:58.170Z</time>
      </trkpt>
      <trkpt lat="48.818993" lon="2.149963">
        <ele>176.846822</ele>
        <time>2023-10-19T20:18:00.479Z</time>
      </trkpt>
      <trkpt lat="48.818983" lon="2.150094">
        <ele>176.900990</ele>
        <time>2023-10-19T20:18:01.615Z</time>
      </trkpt>
      <trkpt lat="48.818913" lon="2.150170">
        <ele>176.954667</ele>
        <time>2023-10-19T20:18:02.708Z</time>
      </trkpt>
      <trkpt lat="48.818892" lon="2.150289">
        <ele>177.005270</ele>
        <time>2023-10-19T20:18:03.759Z</time>
      </trkpt>
      <trkpt lat="48.818869" lon="2.150492">
        <ele>177.089876</ele>
        <time>2023-10-19T20:18:05.540Z</time>
      </trkpt>
      <trkpt lat="48.818871" lon="2.150620">
        <ele>177.142466</ele>
        <time>2023-10-19T20:18:06.544Z</time>
      </trkpt>
      <trkpt lat="48.818903" lon="2.150678">
        <ele>177.173546</ele>
        <time>2023-10-19T20:18:07.136Z</time>
      </trkpt>
      <trkpt lat="48.818977" lon="2.150742">
        <ele>177.226668</ele>
        <time>2023-10-19T20:18:08.181Z</time>
      </trkpt>
      <trkpt lat="48.819123" lon="2.150685">
        <ele>177.320705</ele>
        <time>2023-10-19T20:18:10.045Z</time>
      </trkpt>
      <trkpt lat="48.819121" lon="2.150828">
        <ele>177.379448</ele>
        <time>2023-10-19T20:18:11.601Z</time>
      </trkpt>
      <trkpt lat="48.819163" lon="2.150879">
        <ele>177.337634</ele>
        <time>2023-10-19T20:18:12.523Z</time>
      </trkpt>
      <trkpt lat="48.819579" lon="2.150941">
        <ele>177.012610</ele>
        <time>2023-10-19T20:18:19.600Z</time>
      </trkpt>
      <trkpt lat="48.819725" lon="2.151041">
        <ele>176.888074</ele>
        <time>2023-10-19T20:18:22.319Z</time>
      </trkpt>
      <trkpt lat="48.820076" lon="2.151368">
        <ele>176.567890</ele>
        <time>2023-10-19T20:18:29.338Z</time>
      </trkpt>
      <trkpt lat="48.820616" lon="2.151821">
        <ele>176.088208</ele>
        <time>2023-10-19T20:18:40.596Z</time>
      </trkpt>
      <trkpt lat="48.820980" lon="2.152097">
        <ele>176.184545</ele>
        <time>2023-10-19T20:18:48.851Z</time>
      </trkpt>
      <trkpt lat="48.821214" lon="2.152400">
        <ele>176.417531</ele>
        <time>2023-10-19T20:18:55.628Z</time>
      </trkpt>
      <trkpt lat="48.821571" lon="2.153088">
        <ele>176.854526</ele>
        <time>2023-10-19T20:19:09.196Z</time>
      </trkpt>
      <trkpt lat="48.821720" lon="2.153529">
        <ele>177.101800</ele>
        <time>2023-10-19T20:19:17.199Z</time>
      </trkpt>
      <trkpt lat="48.821757" lon="2.153721">
        <ele>177.201599</ele>
        <time>2023-10-19T20:19:20.484Z</time>
      </trkpt>
      <trkpt lat="48.821918" lon="2.155238">
        <ele>178.854224</ele>
        <time>2023-10-19T20:19:48.064Z</time>
      </trkpt>
      <trkpt lat="48.822116" lon="2.157099">
        <ele>180.737092</ele>
        <time>2023-10-19T20:20:23.436Z</time>
      </trkpt>
      <trkpt lat="48.822148" lon="2.157353">
        <ele>180.798934</ele>
        <time>2023-10-19T20:20:27.958Z</time>
      </trkpt>
      <trkpt lat="48.822178" lon="2.157596">
        <ele>180.858057</ele>
        <time>2023-10-19T20:20:32.014Z</time>
      </trkpt>
      <trkpt lat="48.822229" lon="2.157966">
        <ele>180.948454</ele>
        <time>2023-10-19T20:20:37.725Z</time>
      </trkpt>
      <trkpt lat="48.822356" lon="2.158464">
        <ele>181.076163</ele>
        <time>2023-10-19T20:20:44.964Z</time>
      </trkpt>
      <trkpt lat="48.822476" lon="2.158823">
        <ele>181.172442</ele>
        <time>2023-10-19T20:20:49.885Z</time>
      </trkpt>
      <trkpt lat="48.822887" lon="2.159467">
        <ele>180.703578</ele>
        <time>2023-10-19T20:20:59.931Z</time>
      </trkpt>
      <trkpt lat="48.823172" lon="2.160097">
        <ele>179.549342</ele>
        <time>2023-10-19T20:21:08.280Z</time>
      </trkpt>
      <trkpt lat="48.823445" lon="2.160809">
        <ele>178.305178</ele>
        <time>2023-10-19T20:21:16.483Z</time>
      </trkpt>
      <trkpt lat="48.823607" lon="2.161461">
        <ele>177.252877</ele>
        <time>2023-10-19T20:21:23.086Z</time>
      </trkpt>
      <trkpt lat="48.823692" lon="2.161804">
        <ele>176.569273</ele>
        <time>2023-10-19T20:21:26.471Z</time>
      </trkpt>
      <trkpt lat="48.823732" lon="2.161901">
        <ele>176.348445</ele>
        <time>2023-10-19T20:21:27.211Z</time>
      </trkpt>
      <trkpt lat="48.823737" lon="2.162085">
        <ele>175.993140</ele>
        <time>2023-10-19T20:21:28.410Z</time>
      </trkpt>
      <trkpt lat="48.823709" lon="2.162111">
        <ele>175.896968</ele>
        <time>2023-10-19T20:21:28.726Z</time>
      </trkpt>
      <trkpt lat="48.823691" lon="2.162179">
        <ele>175.755564</ele>
        <time>2023-10-19T20:21:29.404Z</time>
      </trkpt>
      <trkpt lat="48.823469" lon="2.163017">
        <ele>174.012775</ele>
        <time>2023-10-19T20:21:37.996Z</time>
      </trkpt>
      <trkpt lat="48.823156" lon="2.164343">
        <ele>171.705671</ele>
        <time>2023-10-19T20:21:52.364Z</time>
      </trkpt>
      <trkpt lat="48.823158" lon="2.164836">
        <ele>171.402958</ele>
        <time>2023-10-19T20:21:57.625Z</time>
      </trkpt>
      <trkpt lat="48.823246" lon="2.165876">
        <ele>170.759134</ele>
        <time>2023-10-19T20:22:09.769Z</time>
      </trkpt>
      <trkpt lat="48.823352" lon="2.167034">
        <ele>170.211751</ele>
        <time>2023-10-19T20:22:25.560Z</time>
      </trkpt>
      <trkpt lat="48.823943" lon="2.171206">
        <ele>169.981035</ele>
        <time>2023-10-19T20:23:21.782Z</time>
      </trkpt>
      <trkpt lat="48.823986" lon="2.171470">
        <ele>169.956950</ele>
        <time>2023-10-19T20:23:25.425Z</time>
      </trkpt>
      <trkpt lat="48.824220" lon="2.172033">
        <ele>169.869923</ele>
        <time>2023-10-19T20:23:34.086Z</time>
      </trkpt>
      <trkpt lat="48.824378" lon="2.172313">
        <ele>169.518043</ele>
        <time>2023-10-19T20:23:38.665Z</time>
      </trkpt>
      <trkpt lat="48.824590" lon="2.172589">
        <ele>169.113366</ele>
        <time>2023-10-19T20:23:43.843Z</time>
      </trkpt>
      <trkpt lat="48.826157" lon="2.173857">
        <ele>165.657290</ele>
        <time>2023-10-19T20:24:11.893Z</time>
      </trkpt>
      <trkpt lat="48.826861" lon="2.174427">
        <ele>163.147202</ele>
        <time>2023-10-19T20:24:23.763Z</time>
      </trkpt>
      <trkpt lat="48.826957" lon="2.174505">
        <ele>162.804652</ele>
        <time>2023-10-19T20:24:25.268Z</time>
      </trkpt>
      <trkpt lat="48.827380" lon="2.174839">
        <ele>161.201111</ele>
        <time>2023-10-19T20:24:31.697Z</time>
      </trkpt>
      <trkpt lat="48.827736" lon="2.175126">
        <ele>159.535316</ele>
        <time>2023-10-19T20:24:37.184Z</time>
      </trkpt>
      <trkpt lat="48.827866" lon="2.175078">
        <ele>158.982359</ele>
        <time>2023-10-19T20:24:39.094Z</time>
      </trkpt>
      <trkpt lat="48.827867" lon="2.175255">
        <ele>158.500732</ele>
        <time>2023-10-19T20:24:40.211Z</time>
      </trkpt>
      <trkpt lat="48.827870" lon="2.175822">
        <ele>156.957898</ele>
        <time>2023-10-19T20:24:43.826Z</time>
      </trkpt>
      <trkpt lat="48.827864" lon="2.176118">
        <ele>156.152113</ele>
        <time>2023-10-19T20:24:45.714Z</time>
      </trkpt>
      <trkpt lat="48.827797" lon="2.178529">
        <ele>150.728143</ele>
        <time>2023-10-19T20:25:01.601Z</time>
      </trkpt>
      <trkpt lat="48.827740" lon="2.180517">
        <ele>146.273846</ele>
        <time>2023-10-19T20:25:15.522Z</time>
      </trkpt>
      <trkpt lat="48.827628" lon="2.184499">
        <ele>134.888671</ele>
        <time>2023-10-19T20:25:40.745Z</time>
      </trkpt>
      <trkpt lat="48.827427" lon="2.184659">
        <ele>133.789954</ele>
        <time>2023-10-19T20:25:42.869Z</time>
      </trkpt>
      <trkpt lat="48.827292" lon="2.184840">
        <ele>132.781877</ele>
        <time>2023-10-19T20:25:44.501Z</time>
      </trkpt>
      <trkpt lat="48.827208" lon="2.185103">
        <ele>131.423072</ele>
        <time>2023-10-19T20:25:46.252Z</time>
      </trkpt>
      <trkpt lat="48.827169" lon="2.185516">
        <ele>129.483637</ele>
        <time>2023-10-19T20:25:48.726Z</time>
      </trkpt>
      <trkpt lat="48.827124" lon="2.186178">
        <ele>126.390039</ele>
        <time>2023-10-19T20:25:52.628Z</time>
      </trkpt>
      <trkpt lat="48.827053" lon="2.187386">
        <ele>120.752437</ele>
        <time>2023-10-19T20:25:59.726Z</time>
      </trkpt>
      <trkpt lat="48.826972" lon="2.188502">
        <ele>116.743597</ele>
        <time>2023-10-19T20:26:06.318Z</time>
      </trkpt>
      <trkpt lat="48.826907" lon="2.188495">
        <ele>116.395256</ele>
        <time>2023-10-19T20:26:06.925Z</time>
      </trkpt>
      <trkpt lat="48.826876" lon="2.188555">
        <ele>116.126838</ele>
        <time>2023-10-19T20:26:07.395Z</time>
      </trkpt>
      <trkpt lat="48.826878" lon="2.188614">
        <ele>115.918928</ele>
        <time>2023-10-19T20:26:07.752Z</time>
      </trkpt>
      <trkpt lat="48.826981" lon="2.188819">
        <ele>115.011377</ele>
        <time>2023-10-19T20:26:09.291Z</time>
      </trkpt>
      <trkpt lat="48.827055" lon="2.188821">
        <ele>114.615735</ele>
        <time>2023-10-19T20:26:09.994Z</time>
      </trkpt>
      <trkpt lat="48.827077" lon="2.188746">
        <ele>114.326777</ele>
        <time>2023-10-19T20:26:10.523Z</time>
      </trkpt>
      <trkpt lat="48.827401" lon="2.188820">
        <ele>112.575310</ele>
        <time>2023-10-19T20:26:13.698Z</time>
      </trkpt>
      <trkpt lat="48.827520" lon="2.188849">
        <ele>111.931041</ele>
        <time>2023-10-19T20:26:14.945Z</time>
      </trkpt>
      <trkpt lat="48.827661" lon="2.188919">
        <ele>111.138066</ele>
        <time>2023-10-19T20:26:16.440Z</time>
      </trkpt>
      <trkpt lat="48.827737" lon="2.189004">
        <ele>110.856053</ele>
        <time>2023-10-19T20:26:17.513Z</time>
      </trkpt>
      <trkpt lat="48.827810" lon="2.189109">
        <ele>110.766603</ele>
        <time>2023-10-19T20:26:18.646Z</time>
      </trkpt>
      <trkpt lat="48.827950" lon="2.189313">
        <ele>110.593991</ele>
        <time>2023-10-19T20:26:20.753Z</time>
      </trkpt>
      <trkpt lat="48.828065" lon="2.189501">
        <ele>110.443671</ele>
        <time>2023-10-19T20:26:23.077Z</time>
      </trkpt>
      <trkpt lat="48.828279" lon="2.190010">
        <ele>110.089914</ele>
        <time>2023-10-19T20:26:28.211Z</time>
      </trkpt>
      <trkpt lat="48.828465" lon="2.191373">
        <ele>109.359558</ele>
        <time>2023-10-19T20:26:40.733Z</time>
      </trkpt>
      <trkpt lat="48.828648" lon="2.192658">
        <ele>111.150239</ele>
        <time>2023-10-19T20:26:55.632Z</time>
      </trkpt>
      <trkpt lat="48.828743" lon="2.192935">
        <ele>111.575646</ele>
        <time>2023-10-19T20:27:00.370Z</time>
      </trkpt>
      <trkpt lat="48.828831" lon="2.193106">
        <ele>111.871270</ele>
        <time>2023-10-19T20:27:04.081Z</time>
      </trkpt>
      <trkpt lat="48.829051" lon="2.193431">
        <ele>112.506188</ele>
        <time>2023-10-19T20:27:12.846Z</time>
      </trkpt>
      <trkpt lat="48.829259" lon="2.193664">
        <ele>113.070057</ele>
        <time>2023-10-19T20:27:21.222Z</time>
      </trkpt>
      <trkpt lat="48.829420" lon="2.193843">
        <ele>114.101998</ele>
        <time>2023-10-19T20:27:28.540Z</time>
      </trkpt>
      <trkpt lat="48.829453" lon="2.193886">
        <ele>114.326874</ele>
        <time>2023-10-19T20:27:30.158Z</time>
      </trkpt>
      <trkpt lat="48.829573" lon="2.194042">
        <ele>115.143797</ele>
        <time>2023-10-19T20:27:35.868Z</time>
      </trkpt>
      <trkpt lat="48.830328" lon="2.195020">
        <ele>120.275847</ele>
        <time>2023-10-19T20:28:14.370Z</time>
      </trkpt>
      <trkpt lat="48.830526" lon="2.195273">
        <ele>121.614068</ele>
        <time>2023-10-19T20:28:24.568Z</time>
      </trkpt>
      <trkpt lat="48.830597" lon="2.195365">
        <ele>122.096746</ele>
        <time>2023-10-19T20:28:28.316Z</time>
      </trkpt>
      <trkpt lat="48.832009" lon="2.197209">
        <ele>126.372187</ele>
        <time>2023-10-19T20:29:15.081Z</time>
      </trkpt>
      <trkpt lat="48.832174" lon="2.197424">
        <ele>125.666698</ele>
        <time>2023-10-19T20:29:17.512Z</time>
      </trkpt>
      <trkpt lat="48.834368" lon="2.200289">
        <ele>114.496294</ele>
        <time>2023-10-19T20:29:45.395Z</time>
      </trkpt>
      <trkpt lat="48.835840" lon="2.201831">
        <ele>105.775186</ele>
        <time>2023-10-19T20:30:02.185Z</time>
      </trkpt>
      <trkpt lat="48.836107" lon="2.202071">
        <ele>104.229703</ele>
        <time>2023-10-19T20:30:05.136Z</time>
      </trkpt>
      <trkpt lat="48.836500" lon="2.202442">
        <ele>102.196009</ele>
        <time>2023-10-19T20:30:09.552Z</time>
      </trkpt>
      <trkpt lat="48.837004" lon="2.202907">
        <ele>99.800961</ele>
        <time>2023-10-19T20:30:15.206Z</time>
      </trkpt>
      <trkpt lat="48.837516" lon="2.203384">
        <ele>97.361471</ele>
        <time>2023-10-19T20:30:21.139Z</time>
      </trkpt>
      <trkpt lat="48.837933" lon="2.203860">
        <ele>95.605546</ele>
        <time>2023-10-19T20:30:26.329Z</time>
      </trkpt>
      <trkpt lat="48.838587" lon="2.204706">
        <ele>93.613559</ele>
        <time>2023-10-19T20:30:35.252Z</time>
      </trkpt>
      <trkpt lat="48.838999" lon="2.205395">
        <ele>92.192640</ele>
        <time>2023-10-19T20:30:42.144Z</time>
      </trkpt>
      <trkpt lat="48.839177" lon="2.205773">
        <ele>92.041300</ele>
        <time>2023-10-19T20:30:45.922Z</time>
      </trkpt>
      <trkpt lat="48.839261" lon="2.205950">
        <ele>92.136905</ele>
        <time>2023-10-19T20:30:47.735Z</time>
      </trkpt>
      <trkpt lat="48.839297" lon="2.206018">
        <ele>92.175139</ele>
        <time>2023-10-19T20:30:48.539Z</time>
      </trkpt>
      <trkpt lat="48.839535" lon="2.206473">
        <ele>92.429772</ele>
        <time>2023-10-19T20:30:54.072Z</time>
      </trkpt>
      <trkpt lat="48.839639" lon="2.206576">
        <ele>92.512410</ele>
        <time>2023-10-19T20:30:56.077Z</time>
      </trkpt>
      <trkpt lat="48.839776" lon="2.206784">
        <ele>92.641333</ele>
        <time>2023-10-19T20:30:59.556Z</time>
      </trkpt>
      <trkpt lat="48.839879" lon="2.206892">
        <ele>92.724639</ele>
        <time>2023-10-19T20:31:02.042Z</time>
      </trkpt>
      <trkpt lat="48.840072" lon="2.207043">
        <ele>92.869144</ele>
        <time>2023-10-19T20:31:06.585Z</time>
      </trkpt>
      <trkpt lat="48.840115" lon="2.207076">
        <ele>92.901212</ele>
        <time>2023-10-19T20:31:07.720Z</time>
      </trkpt>
      <trkpt lat="48.840162" lon="2.207102">
        <ele>92.934507</ele>
        <time>2023-10-19T20:31:08.876Z</time>
      </trkpt>
      <trkpt lat="48.840283" lon="2.207159">
        <ele>93.018835</ele>
        <time>2023-10-19T20:31:11.830Z</time>
      </trkpt>
      <trkpt lat="48.840389" lon="2.207184">
        <ele>93.090241</ele>
        <time>2023-10-19T20:31:14.418Z</time>
      </trkpt>
      <trkpt lat="48.840670" lon="2.207189">
        <ele>93.972641</ele>
        <time>2023-10-19T20:31:21.721Z</time>
      </trkpt>
      <trkpt lat="48.841847" lon="2.207070">
        <ele>98.103800</ele>
        <time>2023-10-19T20:31:56.055Z</time>
      </trkpt>
      <trkpt lat="48.842068" lon="2.207091">
        <ele>98.879290</ele>
        <time>2023-10-19T20:32:03.264Z</time>
      </trkpt>
      <trkpt lat="48.842263" lon="2.207120">
        <ele>99.578723</ele>
        <time>2023-10-19T20:32:09.645Z</time>
      </trkpt>
      <trkpt lat="48.842301" lon="2.207141">
        <ele>99.732660</ele>
        <time>2023-10-19T20:32:10.964Z</time>
      </trkpt>
      <trkpt lat="48.842357" lon="2.207106">
        <ele>99.963183</ele>
        <time>2023-10-19T20:32:12.902Z</time>
      </trkpt>
      <trkpt lat="48.842413" lon="2.207094">
        <ele>100.178484</ele>
        <time>2023-10-19T20:32:14.737Z</time>
      </trkpt>
      <trkpt lat="48.842765" lon="2.206998">
        <ele>101.539960</ele>
        <time>2023-10-19T20:32:26.099Z</time>
      </trkpt>
      <trkpt lat="48.843695" lon="2.206936">
        <ele>105.083868</ele>
        <time>2023-10-19T20:32:54.837Z</time>
      </trkpt>
      <trkpt lat="48.843827" lon="2.206996">
        <ele>105.608393</ele>
        <time>2023-10-19T20:32:58.750Z</time>
      </trkpt>
      <trkpt lat="48.844046" lon="2.207163">
        <ele>106.397712</ele>
        <time>2023-10-19T20:33:05.424Z</time>
      </trkpt>
      <trkpt lat="48.844295" lon="2.207540">
        <ele>107.051348</ele>
        <time>2023-10-19T20:33:14.095Z</time>
      </trkpt>
      <trkpt lat="48.844374" lon="2.207921">
        <ele>107.540196</ele>
        <time>2023-10-19T20:33:20.025Z</time>
      </trkpt>
      <trkpt lat="48.844399" lon="2.208165">
        <ele>107.842390</ele>
        <time>2023-10-19T20:33:23.529Z</time>
      </trkpt>
      <trkpt lat="48.844409" lon="2.208631">
        <ele>108.412965</ele>
        <time>2023-10-19T20:33:30.230Z</time>
      </trkpt>
      <trkpt lat="48.844419" lon="2.209188">
        <ele>109.094853</ele>
        <time>2023-10-19T20:33:37.901Z</time>
      </trkpt>
      <trkpt lat="48.844433" lon="2.209881">
        <ele>109.838059</ele>
        <time>2023-10-19T20:33:46.135Z</time>
      </trkpt>
      <trkpt lat="48.844443" lon="2.210362">
        <ele>110.243596</ele>
        <time>2023-10-19T20:33:51.545Z</time>
      </trkpt>
      <trkpt lat="48.844444" lon="2.210390">
        <ele>110.267226</ele>
        <time>2023-10-19T20:33:51.827Z</time>
      </trkpt>
      <trkpt lat="48.844457" lon="2.211021">
        <ele>110.799224</ele>
        <time>2023-10-19T20:33:58.967Z</time>
      </trkpt>
      <trkpt lat="48.844479" lon="2.211329">
        <ele>111.060297</ele>
        <time>2023-10-19T20:34:02.822Z</time>
      </trkpt>
      <trkpt lat="48.844557" lon="2.211698">
        <ele>111.386896</ele>
        <time>2023-10-19T20:34:07.854Z</time>
      </trkpt>
      <trkpt lat="48.844635" lon="2.211947">
        <ele>111.619284</ele>
        <time>2023-10-19T20:34:11.689Z</time>
      </trkpt>
      <trkpt lat="48.844901" lon="2.212529">
        <ele>112.601339</ele>
        <time>2023-10-19T20:34:23.463Z</time>
      </trkpt>
      <trkpt lat="48.845233" lon="2.213028">
        <ele>113.946649</ele>
        <time>2023-10-19T20:34:36.411Z</time>
      </trkpt>
      <trkpt lat="48.845493" lon="2.213316">
        <ele>114.873578</ele>
        <time>2023-10-19T20:34:44.949Z</time>
      </trkpt>
      <trkpt lat="48.845646" lon="2.213497">
        <ele>115.432187</ele>
        <time>2023-10-19T20:34:50.239Z</time>
      </trkpt>
      <trkpt lat="48.845710" lon="2.213574">
        <ele>115.667361</ele>
        <time>2023-10-19T20:34:52.456Z</time>
      </trkpt>
      <trkpt lat="48.846245" lon="2.213952">
        <ele>117.175521</ele>
        <time>2023-10-19T20:35:09.021Z</time>
      </trkpt>
      <trkpt lat="48.846485" lon="2.214068">
        <ele>117.399164</ele>
        <time>2023-10-19T20:35:15.392Z</time>
      </trkpt>
      <trkpt lat="48.846899" lon="2.214200">
        <ele>117.774805</ele>
        <time>2023-10-19T20:35:25.065Z</time>
      </trkpt>
      <trkpt lat="48.847251" lon="2.214274">
        <ele>118.090361</ele>
        <time>2023-10-19T20:35:31.620Z</time>
      </trkpt>
      <trkpt lat="48.847517" lon="2.214280">
        <ele>118.326597</ele>
        <time>2023-10-19T20:35:35.498Z</time>
      </trkpt>
      <trkpt lat="48.847797" lon="2.214277">
        <ele>118.575246</ele>
        <time>2023-10-19T20:35:38.976Z</time>
      </trkpt>
      <trkpt lat="48.848201" lon="2.214175">
        <ele>118.147206</ele>
        <time>2023-10-19T20:35:43.631Z</time>
      </trkpt>
      <trkpt lat="48.849397" lon="2.213765">
        <ele>115.809400</ele>
        <time>2023-10-19T20:35:56.886Z</time>
      </trkpt>
      <trkpt lat="48.850217" lon="2.213483">
        <ele>114.316729</ele>
        <time>2023-10-19T20:36:06.148Z</time>
      </trkpt>
      <trkpt lat="48.850517" lon="2.213382">
        <ele>113.792357</ele>
        <time>2023-10-19T20:36:09.699Z</time>
      </trkpt>
      <trkpt lat="48.851824" lon="2.212932">
        <ele>111.279170</ele>
        <time>2023-10-19T20:36:25.067Z</time>
      </trkpt>
      <trkpt lat="48.852509" lon="2.212677">
        <ele>109.676952</ele>
        <time>2023-10-19T20:36:32.688Z</time>
      </trkpt>
      <trkpt lat="48.852964" lon="2.212530">
        <ele>108.620166</ele>
        <time>2023-10-19T20:36:37.559Z</time>
      </trkpt>
      <trkpt lat="48.853993" lon="2.212194">
        <ele>106.042787</ele>
        <time>2023-10-19T20:36:48.366Z</time>
      </trkpt>
      <trkpt lat="48.854293" lon="2.212091">
        <ele>105.274557</ele>
        <time>2023-10-19T20:36:51.546Z</time>
      </trkpt>
      <trkpt lat="48.854844" lon="2.211901">
        <ele>103.863278</ele>
        <time>2023-10-19T20:36:57.615Z</time>
      </trkpt>
      <trkpt lat="48.855857" lon="2.211550">
        <ele>101.950211</ele>
        <time>2023-10-19T20:37:09.742Z</time>
      </trkpt>
      <trkpt lat="48.856781" lon="2.211238">
        <ele>100.190210</ele>
        <time>2023-10-19T20:37:20.216Z</time>
      </trkpt>
      <trkpt lat="48.856932" lon="2.211236">
        <ele>99.773092</ele>
        <time>2023-10-19T20:37:21.819Z</time>
      </trkpt>
      <trkpt lat="48.856976" lon="2.211225">
        <ele>99.649919</ele>
        <time>2023-10-19T20:37:22.318Z</time>
      </trkpt>
      <trkpt lat="48.857525" lon="2.211047">
        <ele>98.099314</ele>
        <time>2023-10-19T20:37:28.407Z</time>
      </trkpt>
      <trkpt lat="48.857863" lon="2.211015">
        <ele>97.163858</ele>
        <time>2023-10-19T20:37:31.996Z</time>
      </trkpt>
      <trkpt lat="48.857941" lon="2.211028">
        <ele>96.947110</ele>
        <time>2023-10-19T20:37:32.801Z</time>
      </trkpt>
      <trkpt lat="48.858038" lon="2.211054">
        <ele>96.675035</ele>
        <time>2023-10-19T20:37:33.836Z</time>
      </trkpt>
      <trkpt lat="48.858388" lon="2.211223">
        <ele>95.660628</ele>
        <time>2023-10-19T20:37:37.501Z</time>
      </trkpt>
      <trkpt lat="48.858586" lon="2.211420">
        <ele>94.727718</ele>
        <time>2023-10-19T20:37:39.763Z</time>
      </trkpt>
      <trkpt lat="48.858758" lon="2.211695">
        <ele>93.610646</ele>
        <time>2023-10-19T20:37:42.127Z</time>
      </trkpt>
      <trkpt lat="48.858839" lon="2.211839">
        <ele>93.052882</ele>
        <time>2023-10-19T20:37:43.311Z</time>
      </trkpt>
      <trkpt lat="48.858887" lon="2.211956">
        <ele>92.646950</ele>
        <time>2023-10-19T20:37:44.190Z</time>
      </trkpt>
      <trkpt lat="48.859050" lon="2.212519">
        <ele>90.836076</ele>
        <time>2023-10-19T20:37:48.093Z</time>
      </trkpt>
      <trkpt lat="48.859063" lon="2.212560">
        <ele>90.702085</ele>
        <time>2023-10-19T20:37:48.381Z</time>
      </trkpt>
      <trkpt lat="48.859170" lon="2.212937">
        <ele>89.493319</ele>
        <time>2023-10-19T20:37:51.030Z</time>
      </trkpt>
      <trkpt lat="48.859348" lon="2.213507">
        <ele>87.635796</ele>
        <time>2023-10-19T20:37:54.995Z</time>
      </trkpt>
      <trkpt lat="48.859375" lon="2.213607">
        <ele>87.303017</ele>
        <time>2023-10-19T20:37:55.655Z</time>
      </trkpt>
      <trkpt lat="48.859411" lon="2.213734">
        <ele>86.830958</ele>
        <time>2023-10-19T20:37:56.490Z</time>
      </trkpt>
      <trkpt lat="48.859450" lon="2.213888">
        <ele>86.267658</ele>
        <time>2023-10-19T20:37:57.513Z</time>
      </trkpt>
      <trkpt lat="48.859672" lon="2.214604">
        <ele>83.565682</ele>
        <time>2023-10-19T20:38:02.315Z</time>
      </trkpt>
      <trkpt lat="48.859766" lon="2.214769">
        <ele>82.820615</ele>
        <time>2023-10-19T20:38:03.638Z</time>
      </trkpt>
      <trkpt lat="48.859879" lon="2.214893">
        <ele>82.097474</ele>
        <time>2023-10-19T20:38:04.927Z</time>
      </trkpt>
      <trkpt lat="48.860562" lon="2.215354">
        <ele>78.219970</ele>
        <time>2023-10-19T20:38:11.991Z</time>
      </trkpt>
      <trkpt lat="48.861402" lon="2.215898">
        <ele>73.607393</ele>
        <time>2023-10-19T20:38:20.727Z</time>
      </trkpt>
      <trkpt lat="48.862256" lon="2.216483">
        <ele>68.868853</ele>
        <time>2023-10-19T20:38:29.452Z</time>
      </trkpt>
      <trkpt lat="48.862352" lon="2.216578">
        <ele>68.239372</ele>
        <time>2023-10-19T20:38:30.509Z</time>
      </trkpt>
      <trkpt lat="48.862460" lon="2.216781">
        <ele>67.295559</ele>
        <time>2023-10-19T20:38:32.100Z</time>
      </trkpt>
      <trkpt lat="48.862505" lon="2.216959">
        <ele>66.606190</ele>
        <time>2023-10-19T20:38:33.266Z</time>
      </trkpt>
      <trkpt lat="48.862571" lon="2.217305">
        <ele>65.303842</ele>
        <time>2023-10-19T20:38:35.468Z</time>
      </trkpt>
      <trkpt lat="48.862624" lon="2.217595">
        <ele>64.215759</ele>
        <time>2023-10-19T20:38:37.308Z</time>
      </trkpt>
      <trkpt lat="48.862671" lon="2.217831">
        <ele>63.324359</ele>
        <time>2023-10-19T20:38:38.811Z</time>
      </trkpt>
      <trkpt lat="48.862766" lon="2.218040">
        <ele>62.405994</ele>
        <time>2023-10-19T20:38:40.363Z</time>
      </trkpt>
      <trkpt lat="48.862956" lon="2.218348">
        <ele>60.879600</ele>
        <time>2023-10-19T20:38:42.935Z</time>
      </trkpt>
      <trkpt lat="48.863179" lon="2.218529">
        <ele>59.490420</ele>
        <time>2023-10-19T20:38:45.257Z</time>
      </trkpt>
      <trkpt lat="48.863361" lon="2.218606">
        <ele>58.636024</ele>
        <time>2023-10-19T20:38:47.018Z</time>
      </trkpt>
      <trkpt lat="48.863981" lon="2.218716">
        <ele>56.158569</ele>
        <time>2023-10-19T20:38:52.947Z</time>
      </trkpt>
      <trkpt lat="48.864122" lon="2.218747">
        <ele>55.593123</ele>
        <time>2023-10-19T20:38:54.358Z</time>
      </trkpt>
      <trkpt lat="48.864512" lon="2.218906">
        <ele>53.990528</ele>
        <time>2023-10-19T20:38:58.387Z</time>
      </trkpt>
      <trkpt lat="48.864915" lon="2.219143">
        <ele>52.275517</ele>
        <time>2023-10-19T20:39:02.807Z</time>
      </trkpt>
      <trkpt lat="48.865256" lon="2.219419">
        <ele>51.349449</ele>
        <time>2023-10-19T20:39:06.865Z</time>
      </trkpt>
      <trkpt lat="48.865521" lon="2.219680">
        <ele>50.713464</ele>
        <time>2023-10-19T20:39:10.290Z</time>
      </trkpt>
      <trkpt lat="48.866097" lon="2.220420">
        <ele>49.194499</ele>
        <time>2023-10-19T20:39:18.564Z</time>
      </trkpt>
      <trkpt lat="48.866511" lon="2.220857">
        <ele>48.240489</ele>
        <time>2023-10-19T20:39:24.354Z</time>
      </trkpt>
      <trkpt lat="48.866733" lon="2.221035">
        <ele>47.913611</ele>
        <time>2023-10-19T20:39:27.436Z</time>
      </trkpt>
      <trkpt lat="48.866944" lon="2.221195">
        <ele>47.606520</ele>
        <time>2023-10-19T20:39:30.412Z</time>
      </trkpt>
      <trkpt lat="48.867108" lon="2.221325">
        <ele>47.365638</ele>
        <time>2023-10-19T20:39:32.808Z</time>
      </trkpt>
      <trkpt lat="48.867130" lon="2.221344">
        <ele>47.332685</ele>
        <time>2023-10-19T20:39:33.124Z</time>
      </trkpt>
      <trkpt lat="48.867208" lon="2.221411">
        <ele>47.216005</ele>
        <time>2023-10-19T20:39:34.277Z</time>
      </trkpt>
      <trkpt lat="48.867412" lon="2.221574">
        <ele>46.915858</ele>
        <time>2023-10-19T20:39:37.146Z</time>
      </trkpt>
      <trkpt lat="48.867430" lon="2.221591">
        <ele>46.888259</ele>
        <time>2023-10-19T20:39:37.406Z</time>
      </trkpt>
      <trkpt lat="48.867555" lon="2.221703">
        <ele>46.699290</ele>
        <time>2023-10-19T20:39:39.131Z</time>
      </trkpt>
      <trkpt lat="48.867584" lon="2.221737">
        <ele>46.651594</ele>
        <time>2023-10-19T20:39:39.566Z</time>
      </trkpt>
      <trkpt lat="48.867606" lon="2.221762">
        <ele>46.615822</ele>
        <time>2023-10-19T20:39:39.872Z</time>
      </trkpt>
      <trkpt lat="48.867657" lon="2.221836">
        <ele>46.524003</ele>
        <time>2023-10-19T20:39:40.687Z</time>
      </trkpt>
      <trkpt lat="48.867906" lon="2.222191">
        <ele>46.079415</ele>
        <time>2023-10-19T20:39:44.558Z</time>
      </trkpt>
      <trkpt lat="48.868153" lon="2.222732">
        <ele>44.940511</ele>
        <time>2023-10-19T20:39:49.222Z</time>
      </trkpt>
      <trkpt lat="48.868226" lon="2.222976">
        <ele>44.444050</ele>
        <time>2023-10-19T20:39:51.091Z</time>
      </trkpt>
      <trkpt lat="48.868256" lon="2.223100">
        <ele>44.199347</ele>
        <time>2023-10-19T20:39:51.993Z</time>
      </trkpt>
      <trkpt lat="48.868292" lon="2.223227">
        <ele>43.943219</ele>
        <time>2023-10-19T20:39:52.935Z</time>
      </trkpt>
      <trkpt lat="48.868314" lon="2.223418">
        <ele>43.584085</ele>
        <time>2023-10-19T20:39:54.302Z</time>
      </trkpt>
      <trkpt lat="48.868310" lon="2.223482">
        <ele>43.465016</ele>
        <time>2023-10-19T20:39:54.744Z</time>
      </trkpt>
      <trkpt lat="48.868304" lon="2.223594">
        <ele>43.256894</ele>
        <time>2023-10-19T20:39:55.511Z</time>
      </trkpt>
      <trkpt lat="48.868298" lon="2.223749">
        <ele>42.969321</ele>
        <time>2023-10-19T20:39:56.575Z</time>
      </trkpt>
      <trkpt lat="48.868286" lon="2.223972">
        <ele>42.554922</ele>
        <time>2023-10-19T20:39:58.132Z</time>
      </trkpt>
      <trkpt lat="48.868173" lon="2.224500">
        <ele>41.526553</ele>
        <time>2023-10-19T20:40:01.817Z</time>
      </trkpt>
      <trkpt lat="48.867968" lon="2.225083">
        <ele>40.227556</ele>
        <time>2023-10-19T20:40:06.049Z</time>
      </trkpt>
      <trkpt lat="48.867903" lon="2.225283">
        <ele>39.766466</ele>
        <time>2023-10-19T20:40:07.452Z</time>
      </trkpt>
      <trkpt lat="48.867707" lon="2.225890">
        <ele>38.368826</ele>
        <time>2023-10-19T20:40:11.816Z</time>
      </trkpt>
      <trkpt lat="48.867697" lon="2.225927">
        <ele>38.286145</ele>
        <time>2023-10-19T20:40:12.079Z</time>
      </trkpt>
      <trkpt lat="48.867691" lon="2.225948">
        <ele>38.238822</ele>
        <time>2023-10-19T20:40:12.232Z</time>
      </trkpt>
      <trkpt lat="48.867675" lon="2.226046">
        <ele>38.030116</ele>
        <time>2023-10-19T20:40:12.899Z</time>
      </trkpt>
      <trkpt lat="48.867582" lon="2.226350">
        <ele>37.337136</ele>
        <time>2023-10-19T20:40:15.145Z</time>
      </trkpt>
      <trkpt lat="48.867570" lon="2.226386">
        <ele>37.253717</ele>
        <time>2023-10-19T20:40:15.417Z</time>
      </trkpt>
      <trkpt lat="48.867440" lon="2.226838">
        <ele>36.234057</ele>
        <time>2023-10-19T20:40:18.801Z</time>
      </trkpt>
      <trkpt lat="48.867291" lon="2.227695">
        <ele>34.971968</ele>
        <time>2023-10-19T20:40:25.211Z</time>
      </trkpt>
      <trkpt lat="48.867164" lon="2.228221">
        <ele>34.554050</ele>
        <time>2023-10-19T20:40:29.441Z</time>
      </trkpt>
      <trkpt lat="48.867112" lon="2.228576">
        <ele>34.282783</ele>
        <time>2023-10-19T20:40:32.280Z</time>
      </trkpt>
      <trkpt lat="48.866504" lon="2.230901">
        <ele>32.625996</ele>
        <time>2023-10-19T20:40:54.048Z</time>
      </trkpt>
      <trkpt lat="48.866436" lon="2.231145">
        <ele>32.477737</ele>
        <time>2023-10-19T20:40:56.176Z</time>
      </trkpt>
      <trkpt lat="48.866370" lon="2.231378">
        <ele>32.335806</ele>
        <time>2023-10-19T20:40:58.170Z</time>
      </trkpt>
      <trkpt lat="48.866258" lon="2.231749">
        <ele>32.107425</ele>
        <time>2023-10-19T20:41:01.382Z</time>
      </trkpt>
      <trkpt lat="48.865962" lon="2.232592">
        <ele>31.601710</ele>
        <time>2023-10-19T20:41:08.969Z</time>
      </trkpt>
      <trkpt lat="48.865672" lon="2.233237">
        <ele>31.247824</ele>
        <time>2023-10-19T20:41:15.268Z</time>
      </trkpt>
      <trkpt lat="48.865332" lon="2.233813">
        <ele>30.897274</ele>
        <time>2023-10-19T20:41:21.924Z</time>
      </trkpt>
      <trkpt lat="48.865067" lon="2.234261">
        <ele>30.624367</ele>
        <time>2023-10-19T20:41:27.121Z</time>
      </trkpt>
      <trkpt lat="48.864992" lon="2.234394">
        <ele>30.545016</ele>
        <time>2023-10-19T20:41:28.671Z</time>
      </trkpt>
      <trkpt lat="48.864947" lon="2.234482">
        <ele>30.494527</ele>
        <time>2023-10-19T20:41:29.576Z</time>
      </trkpt>
      <trkpt lat="48.864915" lon="2.234544">
        <ele>30.480119</ele>
        <time>2023-10-19T20:41:30.274Z</time>
      </trkpt>
      <trkpt lat="48.864591" lon="2.235270">
        <ele>30.392437</ele>
        <time>2023-10-19T20:41:38.538Z</time>
      </trkpt>
      <trkpt lat="48.864318" lon="2.235821">
        <ele>30.323494</ele>
        <time>2023-10-19T20:41:45.147Z</time>
      </trkpt>
      <trkpt lat="48.864009" lon="2.236605">
        <ele>30.232148</ele>
        <time>2023-10-19T20:41:54.039Z</time>
      </trkpt>
      <trkpt lat="48.863787" lon="2.237257">
        <ele>30.206952</ele>
        <time>2023-10-19T20:42:01.274Z</time>
      </trkpt>
      <trkpt lat="48.863657" lon="2.237837">
        <ele>30.200246</ele>
        <time>2023-10-19T20:42:06.550Z</time>
      </trkpt>
      <trkpt lat="48.863569" lon="2.238458">
        <ele>30.193293</ele>
        <time>2023-10-19T20:42:12.699Z</time>
      </trkpt>
      <trkpt lat="48.863544" lon="2.238811">
        <ele>30.189407</ele>
        <time>2023-10-19T20:42:16.352Z</time>
      </trkpt>
      <trkpt lat="48.863482" lon="2.239024">
        <ele>30.186857</ele>
        <time>2023-10-19T20:42:18.676Z</time>
      </trkpt>
      <trkpt lat="48.863475" lon="2.239193">
        <ele>30.185004</ele>
        <time>2023-10-19T20:42:20.483Z</time>
      </trkpt>
      <trkpt lat="48.863481" lon="2.239404">
        <ele>30.192352</ele>
        <time>2023-10-19T20:42:22.699Z</time>
      </trkpt>
      <trkpt lat="48.863644" lon="2.239485">
        <ele>30.295716</ele>
        <time>2023-10-19T20:42:25.326Z</time>
      </trkpt>
      <trkpt lat="48.863859" lon="2.239599">
        <ele>30.432963</ele>
        <time>2023-10-19T20:42:29.012Z</time>
      </trkpt>
      <trkpt lat="48.863893" lon="2.239621">
        <ele>30.455236</ele>
        <time>2023-10-19T20:42:29.624Z</time>
      </trkpt>
      <trkpt lat="48.863993" lon="2.239699">
        <ele>30.522982</ele>
        <time>2023-10-19T20:42:31.573Z</time>
      </trkpt>
      <trkpt lat="48.864901" lon="2.240358">
        <ele>31.129450</ele>
        <time>2023-10-19T20:42:48.529Z</time>
      </trkpt>
      <trkpt lat="48.866230" lon="2.241481">
        <ele>32.758404</ele>
        <time>2023-10-19T20:43:18.715Z</time>
      </trkpt>
      <trkpt lat="48.866317" lon="2.241572">
        <ele>32.880284</ele>
        <time>2023-10-19T20:43:20.825Z</time>
      </trkpt>
      <trkpt lat="48.866456" lon="2.241719">
        <ele>33.075706</ele>
        <time>2023-10-19T20:43:24.228Z</time>
      </trkpt>
      <trkpt lat="48.866758" lon="2.242001">
        <ele>33.454436</ele>
        <time>2023-10-19T20:43:30.992Z</time>
      </trkpt>
      <trkpt lat="48.867419" lon="2.242602">
        <ele>34.153387</ele>
        <time>2023-10-19T20:43:45.656Z</time>
      </trkpt>
      <trkpt lat="48.868019" lon="2.243177">
        <ele>34.797038</ele>
        <time>2023-10-19T20:43:58.863Z</time>
      </trkpt>
      <trkpt lat="48.869051" lon="2.244123">
        <ele>35.167230</ele>
        <time>2023-10-19T20:44:18.249Z</time>
      </trkpt>
      <trkpt lat="48.869950" lon="2.244855">
        <ele>35.198950</ele>
        <time>2023-10-19T20:44:33.302Z</time>
      </trkpt>
      <trkpt lat="48.870498" lon="2.245273">
        <ele>34.882632</ele>
        <time>2023-10-19T20:44:41.392Z</time>
      </trkpt>
      <trkpt lat="48.871281" lon="2.245856">
        <ele>34.432816</ele>
        <time>2023-10-19T20:44:52.526Z</time>
      </trkpt>
      <trkpt lat="48.872487" lon="2.246832">
        <ele>33.872704</ele>
        <time>2023-10-19T20:45:10.607Z</time>
      </trkpt>
      <trkpt lat="48.873298" lon="2.247574">
        <ele>33.934443</ele>
        <time>2023-10-19T20:45:23.755Z</time>
      </trkpt>
      <trkpt lat="48.874238" lon="2.248537">
        <ele>34.644820</ele>
        <time>2023-10-19T20:45:44.301Z</time>
      </trkpt>
      <trkpt lat="48.874261" lon="2.248559">
        <ele>34.661850</ele>
        <time>2023-10-19T20:45:44.812Z</time>
      </trkpt>
      <trkpt lat="48.874392" lon="2.248684">
        <ele>34.758779</ele>
        <time>2023-10-19T20:45:47.785Z</time>
      </trkpt>
      <trkpt lat="48.874518" lon="2.248804">
        <ele>34.911618</ele>
        <time>2023-10-19T20:45:50.725Z</time>
      </trkpt>
      <trkpt lat="48.874965" lon="2.249211">
        <ele>35.562709</ele>
        <time>2023-10-19T20:46:01.664Z</time>
      </trkpt>
      <trkpt lat="48.875444" lon="2.249646">
        <ele>36.259930</ele>
        <time>2023-10-19T20:46:13.721Z</time>
      </trkpt>
      <trkpt lat="48.875397" lon="2.249835">
        <ele>36.425999</ele>
        <time>2023-10-19T20:46:16.320Z</time>
      </trkpt>
      <trkpt lat="48.875354" lon="2.249874">
        <ele>36.488568</ele>
        <time>2023-10-19T20:46:17.624Z</time>
      </trkpt>
      <trkpt lat="48.875263" lon="2.249955">
        <ele>36.620339</ele>
        <time>2023-10-19T20:46:20.262Z</time>
      </trkpt>
      <trkpt lat="48.874998" lon="2.251053">
        <ele>37.210244</ele>
        <time>2023-10-19T20:46:38.042Z</time>
      </trkpt>
      <trkpt lat="48.875076" lon="2.251127">
        <ele>37.246417</ele>
        <time>2023-10-19T20:46:39.946Z</time>
      </trkpt>
      <trkpt lat="48.875024" lon="2.251339">
        <ele>37.304966</ele>
        <time>2023-10-19T20:46:42.355Z</time>
      </trkpt>
      <trkpt lat="48.874916" lon="2.251790">
        <ele>37.429165</ele>
        <time>2023-10-19T20:46:47.267Z</time>
      </trkpt>
      <trkpt lat="48.874795" lon="2.252263">
        <ele>37.560495</ele>
        <time>2023-10-19T20:46:52.685Z</time>
      </trkpt>
      <trkpt lat="48.874212" lon="2.254666">
        <ele>38.107508</ele>
        <time>2023-10-19T20:47:18.531Z</time>
      </trkpt>
      <trkpt lat="48.874196" lon="2.254706">
        <ele>38.116677</ele>
        <time>2023-10-19T20:47:19.055Z</time>
      </trkpt>
      <trkpt lat="48.874129" lon="2.254874">
        <ele>38.155153</ele>
        <time>2023-10-19T20:47:21.313Z</time>
      </trkpt>
      <trkpt lat="48.874093" lon="2.254966">
        <ele>38.176118</ele>
        <time>2023-10-19T20:47:22.606Z</time>
      </trkpt>
      <trkpt lat="48.874012" lon="2.255030">
        <ele>38.203299</ele>
        <time>2023-10-19T20:47:24.247Z</time>
      </trkpt>
      <trkpt lat="48.873973" lon="2.255204">
        <ele>38.239299</ele>
        <time>2023-10-19T20:47:26.334Z</time>
      </trkpt>
      <trkpt lat="48.873983" lon="2.255264">
        <ele>38.251421</ele>
        <time>2023-10-19T20:47:27.067Z</time>
      </trkpt>
      <trkpt lat="48.873994" lon="2.255296">
        <ele>38.258492</ele>
        <time>2023-10-19T20:47:27.488Z</time>
      </trkpt>
      <trkpt lat="48.874045" lon="2.255369">
        <ele>38.279348</ele>
        <time>2023-10-19T20:47:28.787Z</time>
      </trkpt>
      <trkpt lat="48.874114" lon="2.255396">
        <ele>38.288679</ele>
        <time>2023-10-19T20:47:30.074Z</time>
      </trkpt>
      <trkpt lat="48.874175" lon="2.255375">
        <ele>38.294836</ele>
        <time>2023-10-19T20:47:31.203Z</time>
      </trkpt>
      <trkpt lat="48.874194" lon="2.255353">
        <ele>38.297187</ele>
        <time>2023-10-19T20:47:31.603Z</time>
      </trkpt>
      <trkpt lat="48.874225" lon="2.255315">
        <ele>38.301107</ele>
        <time>2023-10-19T20:47:32.285Z</time>
      </trkpt>
      <trkpt lat="48.874242" lon="2.255274">
        <ele>38.304246</ele>
        <time>2023-10-19T20:47:32.807Z</time>
      </trkpt>
      <trkpt lat="48.874295" lon="2.255288">
        <ele>38.309541</ele>
        <time>2023-10-19T20:47:33.713Z</time>
      </trkpt>
      <trkpt lat="48.874449" lon="2.255328">
        <ele>38.324922</ele>
        <time>2023-10-19T20:47:36.366Z</time>
      </trkpt>
      <trkpt lat="48.875600" lon="2.255929">
        <ele>38.444729</ele>
        <time>2023-10-19T20:47:54.509Z</time>
      </trkpt>
      <trkpt lat="48.875668" lon="2.255964">
        <ele>38.451796</ele>
        <time>2023-10-19T20:47:55.540Z</time>
      </trkpt>
      <trkpt lat="48.875779" lon="2.256018">
        <ele>38.459878</ele>
        <time>2023-10-19T20:47:57.085Z</time>
      </trkpt>
      <trkpt lat="48.876038" lon="2.256146">
        <ele>38.459878</ele>
        <time>2023-10-19T20:48:00.825Z</time>
      </trkpt>
      <trkpt lat="48.876151" lon="2.256260">
        <ele>38.459878</ele>
        <time>2023-10-19T20:48:02.492Z</time>
      </trkpt>
      <trkpt lat="48.876509" lon="2.256448">
        <ele>38.459878</ele>
        <time>2023-10-19T20:48:07.429Z</time>
      </trkpt>
      <trkpt lat="48.876733" lon="2.256587">
        <ele>38.459878</ele>
        <time>2023-10-19T20:48:10.679Z</time>
      </trkpt>
      <trkpt lat="48.876720" lon="2.256645">
        <ele>38.459878</ele>
        <time>2023-10-19T20:48:11.157Z</time>
      </trkpt>
      <trkpt lat="48.876623" lon="2.257099">
        <ele>38.459878</ele>
        <time>2023-10-19T20:48:15.188Z</time>
      </trkpt>
      <trkpt lat="48.876554" lon="2.257044">
        <ele>38.459878</ele>
        <time>2023-10-19T20:48:16.080Z</time>
      </trkpt>
    </trkseg>
  </trk>
</gpx>